[[{"header":{"parameterUnit":"m.s-1","parameterCategory":1,"la1":31.0,"la2":29.5877,"lo1":-88.7671,"lo2":-86.6584,"dy":0.0162,"dx":0.0185,"nx":115,"ny":88,"refTime":"2024-07-12T12:00:00:Z","depth":0,"parameterNumber":2,"parameterNumberName":"U-component_of_WINDS"},"data":[0.0,0.0,0.0,0.0,0.0,0.0,0.0,0.0,0.0,0.0,0.0,0.0,0.0,0.0,0.0,0.0,0.0,0.0,0.0,0.0,0.0,0.0,0.0,0.0,0.0,0.0,0.0,0.0,0.0,0.0,0.0,0.0,0.0,0.0,0.0,0.0,0.0,0.0,0.0,0.0,0.0,0.0,0.0,0.0,0.0,0.0,0.0,0.0,0.0,0.0,0.0,0.0,0.0,0.0,0.0,0.0,0.0,0.0,0.0,0.0,0.0,0.0,0.0,0.0,0.0,0.0,0.0,0.0,0.0,0.0,0.0,0.0,0.0,0.0,0.0,0.0,0.0,0.0,0.0,0.0,0.0,0.0,0.0,0.0,0.0,0.0,0.0,0.0,0.0,0.0,0.0,0.0,0.0,0.0,0.0,0.0,0.0,0.0,0.0,0.0,0.0,0.0,0.0,0.0,0.0,0.0,0.0,0.0,0.0,0.0,0.0,0.0,0.0,0.0,0.0,0.0,0.0,0.0,0.0,0.0,0.0,0.0,0.0,0.0,0.0,0.0,0.0,0.0,0.0,0.0,0.0,0.0,0.0,0.0,0.0,0.0,0.0,0.0,0.0,0.0,0.0,0.0,0.0,0.0,0.0,0.0,0.0,0.0,0.0,0.0,0.0,0.0,0.0,0.0,0.0,0.0,0.0,0.0,0.0,0.0,0.0,0.0,0.0,0.0,0.0,0.0,0.0,0.0,0.0,0.0,0.0,0.0,0.0,0.0,0.0,0.0,0.0,0.0,0.0,0.0,0.0,0.0,0.0,0.0,0.0,0.0,0.0,0.0,0.0,0.0,0.0,0.0,0.0,0.0,0.0,0.0,0.0,0.0,0.0,0.0,0.0,0.0,0.0,0.0,0.0,0.0,0.0,0.0,0.0,0.0,0.0,0.0,0.0,0.0,0.0,0.0,0.0,0.0,0.0,0.0,0.0,0.0,0.0,0.0,0.0,0.0,0.0,0.0,0.0,0.0,0.0,0.0,0.0,0.0,0.0,0.0,0.0,0.0,0.0,0.0,0.0,0.0,0.0,0.0,0.0,0.0,0.0,0.0,0.0,0.0,0.0,0.0,0.0,0.0,0.0,0.0,0.0,0.0,0.0,0.0,0.0,0.0,0.0,0.0,0.0,0.0,0.0,0.0,0.0,0.0,0.0,0.0,0.0,0.0,0.0,0.0,0.0,0.0,0.0,0.0,0.0,0.0,0.0,0.0,0.0,0.0,0.0,0.0,0.0,0.0,0.0,0.0,0.0,0.0,0.0,0.0,0.0,0.0,0.0,0.0,0.0,0.0,0.0,0.0,0.0,0.0,0.0,0.0,0.0,0.0,0.0,0.0,0.0,0.0,0.0,0.0,0.0,0.0,0.0,0.0,0.0,0.0,0.0,0.0,0.0,0.0,0.0,0.0,0.0,0.0,0.0,0.0,0.0,0.0,0.0,0.0,0.0,0.0,0.0,0.0,0.0,0.0,0.0,0.0,0.0,0.0,0.0,0.0,0.0,0.0,0.0,0.0,0.0,0.0,0.0,0.0,0.0,0.0,0.0,0.0,0.0,0.0,0.0,0.0,0.0,0.0,0.0,0.0,0.0,0.0,0.0,0.0,0.0,0.0,0.0,0.0,0.0,0.0,0.0,0.0,0.0,0.0,0.0,0.0,0.0,0.0,0.0,0.0,0.0,0.0,0.0,0.0,0.0,0.0,0.0,0.0,0.0,0.0,0.0,0.0,0.0,0.0,0.0,0.0,0.0,0.0,0.0,0.0,0.0,0.0,0.0,0.0,0.0,0.0,0.0,0.0,0.0,0.0,0.0,0.0,0.0,0.0,0.0,0.0,0.0,0.0,0.0,0.0,0.0,0.0,0.0,0.0,0.0,0.0,0.0,0.0,0.0,0.0,0.0,0.0,0.0,0.0,0.0,0.0,0.0,0.0,0.0,0.0,0.0,0.0,0.0,0.0,0.0,0.0,0.0,0.0,0.0,0.0,0.0,0.0,0.0,0.0,0.0,0.0,0.0,0.0,0.0,0.0,0.0,0.0,0.0,0.0,0.0,0.0,0.0,0.0,0.0,0.0,0.0,0.0,0.0,0.0,0.0,0.0,0.0,0.0,0.0,0.0,0.0,0.0,0.0,0.0,0.0,0.0,0.0,0.0,0.0,0.0,0.0,0.0,0.0,0.0,0.0,0.0,0.0,0.0,0.0,0.0,0.0,0.0,0.0,0.0,0.0,0.0,0.0,0.0,0.0,0.0,0.0,0.0,0.0,0.0,0.0,0.0,0.0,0.0,0.0,0.0,0.0,0.0,0.0,0.0,0.0,0.0,0.0,0.0,0.0,0.0,0.0,0.0,0.0,0.0,0.0,0.0,0.0,0.0,0.0,0.0,0.0,0.0,0.0,0.0,0.0,0.0,0.0,0.0,0.0,0.0,0.0,0.0,0.0,0.0,0.0,0.0,0.0,0.0,0.0,0.0,0.0,0.0,0.0,0.0,0.0,0.0,0.0,0.0,0.0,0.0,0.0,0.0,0.0,0.0,0.0,0.0,0.0,0.0,0.0,0.0,0.0,0.0,0.0,0.0,0.0,0.0,0.0,0.0,0.0,0.0,0.0,0.0,0.0,0.0,0.0,0.0,0.0,0.0,0.0,0.0,0.0,0.0,0.0,0.0,0.0,0.0,0.0,0.0,0.0,0.0,0.0,0.0,0.0,0.0,0.0,0.0,0.0,0.0,0.0,0.0,0.0,0.0,0.0,0.0,0.0,0.0,0.0,0.0,0.0,0.0,0.0,0.0,0.0,0.0,0.0,0.0,0.0,0.0,0.0,0.0,0.0,0.0,0.0,0.0,0.0,0.0,0.0,0.0,0.0,0.0,0.0,0.0,0.0,0.0,0.0,0.0,0.0,0.0,0.0,0.0,0.0,0.0,0.0,0.0,0.0,0.0,0.0,0.0,0.0,0.0,0.0,0.0,0.0,0.0,0.0,0.0,0.0,0.0,0.0,0.0,0.0,0.0,0.0,0.0,0.0,0.0,0.0,0.0,0.0,0.0,0.0,0.0,0.0,0.0,0.0,0.0,0.0,0.0,0.0,0.0,0.0,0.0,0.0,0.0,0.0,0.0,0.0,0.0,0.0,0.0,0.0,0.0,0.0,0.0,0.0,0.0,0.0,0.0,0.0,0.0,0.0,0.0,0.0,0.0,0.0,0.0,0.0,0.0,0.0,0.0,0.0,0.0,0.0,0.0,0.0,0.0,0.0,0.0,0.0,0.0,0.0,0.0,0.0,0.0,0.0,0.0,0.0,0.0,0.0,0.0,0.0,0.0,0.0,0.0,0.0,0.0,0.0,0.0,0.0,0.0,0.0,0.0,0.0,0.0,0.0,0.0,0.0,0.0,0.0,0.0,0.0,0.0,0.0,0.0,0.0,0.0,0.0,0.0,0.0,0.0,0.0,0.0,0.0,0.0,0.0,0.0,0.0,0.0,0.0,0.0,0.0,0.0,0.0,0.0,0.0,0.0,0.0,0.0,0.0,0.0,0.0,0.0,0.0,0.0,0.0,0.0,0.0,0.0,0.0,0.0,0.0,0.0,0.0,0.0,0.0,0.0,0.0,0.0,0.0,0.0,0.0,0.0,0.0,0.0,0.0,0.0,0.0,0.0,0.0,0.0,0.0,0.0,0.0,0.0,0.0,0.0,0.0,0.0,0.0,0.0,0.0,0.0,0.0,0.0,0.0,0.0,0.0,0.0,0.0,0.0,0.0,0.0,0.0,0.0,0.0,0.0,0.0,0.0,0.0,0.0,0.0,0.0,0.0,0.0,0.0,0.0,0.0,0.0,0.0,0.0,0.0,0.0,0.0,0.0,0.0,0.0,0.0,0.0,0.0,0.0,0.0,0.0,0.0,0.0,0.0,0.0,0.0,0.0,0.0,0.0,0.0,0.0,0.0,0.0,0.0,0.0,0.0,0.0,0.0,0.0,0.0,0.0,0.0,0.0,0.0,0.0,0.0,0.0,0.0,0.0,0.0,0.0,0.0,0.0,0.0,0.0,0.0,0.0,0.0,0.0,0.0,0.0,0.0,0.0,0.0,0.0,0.0,0.0,0.0,0.0,0.0,0.0,0.0,0.0,0.0,0.0,0.0,0.0,0.0,0.0,0.0,0.0,0.0,0.0,0.0,0.0,0.0,0.0,0.0,0.0,0.0,0.0,0.0,0.0,0.0,0.0,0.0,0.0,-1.6025,0.0,0.0,0.0,0.0,0.0,0.0,0.0,0.0,0.0,0.0,0.0,0.0,0.0,0.0,0.0,0.0,0.0,0.0,0.0,0.0,0.0,0.0,0.0,0.0,0.0,0.0,0.0,0.0,0.0,0.0,0.0,0.0,0.0,0.0,0.0,0.0,0.0,0.0,0.0,0.0,0.0,0.0,0.0,0.0,0.0,0.0,0.0,0.0,0.0,0.0,0.0,0.0,0.0,0.0,0.0,0.0,0.0,0.0,0.0,0.0,0.0,0.0,0.0,0.0,0.0,0.0,0.0,0.0,0.0,0.0,0.0,0.0,0.0,0.0,0.0,0.0,0.0,0.0,0.0,0.0,0.0,0.0,0.0,0.0,0.0,0.0,0.0,0.0,0.0,0.0,0.0,0.0,0.0,0.0,0.0,0.0,0.0,0.0,0.0,0.0,0.0,0.0,0.0,0.0,0.0,0.0,0.0,0.0,0.0,0.0,-1.5957,-1.6484,-1.5629,-1.5372,-1.5741,0.0,0.0,0.0,0.0,0.0,0.0,0.0,0.0,0.0,0.0,0.0,0.0,0.0,0.0,0.0,0.0,0.0,0.0,0.0,0.0,0.0,0.0,0.0,0.0,0.0,0.0,0.0,0.0,0.0,0.0,0.0,0.0,0.0,0.0,0.0,0.0,0.0,0.0,0.0,0.0,0.0,0.0,0.0,0.0,0.0,0.0,0.0,0.0,0.0,0.0,0.0,0.0,0.0,0.0,0.0,0.0,0.0,0.0,0.0,0.0,0.0,0.0,0.0,0.0,0.0,0.0,0.0,0.0,0.0,0.0,0.0,0.0,0.0,0.0,0.0,0.0,0.0,0.0,0.0,0.0,0.0,0.0,0.0,0.0,0.0,0.0,0.0,0.0,0.0,0.0,0.0,0.0,0.0,0.0,0.0,0.0,0.0,0.0,0.0,0.0,0.0,0.0,0.0,0.0,0.0,0.0,0.0,0.0,0.0,0.0,0.0,0.0,-1.5894,-1.5541,-1.5668,0.0,0.0,0.0,0.0,0.0,0.0,0.0,0.0,0.0,0.0,0.0,0.0,0.0,0.0,0.0,0.0,0.0,0.0,0.0,0.0,0.0,0.0,0.0,0.0,0.0,0.0,0.0,0.0,0.0,0.0,0.0,0.0,0.0,0.0,0.0,0.0,0.0,0.0,0.0,0.0,0.0,0.0,0.0,0.0,0.0,0.0,0.0,0.0,0.0,0.0,0.0,0.0,0.0,0.0,0.0,0.0,0.0,0.0,0.0,0.0,0.0,0.0,0.0,0.0,0.0,0.0,0.0,0.0,0.0,0.0,0.0,0.0,0.0,0.0,0.0,0.0,0.0,0.0,0.0,0.0,0.0,0.0,0.0,0.0,0.0,0.0,0.0,0.0,0.0,0.0,0.0,0.0,0.0,0.0,0.0,0.0,0.0,0.0,0.0,0.0,0.0,0.0,0.0,0.0,0.0,0.0,0.0,0.0,0.0,0.0,-1.5734,-1.7237,-1.7187,0.0,-1.627,0.0,0.0,0.0,0.0,0.0,0.0,0.0,0.0,0.0,0.0,0.0,0.0,0.0,0.0,0.0,0.0,0.0,0.0,0.0,0.0,0.0,0.0,0.0,0.0,0.0,0.0,0.0,0.0,0.0,0.0,0.0,0.0,0.0,0.0,0.0,0.0,0.0,0.0,0.0,0.0,0.0,0.0,0.0,0.0,0.0,0.0,0.0,0.0,0.0,0.0,0.0,0.0,0.0,0.0,0.0,0.0,0.0,0.0,0.0,0.0,0.0,0.0,0.0,0.0,0.0,0.0,0.0,0.0,0.0,0.0,0.0,0.0,0.0,0.0,0.0,0.0,0.0,0.0,0.0,0.0,0.0,0.0,0.0,0.0,0.0,0.0,0.0,0.0,0.0,0.0,0.0,0.0,0.0,0.0,0.0,0.0,0.0,0.0,0.0,0.0,0.0,0.0,0.0,0.0,0.0,0.0,0.0,0.0,0.0,0.0,0.0,-1.7363,-1.7049,-1.6582,0.0,0.0,0.0,0.0,0.0,0.0,0.0,0.0,0.0,0.0,0.0,0.0,0.0,0.0,0.0,0.0,0.0,0.0,0.0,0.0,0.0,0.0,0.0,0.0,0.0,0.0,0.0,0.0,0.0,0.0,0.0,0.0,0.0,0.0,0.0,0.0,0.0,0.0,0.0,0.0,0.0,0.0,0.0,0.0,0.0,0.0,0.0,0.0,0.0,0.0,0.0,0.0,0.0,0.0,0.0,0.0,0.0,0.0,0.0,0.0,0.0,0.0,0.0,0.0,0.0,0.0,0.0,0.0,0.0,0.0,0.0,0.0,0.0,0.0,0.0,0.0,0.0,0.0,0.0,0.0,0.0,0.0,0.0,0.0,0.0,0.0,0.0,0.0,0.0,0.0,0.0,0.0,0.0,0.0,0.0,0.0,0.0,0.0,0.0,0.0,0.0,0.0,0.0,0.0,0.0,0.0,0.0,0.0,0.0,0.0,-1.607,0.0,-1.7752,-1.7287,-1.6509,-1.5505,0.0,0.0,0.0,0.0,0.0,0.0,0.0,0.0,0.0,0.0,0.0,0.0,0.0,0.0,0.0,0.0,0.0,0.0,0.0,0.0,0.0,0.0,0.0,0.0,0.0,0.0,0.0,0.0,0.0,0.0,0.0,0.0,0.0,0.0,0.0,0.0,0.0,0.0,0.0,0.0,0.0,0.0,0.0,0.0,0.0,0.0,0.0,0.0,0.0,0.0,0.0,0.0,0.0,0.0,0.0,0.0,0.0,0.0,0.0,0.0,0.0,0.0,0.0,0.0,0.0,0.0,0.0,0.0,0.0,0.0,0.0,0.0,0.0,0.0,0.0,0.0,0.0,0.0,0.0,0.0,0.0,0.0,0.0,0.0,0.0,0.0,0.0,0.0,0.0,0.0,0.0,0.0,0.0,0.0,0.0,0.0,0.0,0.0,0.0,0.0,0.0,0.0,0.0,0.0,0.0,0.0,0.0,0.0,0.0,-1.6999,-1.73,-1.8894,-1.8417,-1.7124,0.0,0.0,0.0,0.0,0.0,0.0,0.0,0.0,0.0,0.0,0.0,0.0,0.0,0.0,0.0,0.0,0.0,0.0,0.0,0.0,0.0,0.0,0.0,0.0,0.0,0.0,0.0,0.0,0.0,0.0,0.0,0.0,0.0,0.0,0.0,0.0,0.0,0.0,0.0,0.0,0.0,0.0,0.0,0.0,0.0,0.0,0.0,0.0,0.0,0.0,0.0,0.0,0.0,0.0,0.0,0.0,0.0,0.0,0.0,0.0,0.0,0.0,0.0,0.0,0.0,0.0,0.0,0.0,0.0,0.0,0.0,0.0,0.0,0.0,0.0,0.0,0.0,0.0,0.0,0.0,0.0,0.0,0.0,0.0,0.0,0.0,0.0,0.0,0.0,0.0,0.0,0.0,0.0,0.0,0.0,0.0,0.0,0.0,0.0,0.0,0.0,0.0,0.0,0.0,0.0,0.0,0.0,0.0,0.0,-1.4938,-1.5655,-1.7476,-2.0363,-1.8028,-1.6559,0.0,0.0,0.0,0.0,0.0,0.0,0.0,0.0,0.0,0.0,0.0,0.0,0.0,0.0,0.0,0.0,0.0,0.0,0.0,0.0,0.0,0.0,0.0,0.0,0.0,0.0,0.0,0.0,0.0,0.0,0.0,0.0,0.0,0.0,0.0,0.0,0.0,0.0,0.0,0.0,0.0,0.0,0.0,0.0,0.0,0.0,0.0,0.0,0.0,0.0,0.0,0.0,0.0,0.0,0.0,0.0,0.0,0.0,0.0,0.0,0.0,0.0,0.0,0.0,0.0,0.0,0.0,0.0,0.0,0.0,0.0,0.0,0.0,0.0,0.0,0.0,0.0,0.0,0.0,0.0,0.0,0.0,0.0,0.0,0.0,0.0,0.0,0.0,0.0,0.0,0.0,0.0,0.0,0.0,0.0,0.0,0.0,0.0,0.0,0.0,0.0,0.0,0.0,0.0,0.0,0.0,0.0,0.0,0.0,-1.4801,0.0,-1.8405,0.0,-1.799,-1.6371,0.0,0.0,0.0,0.0,0.0,0.0,0.0,0.0,0.0,0.0,0.0,0.0,0.0,0.0,0.0,0.0,0.0,0.0,0.0,0.0,0.0,0.0,0.0,0.0,0.0,0.0,0.0,0.0,0.0,0.0,0.0,0.0,0.0,0.0,0.0,0.0,0.0,0.0,0.0,0.0,0.0,0.0,0.0,0.0,0.0,0.0,0.0,0.0,0.0,0.0,0.0,0.0,0.0,0.0,0.0,0.0,0.0,0.0,0.0,0.0,0.0,0.0,0.0,0.0,0.0,0.0,0.0,0.0,0.0,0.0,0.0,0.0,0.0,0.0,0.0,0.0,0.0,0.0,0.0,0.0,0.0,0.0,0.0,0.0,0.0,0.0,0.0,0.0,0.0,0.0,0.0,0.0,0.0,0.0,0.0,0.0,0.0,0.0,0.0,0.0,0.0,0.0,0.0,0.0,0.0,0.0,0.0,0.0,-1.4826,-1.8028,-1.9648,-1.9974,-1.912,-1.8442,-1.6622,0.0,0.0,0.0,0.0,0.0,0.0,0.0,0.0,0.0,0.0,0.0,0.0,0.0,0.0,0.0,0.0,0.0,0.0,0.0,0.0,0.0,0.0,0.0,0.0,0.0,0.0,0.0,0.0,0.0,0.0,0.0,0.0,0.0,0.0,0.0,0.0,0.0,0.0,0.0,0.0,0.0,0.0,0.0,0.0,0.0,0.0,0.0,0.0,0.0,0.0,0.0,0.0,0.0,0.0,0.0,0.0,0.0,0.0,0.0,0.0,0.0,0.0,0.0,0.0,0.0,0.0,0.0,0.0,0.0,0.0,0.0,0.0,0.0,0.0,0.0,0.0,0.0,0.0,0.0,0.0,0.0,0.0,0.0,0.0,0.0,0.0,0.0,0.0,0.0,0.0,0.0,0.0,0.0,0.0,0.0,0.0,0.0,0.0,0.0,0.0,0.0,0.0,0.0,0.0,0.0,0.0,0.0,0.0,0.0,-1.7601,-1.8129,-1.9334,-2.1079,-1.8154,-1.6534,0.0,0.0,0.0,0.0,0.0,0.0,0.0,0.0,0.0,0.0,0.0,0.0,0.0,0.0,0.0,0.0,0.0,0.0,0.0,0.0,0.0,0.0,0.0,0.0,0.0,0.0,0.0,0.0,0.0,0.0,0.0,0.0,0.0,0.0,0.0,0.0,0.0,0.0,0.0,0.0,0.0,0.0,0.0,0.0,0.0,0.0,0.0,0.0,0.0,0.0,0.0,0.0,0.0,0.0,0.0,0.0,0.0,0.0,0.0,0.0,0.0,0.0,0.0,0.0,0.0,0.0,0.0,0.0,0.0,0.0,0.0,0.0,0.0,0.0,0.0,0.0,0.0,0.0,0.0,0.0,0.0,0.0,0.0,0.0,0.0,0.0,0.0,0.0,0.0,0.0,0.0,0.0,0.0,0.0,0.0,0.0,0.0,0.0,0.0,0.0,0.0,0.0,0.0,0.0,0.0,0.0,0.0,0.0,0.0,-1.8593,-1.9007,-2.0112,-2.197,-1.8706,-1.7036,-1.7212,0.0,0.0,0.0,0.0,0.0,0.0,0.0,0.0,0.0,0.0,0.0,0.0,0.0,0.0,0.0,0.0,0.0,0.0,0.0,0.0,0.0,0.0,0.0,0.0,0.0,0.0,0.0,0.0,0.0,0.0,0.0,0.0,0.0,0.0,0.0,0.0,0.0,0.0,0.0,0.0,0.0,0.0,0.0,0.0,0.0,0.0,0.0,0.0,0.0,0.0,0.0,0.0,0.0,0.0,0.0,0.0,0.0,0.0,0.0,0.0,0.0,0.0,0.0,0.0,0.0,0.0,0.0,0.0,0.0,0.0,0.0,0.0,0.0,0.0,0.0,0.0,0.0,0.0,0.0,0.0,0.0,0.0,0.0,0.0,0.0,0.0,0.0,0.0,0.0,0.0,0.0,0.0,0.0,0.0,0.0,0.0,0.0,0.0,0.0,0.0,0.0,0.0,0.0,0.0,0.0,0.0,0.0,0.0,-2.0743,-2.182,-2.2159,-2.1719,-1.9987,-1.8031,0.0,0.0,0.0,0.0,0.0,0.0,0.0,0.0,0.0,0.0,0.0,0.0,0.0,0.0,0.0,0.0,0.0,0.0,0.0,0.0,0.0,0.0,0.0,0.0,0.0,0.0,0.0,0.0,0.0,0.0,0.0,0.0,0.0,0.0,0.0,0.0,0.0,0.0,0.0,0.0,0.0,0.0,0.0,0.0,0.0,0.0,0.0,0.0,0.0,0.0,0.0,0.0,0.0,0.0,0.0,0.0,0.0,0.0,0.0,0.0,0.0,0.0,0.0,0.0,0.0,0.0,0.0,0.0,0.0,0.0,0.0,0.0,0.0,0.0,0.0,0.0,0.0,0.0,0.0,0.0,0.0,0.0,0.0,0.0,0.0,0.0,0.0,0.0,0.0,0.0,0.0,0.0,0.0,0.0,0.0,0.0,0.0,0.0,0.0,0.0,0.0,0.0,0.0,0.0,0.0,0.0,0.0,0.0,0.0,-2.1255,-2.2761,-2.3678,-2.3866,-2.1117,-1.9334,0.0,0.0,0.0,0.0,0.0,0.0,0.0,0.0,0.0,0.0,0.0,0.0,0.0,0.0,0.0,0.0,0.0,0.0,0.0,0.0,0.0,0.0,0.0,0.0,0.0,0.0,0.0,0.0,0.0,0.0,0.0,0.0,0.0,0.0,0.0,0.0,0.0,0.0,0.0,0.0,0.0,0.0,0.0,0.0,0.0,0.0,0.0,0.0,0.0,0.0,0.0,0.0,0.0,0.0,0.0,0.0,0.0,0.0,0.0,0.0,0.0,0.0,0.0,0.0,0.0,0.0,0.0,0.0,0.0,0.0,0.0,0.0,0.0,0.0,0.0,0.0,0.0,0.0,0.0,0.0,0.0,0.0,0.0,0.0,0.0,0.0,0.0,0.0,0.0,0.0,0.0,0.0,0.0,0.0,0.0,0.0,0.0,0.0,0.0,0.0,0.0,0.0,0.0,0.0,0.0,0.0,0.0,0.0,-2.0401,-2.1832,-2.369,-2.4833,-2.5134,-2.2598,-2.0539,0.0,0.0,0.0,0.0,0.0,0.0,0.0,0.0,0.0,0.0,0.0,0.0,0.0,0.0,0.0,0.0,0.0,0.0,0.0,0.0,0.0,0.0,0.0,0.0,0.0,0.0,0.0,0.0,0.0,0.0,0.0,0.0,0.0,0.0,0.0,0.0,0.0,0.0,0.0,0.0,0.0,0.0,0.0,0.0,0.0,0.0,0.0,0.0,0.0,0.0,0.0,0.0,0.0,0.0,0.0,0.0,0.0,0.0,0.0,0.0,0.0,0.0,0.0,0.0,0.0,0.0,0.0,0.0,0.0,0.0,0.0,0.0,0.0,0.0,0.0,0.0,0.0,0.0,0.0,0.0,0.0,0.0,0.0,0.0,0.0,0.0,0.0,0.0,0.0,0.0,0.0,0.0,0.0,0.0,0.0,0.0,0.0,0.0,0.0,0.0,0.0,0.0,0.0,0.0,0.0,0.0,0.0,0.0,-2.1292,-2.2397,-2.4544,-2.5636,-2.5473,-2.3916,-2.1619,0.0,0.0,0.0,0.0,0.0,0.0,0.0,0.0,0.0,0.0,0.0,0.0,0.0,0.0,0.0,0.0,0.0,0.0,0.0,0.0,0.0,0.0,0.0,0.0,0.0,0.0,0.0,0.0,0.0,0.0,0.0,0.0,0.0,0.0,0.0,0.0,0.0,0.0,0.0,0.0,0.0,0.0,0.0,0.0,0.0,0.0,0.0,0.0,0.0,0.0,0.0,0.0,0.0,0.0,0.0,0.0,0.0,0.0,0.0,0.0,0.0,0.0,0.0,0.0,0.0,0.0,0.0,0.0,0.0,0.0,0.0,0.0,0.0,0.0,0.0,0.0,0.0,0.0,0.0,0.0,0.0,0.0,0.0,0.0,0.0,0.0,0.0,0.0,0.0,0.0,0.0,0.0,0.0,0.0,0.0,0.0,0.0,0.0,0.0,0.0,0.0,0.0,0.0,0.0,0.0,0.0,0.0,0.0,-2.1857,-2.2902,-2.5134,-2.5862,-2.5008,-2.3364,-2.1744,0.0,0.0,0.0,0.0,0.0,0.0,0.0,0.0,0.0,0.0,0.0,0.0,0.0,0.0,0.0,0.0,0.0,0.0,0.0,0.0,0.0,0.0,0.0,0.0,0.0,0.0,0.0,0.0,0.0,0.0,0.0,0.0,0.0,0.0,0.0,0.0,0.0,0.0,0.0,0.0,0.0,0.0,0.0,0.0,0.0,0.0,0.0,0.0,-0.9439,0.0,0.0,0.0,0.0,0.0,0.0,0.0,0.0,0.0,0.0,0.0,0.0,0.0,0.0,0.0,0.0,0.0,0.0,0.0,0.0,0.0,0.0,0.0,0.0,0.0,0.0,0.0,0.0,0.0,0.0,0.0,0.0,0.0,0.0,0.0,0.0,0.0,0.0,0.0,0.0,0.0,0.0,0.0,0.0,0.0,0.0,0.0,0.0,0.0,0.0,0.0,0.0,0.0,0.0,0.0,0.0,0.0,0.0,0.0,-2.2422,-2.354,-2.5184,-2.5787,-2.5146,-2.3326,-2.1669,0.0,0.0,0.0,0.0,0.0,0.0,0.0,0.0,0.0,0.0,0.0,0.0,0.0,0.0,0.0,0.0,0.0,0.0,0.0,0.0,0.0,0.0,0.0,0.0,0.0,0.0,0.0,0.0,0.0,0.0,0.0,0.0,0.0,0.0,0.0,0.0,0.0,0.0,0.0,0.0,0.0,0.0,0.0,0.0,0.0,0.0,0.0,0.0,0.0,0.0,0.0,0.0,0.0,0.0,0.0,0.0,0.0,0.0,0.0,0.0,0.0,0.0,0.0,0.0,0.0,0.0,0.0,0.0,0.0,0.0,0.0,0.0,0.0,0.0,0.0,0.0,0.0,0.0,0.0,0.0,0.0,0.0,0.0,0.0,0.0,0.0,0.0,0.0,0.0,0.0,0.0,0.0,0.0,0.0,0.0,0.0,0.0,0.0,0.0,0.0,0.0,0.0,0.0,0.0,0.0,0.0,0.0,-2.0209,-2.2611,-2.3966,-2.4971,-2.5435,-2.5335,-2.3464,-2.1606,-1.9874,0.0,0.0,0.0,0.0,0.0,0.0,0.0,0.0,0.0,0.0,0.0,0.0,0.0,0.0,0.0,0.0,0.0,0.0,0.0,0.0,0.0,0.0,0.0,0.0,0.0,0.0,0.0,0.0,0.0,0.0,0.0,0.0,0.0,0.0,0.0,0.0,0.0,0.0,-1.0837,-1.0038,0.0,0.0,0.0,0.0,0.0,0.0,0.0,0.0,-1.1827,0.0,0.0,0.0,0.0,0.0,0.0,0.0,0.0,0.0,0.0,0.0,0.0,0.0,0.0,0.0,0.0,0.0,0.0,0.0,0.0,0.0,0.0,0.0,0.0,0.0,0.0,0.0,0.0,0.0,0.0,0.0,0.0,0.0,0.0,0.0,0.0,0.0,0.0,0.0,0.0,0.0,0.0,0.0,0.0,0.0,0.0,0.0,0.0,0.0,0.0,0.0,0.0,0.0,0.0,0.0,0.0,-1.8621,-1.9688,-2.1443,-2.3929,-2.4619,-2.4732,-2.4268,-2.3439,-2.1995,-1.9874,0.0,0.0,0.0,0.0,0.0,0.0,0.0,0.0,0.0,0.0,0.0,0.0,0.0,0.0,0.0,0.0,0.0,0.0,0.0,0.0,0.0,0.0,0.0,0.0,0.0,0.0,0.0,0.0,0.0,0.0,0.0,0.0,0.0,0.0,0.0,0.0,0.0,0.0,0.0,-1.0835,-1.0722,0.0,0.0,0.0,0.0,0.0,0.0,0.0,0.0,-1.4285,0.0,0.0,0.0,0.0,0.0,0.0,0.0,0.0,0.0,0.0,0.0,0.0,0.0,0.0,0.0,0.0,0.0,0.0,0.0,0.0,0.0,0.0,0.0,0.0,0.0,0.0,0.0,0.0,0.0,0.0,0.0,0.0,0.0,0.0,0.0,0.0,0.0,0.0,0.0,0.0,0.0,0.0,0.0,0.0,0.0,0.0,0.0,0.0,0.0,0.0,0.0,0.0,0.0,0.0,0.0,-1.7799,-1.9978,-2.2046,-2.3929,-2.4268,-2.4268,-2.3979,-2.2309,-2.0891,0.0,0.0,0.0,0.0,0.0,0.0,0.0,0.0,0.0,0.0,0.0,0.0,0.0,0.0,0.0,0.0,0.0,0.0,0.0,0.0,0.0,0.0,0.0,0.0,0.0,0.0,0.0,0.0,0.0,0.0,0.0,0.0,0.0,0.0,0.0,0.0,0.0,0.0,0.0,0.0,-1.1416,-1.1612,-1.1471,0.0,0.0,0.0,0.0,0.0,0.0,-1.472,-1.5579,0.0,0.0,0.0,0.0,0.0,0.0,0.0,0.0,0.0,0.0,0.0,0.0,0.0,0.0,0.0,0.0,0.0,0.0,0.0,0.0,0.0,0.0,0.0,0.0,0.0,0.0,0.0,0.0,0.0,0.0,0.0,0.0,0.0,0.0,0.0,0.0,0.0,0.0,0.0,0.0,0.0,0.0,0.0,0.0,0.0,0.0,0.0,0.0,0.0,0.0,0.0,0.0,0.0,0.0,0.0,-1.69,-2.0121,-2.246,-2.3753,-2.3828,-2.3828,-2.3778,-2.143,-1.9987,0.0,0.0,0.0,0.0,0.0,0.0,0.0,0.0,0.0,0.0,0.0,0.0,0.0,0.0,0.0,0.0,0.0,0.0,0.0,0.0,0.0,0.0,0.0,0.0,0.0,0.0,0.0,0.0,0.0,0.0,0.0,0.0,0.0,0.0,0.0,0.0,0.0,0.0,0.0,0.0,0.0,-1.2419,-1.2033,-1.175,0.0,0.0,0.0,0.0,-1.4771,-1.5817,0.0,0.0,0.0,0.0,0.0,0.0,0.0,0.0,0.0,0.0,0.0,0.0,0.0,0.0,0.0,0.0,0.0,0.0,0.0,0.0,0.0,0.0,0.0,0.0,0.0,0.0,0.0,0.0,0.0,0.0,0.0,0.0,0.0,0.0,0.0,0.0,0.0,0.0,0.0,0.0,0.0,0.0,0.0,0.0,0.0,0.0,0.0,0.0,0.0,0.0,0.0,0.0,0.0,0.0,0.0,0.0,-1.7352,-1.9168,-2.1104,-2.3053,-2.3178,-2.3238,-2.3213,-2.197,-2.0614,0.0,0.0,0.0,0.0,0.0,0.0,0.0,0.0,0.0,0.0,0.0,0.0,0.0,0.0,0.0,0.0,0.0,0.0,0.0,0.0,0.0,0.0,0.0,0.0,0.0,0.0,0.0,0.0,0.0,0.0,0.0,0.0,0.0,0.0,0.0,0.0,0.0,0.0,0.0,0.0,0.0,-1.3564,-1.2418,-1.2225,-1.2298,0.0,0.0,-1.4366,-1.5124,-1.6688,0.0,0.0,0.0,0.0,0.0,0.0,0.0,0.0,0.0,0.0,0.0,0.0,0.0,0.0,0.0,0.0,0.0,0.0,0.0,0.0,0.0,0.0,0.0,0.0,0.0,0.0,0.0,0.0,0.0,0.0,0.0,0.0,0.0,0.0,0.0,0.0,0.0,0.0,0.0,0.0,0.0,0.0,0.0,0.0,0.0,0.0,0.0,0.0,0.0,0.0,0.0,0.0,0.0,0.0,0.0,-1.4357,-1.6977,-1.9194,-2.1079,-2.2611,-2.2962,-2.2927,-2.2673,-2.0991,-1.9444,0.0,0.0,0.0,0.0,0.0,0.0,0.0,0.0,0.0,0.0,0.0,0.0,0.0,0.0,0.0,0.0,0.0,0.0,0.0,0.0,0.0,0.0,0.0,0.0,0.0,0.0,0.0,0.0,0.0,0.0,0.0,0.0,0.0,0.0,0.0,0.0,0.0,0.0,0.0,0.0,0.0,0.0,-1.3412,-1.3313,0.0,0.0,0.0,-1.5233,-1.5688,0.0,0.0,0.0,0.0,0.0,0.0,0.0,0.0,0.0,0.0,0.0,0.0,0.0,0.0,0.0,0.0,0.0,0.0,0.0,0.0,0.0,0.0,0.0,0.0,0.0,0.0,0.0,0.0,0.0,0.0,0.0,0.0,0.0,0.0,0.0,0.0,0.0,0.0,0.0,0.0,0.0,0.0,0.0,0.0,0.0,0.0,0.0,0.0,0.0,0.0,0.0,0.0,0.0,0.0,0.0,0.0,0.0,-1.6558,-1.9318,-2.1204,-2.2284,-2.2849,-2.2874,-2.2297,-2.0451,0.0,0.0,0.0,0.0,0.0,0.0,0.0,0.0,0.0,0.0,0.0,0.0,0.0,0.0,0.0,0.0,0.0,0.0,0.0,0.0,0.0,0.0,0.0,0.0,0.0,0.0,0.0,-0.806,0.0,0.0,0.0,0.0,0.0,0.0,0.0,0.0,0.0,0.0,0.0,0.0,0.0,0.0,-1.4129,-1.3951,-1.4102,-1.4302,0.0,0.0,-1.5646,-1.5872,-1.6652,-1.704,0.0,0.0,0.0,0.0,0.0,0.0,0.0,0.0,0.0,0.0,0.0,0.0,0.0,0.0,0.0,0.0,0.0,0.0,0.0,0.0,0.0,0.0,0.0,0.0,0.0,0.0,0.0,0.0,0.0,0.0,0.0,0.0,0.0,0.0,0.0,0.0,0.0,0.0,0.0,0.0,0.0,0.0,0.0,0.0,0.0,0.0,0.0,0.0,0.0,0.0,0.0,0.0,0.0,0.0,0.0,-1.6616,-1.9318,-2.1192,-2.2284,-2.2849,-2.2874,-2.2309,-2.1167,-1.9572,0.0,0.0,0.0,0.0,0.0,0.0,0.0,0.0,0.0,0.0,0.0,0.0,0.0,0.0,0.0,0.0,0.0,0.0,0.0,0.0,0.0,0.0,0.0,0.0,0.0,0.0,0.0,0.0,0.0,0.0,0.0,0.0,0.0,0.0,0.0,0.0,0.0,0.0,0.0,0.0,0.0,-1.4366,-1.3702,-1.4142,-1.4603,0.0,0.0,-1.5183,-1.5376,-1.6728,-1.7011,-1.5331,0.0,0.0,0.0,0.0,0.0,0.0,0.0,0.0,0.0,0.0,0.0,0.0,0.0,0.0,0.0,0.0,0.0,0.0,0.0,0.0,0.0,0.0,0.0,0.0,0.0,0.0,0.0,0.0,0.0,0.0,0.0,0.0,0.0,0.0,0.0,0.0,0.0,0.0,0.0,0.0,0.0,0.0,0.0,0.0,0.0,0.0,0.0,0.0,0.0,0.0,0.0,0.0,0.0,-1.4149,-1.6089,-1.9144,-2.1041,-2.1782,-2.2347,-2.2359,-2.182,-2.0715,-1.9108,0.0,0.0,0.0,0.0,0.0,0.0,0.0,0.0,0.0,0.0,0.0,0.0,0.0,0.0,0.0,0.0,0.0,0.0,0.0,0.0,0.0,0.0,0.0,0.0,0.0,0.0,0.0,0.0,-0.9742,-0.9598,-0.9021,0.0,0.0,0.0,0.0,0.0,0.0,0.0,0.0,0.0,0.0,-1.4386,-1.4636,-1.4917,0.0,0.0,-1.5344,-1.5331,-1.5611,-1.5821,-1.5857,-1.5199,-1.5068,0.0,0.0,0.0,0.0,0.0,0.0,0.0,0.0,0.0,0.0,0.0,0.0,0.0,0.0,0.0,0.0,0.0,0.0,0.0,0.0,0.0,0.0,0.0,0.0,0.0,0.0,0.0,0.0,0.0,0.0,0.0,0.0,0.0,0.0,0.0,0.0,0.0,0.0,0.0,0.0,0.0,0.0,0.0,0.0,0.0,0.0,0.0,0.0,0.0,0.0,0.0,0.0,-1.3912,-1.5768,-1.9018,-2.0807,-2.1107,-2.1893,-2.1918,-2.1131,-2.0282,-1.8871,0.0,0.0,0.0,0.0,0.0,0.0,0.0,0.0,0.0,0.0,0.0,0.0,0.0,0.0,0.0,0.0,0.0,0.0,0.0,0.0,0.0,0.0,0.0,0.0,0.0,0.0,0.0,0.0,-0.988,-0.9424,-0.9022,0.0,0.0,0.0,0.0,0.0,0.0,0.0,0.0,0.0,0.0,-1.4502,-1.5284,-1.5471,-1.5605,-1.5798,-1.5658,-1.5591,-1.5798,-1.5491,-1.5197,-1.5183,0.0,0.0,0.0,0.0,0.0,0.0,0.0,0.0,0.0,0.0,0.0,0.0,0.0,0.0,0.0,0.0,0.0,0.0,0.0,0.0,0.0,0.0,0.0,0.0,0.0,0.0,0.0,0.0,0.0,0.0,-1.1009,0.0,0.0,0.0,0.0,0.0,0.0,0.0,0.0,0.0,0.0,0.0,0.0,0.0,0.0,0.0,0.0,0.0,0.0,0.0,0.0,0.0,0.0,-1.3935,-1.5726,-1.9037,-2.0575,-2.0342,-2.1592,-2.165,-2.033,-1.9937,-1.9032,-1.7413,0.0,0.0,0.0,0.0,0.0,0.0,0.0,0.0,0.0,0.0,0.0,0.0,0.0,0.0,0.0,0.0,0.0,0.0,0.0,0.0,0.0,0.0,0.0,0.0,0.0,0.0,-1.0724,-1.0154,-0.9626,0.0,0.0,0.0,0.0,0.0,0.0,0.0,0.0,0.0,0.0,-1.3955,-1.473,-1.5324,-1.5638,-1.5812,-1.5825,-1.5818,-1.5812,-1.5825,-1.5805,-1.5611,0.0,0.0,0.0,0.0,0.0,0.0,0.0,0.0,0.0,0.0,0.0,0.0,0.0,0.0,0.0,0.0,0.0,0.0,0.0,0.0,0.0,0.0,0.0,0.0,0.0,0.0,0.0,-1.5224,-1.4646,0.0,0.0,0.0,0.0,0.0,0.0,0.0,0.0,0.0,0.0,0.0,-1.8179,-1.8744,0.0,0.0,0.0,0.0,0.0,0.0,0.0,0.0,0.0,0.0,0.0,0.0,-1.49,-1.6907,-1.9389,-2.0819,-2.105,-2.1194,-2.1019,-2.052,-2.003,-1.8821,-1.6815,0.0,0.0,0.0,0.0,0.0,0.0,0.0,0.0,0.0,0.0,0.0,0.0,0.0,0.0,0.0,0.0,0.0,0.0,0.0,0.0,0.0,0.0,0.0,0.0,0.0,-1.0634,0.0,0.0,0.0,0.0,0.0,0.0,0.0,0.0,0.0,0.0,0.0,-1.2979,-1.3955,-1.4669,-1.5237,-1.5631,-1.5765,-1.5825,0.0,0.0,0.0,0.0,0.0,0.0,0.0,0.0,0.0,0.0,0.0,0.0,0.0,0.0,-1.7257,-1.6051,-1.5404,-1.5036,-1.5036,0.0,0.0,0.0,0.0,0.0,0.0,0.0,0.0,0.0,0.0,0.0,0.0,0.0,0.0,-1.7312,0.0,-1.6397,0.0,0.0,0.0,0.0,0.0,0.0,0.0,0.0,-1.8857,-1.9798,-2.0125,-2.069,-2.0464,0.0,-1.961,-1.7954,0.0,0.0,0.0,0.0,0.0,0.0,0.0,0.0,-1.5885,-1.7689,-1.9429,-2.052,-2.1013,-2.06,-2.0316,-2.0237,-1.9768,-1.8809,-1.7362,-1.6011,-1.5083,0.0,0.0,0.0,0.0,0.0,0.0,0.0,0.0,0.0,0.0,0.0,0.0,0.0,0.0,0.0,0.0,0.0,0.0,0.0,0.0,0.0,0.0,0.0,-1.1186,0.0,0.0,0.0,0.0,0.0,0.0,0.0,0.0,0.0,-1.1884,-1.2919,-1.3955,-1.4723,-1.5244,-1.5611,-1.5805,0.0,0.0,0.0,0.0,0.0,0.0,0.0,-1.5852,-1.5852,-1.5852,-1.5818,-1.5718,-1.6766,-1.7756,-1.8168,0.0,0.0,-1.6477,-1.589,-1.5569,-1.5487,-1.5831,-1.6147,-1.6147,-1.6492,-1.68,0.0,0.0,0.0,0.0,0.0,0.0,0.0,0.0,-1.9854,-1.924,0.0,-1.8531,0.0,0.0,0.0,0.0,0.0,0.0,0.0,0.0,-2.1004,-2.1732,-2.0882,-2.1305,-2.1255,-2.0882,-2.1769,-2.1405,-1.9659,-1.6262,0.0,0.0,0.0,0.0,0.0,0.0,-1.6781,-1.8193,-1.9108,-1.9749,-2.0191,-1.9773,-1.9543,-1.944,-1.9175,-1.8995,-1.8933,-1.7906,-1.6854,-1.574,-1.389,0.0,0.0,0.0,0.0,0.0,0.0,0.0,0.0,0.0,0.0,0.0,0.0,0.0,0.0,0.0,0.0,0.0,0.0,0.0,0.0,-1.086,0.0,0.0,0.0,0.0,0.0,0.0,0.0,0.0,0.0,0.0,-1.2906,-1.3821,-1.4756,-1.5331,0.0,0.0,0.0,0.0,-1.5832,-1.5845,-1.6086,-1.6273,-1.6286,-1.6513,-1.6687,-1.6687,0.0,0.0,-1.6359,-1.6547,-1.6647,-1.6458,-1.6632,-1.6922,-1.7529,-1.6394,-1.5497,-1.5503,-1.5705,-1.5832,-1.5872,-1.6353,-1.6765,-2.3849,0.0,0.0,0.0,0.0,-2.2398,-2.2757,-2.3163,-2.2659,-2.1988,-2.1207,-2.0475,0.0,0.0,0.0,0.0,0.0,0.0,-1.9422,-2.0552,-2.1368,-2.197,-2.2435,-2.2585,-2.2573,-2.2435,-2.2359,-2.2058,-2.1531,-1.9745,-1.7974,-1.6305,0.0,0.0,0.0,0.0,-1.802,-1.98,-1.9322,-1.938,-2.0354,-1.9416,-1.9221,-1.9645,-1.9581,-1.9182,-1.8396,-1.7715,-1.6975,-1.6203,-1.4323,0.0,0.0,0.0,0.0,0.0,0.0,0.0,0.0,0.0,0.0,0.0,0.0,0.0,0.0,0.0,0.0,0.0,0.0,0.0,-1.0827,-1.0831,-1.1036,0.0,0.0,0.0,0.0,0.0,0.0,0.0,0.0,0.0,-1.4302,-1.4803,-1.5284,0.0,0.0,-1.5825,-1.5825,-1.5825,-1.5905,-1.6112,0.0,0.0,0.0,-1.6653,-1.6707,-1.6707,-1.6881,-1.7061,-1.7188,-1.7275,-1.7235,-1.6954,-1.6967,-1.7103,-1.6936,-1.6681,-1.6326,-1.6339,-1.64,-1.646,-1.6466,-1.66,-1.6714,-2.7066,-2.5854,-2.4567,-2.4014,-2.4029,-2.4283,-2.4627,-2.4924,-2.421,-2.3629,-2.3224,-2.2224,-2.0873,-1.9349,-1.8674,0.0,0.0,0.0,-2.0652,-2.182,-2.2033,-2.2498,-2.3113,-2.3125,-2.3125,-2.3065,-2.2799,-2.2636,-2.2636,-2.1757,-2.0552,-1.9032,0.0,0.0,-1.784,-1.8462,-1.9391,-2.0602,-1.9594,-1.9521,-2.0494,-1.9599,-1.9359,-1.9798,-1.961,-1.9183,-1.8496,-1.7715,-1.7166,-1.6767,-1.5229,-1.4004,0.0,0.0,0.0,0.0,0.0,0.0,0.0,0.0,0.0,0.0,0.0,-0.9456,0.0,0.0,0.0,0.0,-1.0446,-1.1474,-1.2246,-1.2507,0.0,0.0,0.0,0.0,0.0,0.0,0.0,-1.4052,-1.4902,-1.5389,-1.5201,-1.5391,-1.5631,-1.5805,-1.5825,-1.5825,-1.5825,0.0,-1.6072,-1.6246,-1.6473,-1.668,-1.6854,-1.6981,-1.7054,-1.7054,-1.7194,-1.7368,-1.7542,-1.7589,-1.7522,-1.7368,-1.7315,-1.7261,-1.7081,-1.7054,-1.6961,-1.676,-1.6807,-1.6881,-1.6881,-1.6974,-1.7054,-2.9654,-2.9385,-2.6318,-2.5,-2.5076,-2.563,-2.5884,-2.5866,-2.5046,-2.4648,-2.4475,-2.3681,-2.2695,-2.1493,-2.0514,0.0,-2.0828,-2.1368,-2.1895,-2.2385,-2.2899,-2.3125,-2.3125,-2.3125,-2.3125,-2.3125,-2.3125,-2.3125,-2.304,-2.2611,-2.2121,-2.1594,-2.0589,-1.9999,-1.9911,-2.0439,-2.0806,-2.079,-2.0037,-1.9909,-2.0523,-2.0022,-1.9722,-1.9723,-1.9221,-1.8896,-1.8883,-1.7894,-1.733,-1.7338,-1.6303,-1.518,-1.4033,0.0,0.0,0.0,0.0,0.0,0.0,0.0,0.0,0.0,0.0,0.0,0.0,0.0,0.0,0.0,-1.29,0.0,-1.414,-1.5125,0.0,0.0,0.0,-1.621,-1.6119,-1.7149,-1.7433,-1.6133,0.0,0.0,-1.565,0.0,-1.5825,-1.5825,-1.5825,-1.5825,-1.5825,-1.6079,-1.6279,-1.6319,-1.678,-1.7244,-1.7181,-1.7375,-1.7528,-1.7528,-1.7589,-1.7575,-1.7582,-1.7589,-1.7589,-1.7569,-1.7582,-1.7575,-1.7582,-1.7542,-1.7415,-1.6894,-1.7007,-1.7188,-1.7194,-1.7368,-1.7522,-3.0283,-3.0178,-2.8921,-2.8397,-2.8368,-2.8023,-2.8173,-2.8517,-2.7129,-2.6328,-2.5867,-2.4445,-2.3229,-2.2121,-2.2272,-2.2184,-2.1945,-2.2498,-2.2811,-2.2877,-2.3015,-2.3125,-2.3125,-2.3125,-2.3125,-2.3125,-2.3125,-2.3125,-2.3065,-2.294,-2.2815,-2.2749,-2.2472,-2.1719,-2.058,-2.1016,-2.1493,-2.192,-2.039,-1.9443,-1.9197,-1.9052,-1.9019,-1.9171,-1.8596,-1.8351,-1.8369,-1.7272,-1.6871,-1.7363,-1.6279,-1.5152,-1.4124,-1.2501,0.0,0.0,0.0,0.0,0.0,0.0,0.0,0.0,0.0,-1.1992,-1.0254,0.0,-1.2588,0.0,-1.4209,-1.4898,-1.4837,-1.5364,0.0,0.0,-1.7751,-1.8115,-1.9057,-1.935,-1.8752,-1.7045,-1.7424,-1.7196,-1.5826,-1.5792,-1.5825,-1.5825,-1.5825,-1.5825,-1.5838,-1.6079,-1.6359,-1.658,-1.6914,-1.7228,-1.7435,-1.7535,-1.7589,-1.7589,-1.7589,-1.7589,-1.7589,-1.7589,-1.7589,-1.7589,-1.7589,-1.7589,-1.7589,-1.7589,-1.7549,-1.7408,-1.7435,-1.7482,-1.7482,-1.7542,-1.7589,-3.0956,-3.0896,-3.0268,-3.0163,-3.0387,-2.9445,-2.925,-2.951,-2.8254,-2.7351,-2.6624,-2.4796,-2.3791,-2.3439,-2.3489,-2.3489,-2.3439,-2.3489,-2.3514,-2.3502,-2.319,-2.3125,-2.3125,-2.3125,-2.3125,-2.3125,-2.3125,-2.3125,-2.3125,-2.3125,-2.3125,-2.3125,-2.3125,-2.2673,-2.182,-2.2071,-2.2259,-2.2284,-2.0872,-1.9763,-1.9239,-1.9202,-1.9125,-1.8995,-1.8153,-1.7776,-1.7865,-1.6429,-1.5948,-1.6549,-1.5709,-1.4846,-1.3981,-1.2829,-1.1755,0.0,0.0,0.0,0.0,0.0,0.0,0.0,0.0,0.0,0.0,0.0,-1.3906,0.0,-1.5869,0.0,-1.6978,-1.79,-1.886,-1.9792,-2.021,-2.0642,-2.1184,-2.0888,-1.993,-1.8446,-1.7926,-1.7225,-1.6015,-1.5825,-1.5825,-1.5825,-1.5825,-1.5825,-1.5865,-1.6192,-1.6526,-1.6693,-1.7068,-1.7388,-1.7562,-1.7589,-1.7589,-1.7589,-1.7589,-1.7589,-1.7589,-1.7589,-1.7589,-1.7589,-1.7589,-1.7589,-1.7589,-1.7589,-1.7589,-1.7589,-1.7589,-1.7589,-1.7589,-1.7589,-1.7589,-3.1467,-3.148,-3.0881,-3.0986,-3.1392,-3.0313,-2.9834,-2.9764,-2.901,-2.8124,-2.7216,-2.5275,-2.4721,-2.5065,-2.4545,-2.4545,-2.4898,-2.4394,-2.4067,-2.3966,-2.3477,-2.314,-2.3125,-2.3125,-2.3125,-2.3125,-2.3125,-2.3125,-2.3125,-2.3125,-2.3125,-2.3125,-2.3125,-2.3125,-2.3125,-2.3125,-2.2824,-2.2196,-2.1192,-2.0441,-1.9823,-1.9798,-1.9522,-1.8895,-1.7873,-1.7289,-1.7255,-1.5693,-1.512,-1.5739,-1.5131,-1.454,-1.4041,-1.3152,-1.2354,0.0,-1.1038,0.0,0.0,0.0,0.0,0.0,0.0,0.0,0.0,-1.498,-1.5488,-1.5791,-1.7734,-1.9131,-1.9502,-2.1006,-2.1963,-2.1982,-2.2666,-2.2998,-2.2561,-2.1914,-2.1025,-1.9679,-1.8588,-1.7404,-1.6015,-1.5825,-1.5825,-1.5825,-1.5825,-1.5825,-1.5872,-1.6279,-1.6627,-1.6693,-1.7201,-1.7562,-1.7582,-1.7589,-1.7589,-1.7589,-1.7589,-1.7589,-1.7589,-1.7589,-1.7589,-1.7589,-1.7589,-1.7589,-1.7589,-1.7589,-1.7589,-1.7589,-1.7589,-1.7589,-1.7589,-1.7589,-1.7589,-3.1467,-3.1467,-3.139,-3.1347,-3.1452,-3.127,-3.1165,-3.1108,-3.0279,-2.9188,-2.7944,-2.7083,-2.6745,-2.6734,-2.6073,-2.5716,-2.5834,-2.5014,-2.4418,-2.3991,-2.3891,-2.359,-2.315,-2.3125,-2.3125,-2.3125,-2.3125,-2.3125,-2.3125,-2.3125,-2.3125,-2.3125,-2.3125,-2.3125,-2.3125,0.0,0.0,0.0,-2.1004,-2.0441,-1.9823,-1.9798,-1.9334,-1.8405,-1.7702,0.0,-1.6673,-1.5718,-1.5764,-1.6942,-1.5744,0.0,0.0,0.0,0.0,0.0,0.0,0.0,0.0,0.0,0.0,0.0,-1.5889,-1.5918,-1.5771,-1.7383,-1.832,-1.8105,-1.9678,-2.0693,-2.0869,-2.1777,-2.2402,-2.2412,-2.2842,-2.3105,-2.295,-2.2814,-2.1952,-1.9761,-1.9314,-1.8311,-1.6197,-1.5825,-1.5825,-1.5825,-1.5825,-1.5825,-1.5825,-1.6139,-1.644,-1.6687,-1.7188,-1.7555,-1.7589,-1.7575,-1.7562,-1.7589,-1.7589,-1.7589,-1.7589,-1.7589,-1.7589,-1.7589,-1.7589,-1.7589,-1.7589,-1.7589,-1.7589,-1.7589,-1.7589,-1.7589,-1.7589,-1.7589,-1.7589,-3.1467,0.0,-3.1467,-3.1467,0.0,-3.1467,-3.1467,-3.1482,-3.1087,-3.0276,-2.9195,-2.8186,-2.7908,-2.8097,-2.6741,-2.6228,-2.6403,-2.5027,-2.4418,-2.4381,-2.3816,-2.3565,-2.3565,-2.3263,-2.3125,-2.3125,-2.3125,-2.3125,-2.3125,-2.3125,-2.3125,-2.3125,-2.3125,-2.3125,-2.3065,-2.2862,-2.2322,-2.1493,-2.1217,-2.0665,-1.9849,-1.9798,-1.9422,-1.8607,0.0,0.0,0.0,0.0,0.0,0.0,0.0,0.0,0.0,0.0,0.0,-1.4908,-1.4415,-1.4631,-1.5583,-1.5524,-1.5801,-1.665,-1.751,-1.7812,-1.7363,-1.8721,-1.96,-1.9619,-2.0791,-2.1641,-2.1865,-2.2441,-2.2822,-2.2832,-2.3018,-2.3144,-2.3047,-2.258,-2.1489,-1.9861,-1.8956,-1.7855,-1.6103,-1.5825,-1.5825,-1.5825,-1.5825,-1.5825,-1.5858,-1.6086,-1.6373,-1.6653,-1.6921,-1.7201,-1.7341,-1.7368,-1.7435,-1.7535,-1.7589,-1.7589,-1.7589,-1.7589,-1.7589,-1.7589,-1.7589,-1.7589,-1.7589,-1.7589,-1.7589,-1.7589,-1.7589,-1.7589,-1.7589,-1.7589,-1.7589,-3.1467,-3.1467,-3.1467,-3.1467,-3.1467,-3.1467,-3.1467,-3.1467,0.0,0.0,0.0,-2.9288,-2.9026,-2.9282,-2.7366,-2.6716,-2.6977,-2.5179,-2.4431,-2.4632,-2.3816,-2.3577,-2.3816,-2.3364,-2.3125,-2.3125,-2.3125,-2.3125,-2.3125,-2.3125,-2.3125,-2.3125,-2.3125,-2.3125,-2.304,-2.2686,-2.2184,-2.1656,-2.1443,-2.084,-1.9849,-1.9798,-1.9547,-1.8995,-1.8547,-1.824,-1.8182,-1.7189,-1.6965,-1.7532,-1.6958,-1.6627,-1.6688,-1.6096,-1.6395,-1.7632,-1.6743,-1.6685,-1.7976,-1.7448,-1.7219,-1.7676,-1.8691,-1.917,-1.8877,-1.958,-2.0244,-2.0752,-2.1465,-2.208,-2.2568,-2.293,-2.3144,-2.3144,-2.3144,-2.3144,-2.3047,-2.2217,-2.1212,-1.967,-1.868,-1.7404,-1.6008,-1.5825,-1.5825,-1.5825,-1.5825,-1.5825,-1.5865,-1.6086,-1.6346,-1.6567,-1.6707,-1.682,-1.7007,-1.7141,-1.7345,-1.7442,-1.7542,-1.7589,-1.7589,-1.7589,-1.7589,-1.7589,-1.7589,-1.7589,-1.7589,-1.7589,-1.7589,-1.7589,-1.7589,-1.7589,-1.7589,-1.7589,-1.7589,-3.1524,-3.1467,-3.1467,-3.1467,-3.1467,-3.1467,-3.1467,-3.1467,-3.1467,-3.1409,-3.1336,-3.1115,-3.1072,-3.1058,-2.8894,-2.7947,-2.7893,-2.6194,-2.4921,0.0,-2.4431,-2.4054,-2.3263,-2.3115,-2.3125,-2.3125,-2.3125,-2.3125,-2.3125,-2.3125,-2.3125,-2.3125,-2.3125,-2.3125,-2.3125,-2.3002,-2.2749,-2.2196,-2.1267,-2.0464,-1.9823,-1.9798,-1.956,-1.9021,-1.8933,-1.8659,-1.8194,-1.7858,-1.7998,-1.871,-1.7909,-1.7573,-1.7855,-1.7981,-1.7947,-1.7833,-1.8393,-1.8687,-1.8533,-1.8385,-1.8543,-1.8958,-1.9189,-1.9404,-1.9717,-2.0185,-2.081,-2.1602,-2.1816,-2.2207,-2.293,-2.3105,-2.3144,-2.3144,-2.3144,-2.3144,-2.3144,-2.295,-2.1952,-1.9761,-1.9405,-1.8303,-1.6292,-1.5825,-1.5825,-1.5825,-1.5825,-1.5825,-1.5872,-1.6086,-1.6259,-1.6359,-1.6547,-1.67,-1.678,-1.6994,-1.7114,-1.7201,-1.7402,-1.7515,-1.7508,-1.7508,-1.7515,-1.7562,-1.7522,-1.7535,-1.7542,-1.7589,-1.7542,-1.7535,-1.7549,-1.7562,-1.7575,-1.7589,-1.7589,-3.2228,-3.1539,-3.1467,-3.1467,-3.1467,-3.1467,-3.1467,-3.1467,-3.1467,-3.1467,-3.1467,-3.1467,-3.1292,-3.0719,-2.8993,-2.7789,-2.6999,-2.5472,-2.4619,-2.4418,-2.4067,-2.3966,-2.3991,-2.3378,-2.3125,-2.3125,-2.3125,-2.3125,-2.3125,-2.3125,-2.3125,-2.3125,-2.3125,-2.3125,-2.3125,-2.3125,-2.2815,-2.2309,-2.182,-2.1292,-2.0727,-2.0426,-2.015,-1.9911,-1.9623,-1.9334,-1.9083,-1.8981,-1.9105,-1.9447,-1.9028,-1.9016,-1.9482,-1.9262,-1.9441,-2.0169,-1.9853,-1.9862,-2.0347,-1.9727,-1.9264,-1.9354,-1.9502,-1.9814,-2.0234,-2.0449,-2.0928,-2.1787,-2.1894,-2.2227,-2.3047,-2.3144,-2.3144,-2.3144,-2.3144,-2.3144,-2.3144,-2.3144,-2.2138,-1.9951,-1.9497,-1.858,-1.6103,-1.5825,-1.5825,-1.5825,-1.5825,-1.5825,-1.5825,-1.5945,-1.6039,-1.6039,-1.6146,-1.6293,-1.644,-1.6573,-1.6727,-1.6874,-1.7014,-1.7101,-1.7108,-1.7114,-1.7114,-1.7108,-1.7114,-1.7108,-1.7114,-1.7108,-1.7161,-1.7328,-1.7348,-1.7388,-1.7522,-1.7589,-1.7589,-3.2691,-3.1524,-3.1467,-3.1467,-3.1467,-3.1467,-3.1467,-3.1467,-3.1467,-3.1467,-3.1467,-3.1467,-3.1029,-3.0197,-2.8797,-2.7475,-2.6241,-2.4975,-2.4456,-2.4544,-2.3866,-2.3791,-2.4305,-2.3453,-2.3125,-2.3125,-2.3125,-2.3125,-2.3125,-2.3125,-2.3125,-2.3125,-2.3125,-2.3125,-2.3125,-2.3125,-2.2865,-2.2523,-2.2498,-2.2184,-2.1506,-2.1121,-2.0907,-2.0815,-2.03,-1.9987,-1.9987,-1.9874,-1.9798,-1.9811,-1.9924,-2.02,-2.0639,-2.0385,-2.0831,-2.2023,-2.1248,-2.0862,-2.1455,-2.0468,-1.9592,-1.9311,-1.958,-2.0,-2.0488,-2.0576,-2.0928,-2.1719,-2.1894,-2.2227,-2.2969,-2.3144,-2.3144,-2.3144,-2.3144,-2.3144,-2.3144,-2.3144,-2.2315,-2.0314,-1.9951,-1.9031,-1.7203,-1.6379,-1.6103,-1.592,-1.5825,-1.5825,-1.5825,-1.6015,-1.6197,-1.6197,-1.6015,-1.6116,-1.6422,-1.6447,-1.6478,-1.6587,-1.6687,-1.6747,-1.6754,-1.6727,-1.6714,-1.6747,-1.6734,-1.676,-1.672,-1.6727,-1.6827,-1.7007,-1.7048,-1.7114,-1.7281,-1.7335,-1.7448,-3.2252,-3.1524,-3.1539,-3.1467,-3.1467,-3.1467,-3.1467,-3.1467,-3.1467,-3.1467,-3.1467,-3.1467,-3.1043,-3.0182,-2.8811,-2.7721,-2.6773,-2.5843,-2.4946,-2.4217,-2.4494,-2.4129,-2.3414,-2.314,-2.3125,-2.3125,-2.3125,-2.3125,-2.3125,-2.3125,-2.3125,-2.3125,-2.3125,-2.3125,-2.3125,-2.3125,-2.3113,-2.305,-2.3002,-2.256,-2.1556,-2.1443,-2.1405,-2.1405,-2.0932,-2.0643,-2.0605,-2.0087,-1.9811,-1.9836,-2.0313,-2.0614,-2.0765,-2.1537,-2.2138,-2.2334,-2.2583,-2.2262,-2.0846,-1.9857,-1.9452,-1.9324,-1.9438,-1.9821,-2.0546,-2.0644,-2.0937,-2.166,-2.1875,-2.2246,-2.3018,-2.3135,-2.3144,-2.3144,-2.3144,-2.3144,-2.3144,-2.3144,-2.258,-2.1293,-2.1025,-2.0567,-1.9123,-1.8133,-1.7131,-1.6103,-1.6197,-1.6197,-1.6109,-1.6936,-1.7591,-1.7404,-1.6669,-1.6487,-1.7232,-1.6875,-1.6711,-1.6613,-1.6619,-1.6891,-1.699,-1.6919,-1.6687,-1.6922,-1.6627,-1.6613,-1.664,-1.67,-1.668,-1.672,-1.676,-1.678,-1.6787,-1.6834,-1.7007,-3.385,-3.271,-3.1847,-3.1467,-3.1467,-3.1467,-3.1467,-3.1467,-3.1467,-3.1467,-3.1467,-3.1467,-3.1029,-3.024,-2.9175,-2.8012,-2.6852,-2.5651,-2.4921,-2.4443,-2.4054,-2.3753,-2.364,-2.3276,-2.3125,-2.3125,-2.3125,-2.3125,-2.3125,-2.3125,-2.3125,-2.3125,-2.3125,-2.3125,-2.3125,-2.3125,-2.3125,-2.3125,-2.3125,-2.2852,-2.2485,-2.2133,-2.1983,-2.192,-2.1443,-2.0991,-2.0781,-2.0727,-2.0652,-2.0388,-2.0907,-2.1305,-2.1619,-2.2071,-2.246,-2.2774,-2.3,-2.2628,-2.1428,-2.1051,-2.0874,-2.0924,-2.0404,-2.0434,-2.1324,-2.0934,-2.084,-2.1396,-2.1738,-2.2139,-2.2695,-2.2988,-2.3144,-2.3144,-2.3144,-2.3144,-2.3144,-2.3144,-2.2589,-2.148,-2.1293,-2.0836,-1.9761,-1.9131,-1.8226,-1.7311,-1.7397,-1.7662,-1.7124,-1.7956,-1.8956,-1.9497,-1.8764,-1.8218,-1.8603,-1.8504,-1.8145,-1.8176,-1.8252,-1.8343,-1.819,-1.7603,-1.7323,-1.7248,-1.6607,-1.6226,-1.6152,-1.6199,-1.6219,-1.6359,-1.6627,-1.6707,-1.6707,-1.6707,-1.6847,-3.4951,-3.3572,-3.2125,-3.1467,-3.1467,-3.1467,-3.1467,-3.1467,-3.1467,-3.1467,-3.1467,-3.1467,-3.1219,-3.0584,-2.9752,-2.8614,-2.7447,-2.6425,-2.5755,-2.5432,-2.458,-2.4296,-2.4361,-2.3986,-2.3708,-2.3695,-2.3531,-2.3305,-2.3138,-2.3125,-2.3125,-2.3125,-2.3125,-2.3125,-2.3125,-2.3125,-2.3125,-2.3125,-2.3125,-2.3125,-2.3062,-2.2689,-2.2548,-2.2485,-2.1995,-2.1518,-2.1142,-2.1355,-2.1305,-2.0928,-2.1418,-2.1895,-2.2272,-2.246,-2.2723,-2.3075,-2.3125,-2.275,-2.1951,-2.2047,-2.1981,-2.1618,-2.1061,-2.1034,-2.1344,-2.1001,-2.0791,-2.1025,-2.1553,-2.206,-2.2471,-2.2891,-2.3125,-2.3144,-2.3144,-2.3144,-2.3144,-2.3144,-2.2775,-2.1943,-2.1933,-2.1302,-2.0305,-1.9943,-1.9579,-1.8588,-1.8856,-1.9314,-1.8596,-1.9222,-2.0305,-2.1203,-2.0755,-2.0395,-2.0034,-1.9513,-1.9588,-1.9497,-1.9363,-1.9196,-1.9139,-1.8149,-1.7326,-1.6749,-1.6245,-1.5947,-1.5939,-1.5905,-1.5885,-1.6106,-1.6319,-1.6466,-1.6386,-1.6446,-1.6493,-3.4912,-3.3531,-3.211,-3.1467,-3.1467,-3.1467,-3.1467,-3.1467,-3.1467,-3.1467,-3.1467,-3.1467,-3.1467,-3.1336,-3.0584,-2.9752,-2.8933,-2.8634,-2.794,-2.7023,-2.6832,-2.6373,-2.5369,-2.53,-2.5231,-2.5063,-2.4509,-2.3872,-2.3185,-2.3125,-2.3125,-2.3125,-2.3125,-2.3125,-2.3125,-2.3125,-2.3125,-2.3125,-2.3125,-2.3125,-2.3125,-2.304,-2.299,-2.3,-2.256,-2.2234,-2.2146,-2.1744,-2.1493,-2.1455,-2.1983,-2.2309,-2.2372,-2.2811,-2.3015,-2.3125,-2.3125,-2.2763,-2.2123,-2.2384,-2.2145,-2.1075,-2.1188,-2.1172,-2.0971,-2.0712,-2.0596,-2.0625,-2.1428,-2.1973,-2.2432,-2.2861,-2.3125,-2.3144,-2.3144,-2.3144,-2.3144,-2.3144,-2.3144,-2.296,-2.2862,-2.2403,-2.1382,-2.1203,-2.0666,-1.9761,-1.9497,-1.9588,-1.9679,-2.0486,-2.1203,-2.1569,-2.2041,-2.2501,-2.1391,-2.0755,-1.9951,-2.0042,-2.0223,-1.9405,-1.8411,-1.7591,-1.7037,-1.648,-1.6109,-1.5832,-1.5825,-1.5832,-1.5838,-1.5919,-1.5932,-1.5999,-1.6086,-1.5932,-1.6005,-3.5012,-3.2892,-3.1925,-3.1467,-3.1467,-3.1467,-3.1467,-3.1467,-3.1467,-3.1467,-3.1467,-3.1467,-3.1467,-3.1482,-3.1219,-3.0584,-2.9785,-2.8926,-2.8041,-2.7193,-2.6865,-2.6242,-2.5467,-2.5398,-2.5398,-2.5342,-2.5133,-2.4624,-2.3884,-2.3365,-2.3125,-2.3125,-2.3125,-2.3125,-2.3125,-2.3125,-2.3125,-2.3125,-2.3125,-2.3125,-2.3125,-2.3125,-2.3125,-2.3125,-2.2949,-2.2661,-2.2334,-2.2447,-2.2385,-2.2046,-2.2548,-2.2836,-2.279,-2.2965,-2.3125,-2.3125,-2.3125,-2.2944,-2.2727,-2.2943,-2.2866,-2.2412,-2.1937,-2.1763,-2.14,-2.1011,-2.0576,-2.0732,-2.1105,-2.1639,-2.2163,-2.2725,-2.3144,-2.3144,-2.3144,-2.3144,-2.3144,-2.3144,-2.3144,-2.3144,-2.3144,-2.2872,-2.258,-2.2403,-2.1943,-2.1033,-2.1311,-2.1311,-2.1033,-2.1667,-2.2394,-2.2492,-2.2775,-2.295,-2.2589,-2.2217,-2.1854,-2.1854,-2.1765,-2.1221,-2.0314,-1.9131,-1.858,-1.7397,-1.6756,-1.6109,-1.6197,-1.6109,-1.6015,-1.5825,-1.5825,-1.5825,-1.5832,-1.5825,-1.5879,-3.5184,-3.3211,-3.2,-3.1467,-3.1467,-3.1467,-3.1467,-3.1467,-3.1467,-3.1467,-3.1467,-3.1467,-3.1467,-3.1467,-3.1467,-3.1234,-3.0615,-2.9688,-2.8708,-2.7726,-2.7499,-2.6958,-2.6207,-2.6094,-2.6108,-2.604,-2.5837,-2.5412,-2.4681,-2.4105,-2.3754,-2.3543,-2.3484,-2.3305,-2.3125,-2.3125,-2.3125,-2.3125,-2.3125,-2.3125,-2.3125,-2.3125,-2.3125,-2.3125,-2.3125,-2.2975,-2.2598,-2.2937,-2.2987,-2.2686,-2.2877,-2.3125,-2.3125,-2.3125,-2.3125,-2.3125,-2.3125,-2.3125,-2.3203,-2.3509,-2.3622,-2.3337,-2.2849,-2.2403,-2.2027,-2.1155,-2.0644,-2.0673,-2.0948,-2.1411,-2.1899,-2.2529,-2.2988,-2.3096,-2.3144,-2.3144,-2.3144,-2.3144,-2.3144,-2.3144,-2.3144,-2.3144,-2.3144,-2.3047,-2.2677,-2.1943,-2.2668,-2.2677,-2.2217,-2.2492,-2.3144,-2.3144,-2.3047,-2.3135,-2.296,-2.2677,-2.2589,-2.2677,-2.2589,-2.2306,-2.1667,-2.0576,-1.9579,-1.8495,-1.7669,-1.703,-1.6567,-1.648,-1.6204,-1.592,-1.5825,-1.5825,-1.5825,-1.5825,-1.5865,-3.5364,-3.428,-3.2412,-3.1524,-3.1524,-3.1467,-3.1467,-3.1467,-3.1467,-3.1467,-3.1467,-3.1467,-3.1467,-3.1467,-3.1467,-3.1467,-3.1304,-3.1144,-3.0268,-2.8797,-2.9059,-2.8613,-2.7542,-2.7372,-2.7342,-2.7342,-2.6774,-2.6122,-2.5412,-2.5231,-2.4838,-2.4394,-2.4221,-2.3826,-2.3125,-2.3125,-2.3125,-2.3125,-2.3125,-2.3125,-2.3125,-2.3125,-2.3125,-2.3125,-2.3125,-2.3113,-2.3027,-2.3125,-2.3113,-2.3027,-2.3113,-2.3125,-2.3125,-2.3125,-2.3125,-2.3125,-2.3125,-2.3138,-2.3288,-2.4066,-2.4198,-2.357,-2.3404,-2.2925,-2.2027,-2.1155,-2.0576,-2.0625,-2.0908,-2.1357,-2.1807,-2.2256,-2.2685,-2.3057,-2.3144,-2.3144,-2.3144,-2.3144,-2.3144,-2.3144,-2.3144,-2.3144,-2.3144,-2.3144,-2.296,-2.296,-2.3047,-2.3047,-2.2862,-2.295,-2.3047,-2.3144,-2.3144,-2.3144,-2.3144,-2.3047,-2.3047,-2.3047,-2.296,-2.2677,-2.1756,-2.0845,-2.0215,-1.9314,-1.8856,-1.8218,-1.7677,-1.7498,-1.6857,-1.6574,-1.6298,-1.592,-1.5825,-1.5825,-1.5825,-3.5482,-3.3795,-3.2696,-3.1951,-3.1524,-3.1467,-3.1467,-3.1467,-3.1467,-3.1467,-3.1467,-3.1467,-3.1467,-3.1467,-3.1467,-3.1285,-3.0881,-3.1255,-3.0926,-2.9939,-2.9235,-2.8712,-2.8248,-2.7835,-2.756,-2.7458,-2.6826,-2.6404,-2.6122,-2.5687,-2.5231,-2.5007,-2.4567,-2.4176,-2.3943,-2.3424,-2.3125,-2.3125,-2.3125,-2.3125,-2.3125,-2.3125,-2.3125,-2.3125,-2.3125,-2.3125,-2.3125,-2.3125,-2.3125,-2.3125,-2.3125,-2.3125,-2.3125,-2.3125,-2.3125,-2.3125,-2.3125,-2.3278,-2.3753,-2.4317,-2.4567,-2.3982,-2.367,-2.3029,-2.2103,-2.1155,-2.0644,-2.0566,-2.0723,-2.1055,-2.1728,-2.1992,-2.2373,-2.3066,-2.3144,-2.3144,-2.3144,-2.3144,-2.3144,-2.3144,-2.3144,-2.3144,-2.3144,-2.3144,-2.3144,-2.3144,-2.3144,-2.3144,-2.3144,-2.3144,-2.3144,-2.3144,-2.3144,-2.3144,-2.3144,-2.3144,-2.3144,-2.3144,-2.3047,-2.295,-2.2031,-2.148,-2.0854,-2.0404,-2.0042,-1.9497,-1.9047,-1.8503,-1.7956,-1.7037,-1.6574,-1.6292,-1.592,-1.5825,-1.5825,-3.5445,-3.3913,-3.2975,-3.2176,-3.1524,-3.1467,-3.1467,-3.1467,-3.1467,-3.1467,-3.1467,-3.1467,-3.1467,-3.1467,-3.1467,-3.1243,-3.0926,-3.1106,-3.0926,-3.0417,-2.9475,-2.8742,-2.8263,-2.785,-2.756,-2.7509,-2.7152,-2.693,-2.6878,-2.6496,-2.6108,-2.5783,-2.5342,-2.4964,-2.4681,-2.393,-2.3531,-2.3543,-2.3245,-2.3125,-2.3125,-2.3125,-2.3125,-2.3125,-2.3125,-2.3125,-2.3125,-2.3125,-2.3125,-2.3125,-2.3125,-2.3125,-2.3125,-2.3125,-2.3125,-2.3125,-2.309,-2.324,-2.3715,-2.4356,-2.4738,-2.4401,-2.4155,-2.3649,-2.2627,-2.1669,-2.1088,-2.0644,-2.0586,-2.0859,-2.1475,-2.1641,-2.2021,-2.2812,-2.3057,-2.3125,-2.3144,-2.3144,-2.3144,-2.3144,-2.3144,-2.3144,-2.3144,-2.3144,-2.3144,-2.3144,-2.3144,-2.3144,-2.3144,-2.3144,-2.3144,-2.3144,-2.3144,-2.3144,-2.3144,-2.3144,-2.3144,-2.3144,-2.3135,-2.2862,-2.2403,-2.2306,-2.1863,-2.1765,-2.14,-2.0944,-2.0494,-1.9852,-1.9306,-1.8211,-1.7124,-1.6574,-1.6292,-1.592,-1.5825,-3.5362,-3.4547,-3.3269,-3.2367,-3.1724,-3.164,-3.164,-3.1582,-3.1524,-3.1467,-3.1467,-3.1467,-3.1467,-3.1467,-3.1467,-3.1422,-3.142,-3.0971,-3.0597,-3.0298,-2.9699,-2.8906,-2.785,-2.7655,-2.7575,-2.756,-2.7509,-2.7509,-2.7458,-2.7408,-2.7255,-2.6616,-2.6336,-2.6122,-2.5453,-2.4724,-2.4337,-2.4292,-2.3603,-2.3245,-2.3245,-2.3138,-2.3125,-2.3125,-2.3125,-2.3125,-2.3125,-2.3125,-2.3125,-2.3125,-2.3125,-2.3125,-2.3125,-2.3125,-2.3125,-2.3125,-2.3125,-2.314,-2.3366,-2.4243,-2.4818,-2.4875,-2.4828,-2.4564,-2.3452,-2.2403,-2.1451,-2.0712,-2.0576,-2.0762,-2.1162,-2.1289,-2.1689,-2.2402,-2.291,-2.3115,-2.3144,-2.3144,-2.3144,-2.3144,-2.3144,-2.3144,-2.3144,-2.3144,-2.3144,-2.3144,-2.3144,-2.3144,-2.3144,-2.3144,-2.3144,-2.3144,-2.3144,-2.3144,-2.3144,-2.3144,-2.3144,-2.3144,-2.3144,-2.296,-2.2775,-2.2775,-2.2775,-2.2677,-2.2501,-2.212,-2.1756,-2.1033,-2.0215,-1.9123,-1.8126,-1.7217,-1.6574,-1.6292,-1.5825,-3.574,-3.4595,-3.4218,-3.3684,-3.3024,-3.2532,-3.2327,-3.2231,-3.1739,-3.1524,-3.1467,-3.1467,-3.1467,-3.1467,-3.1467,-3.1467,-3.1392,-3.1243,-3.0657,-2.9894,-2.9684,-2.8816,-2.7799,-2.756,-2.756,-2.756,-2.756,-2.756,-2.756,-2.756,-2.7473,-2.7306,-2.6774,-2.6457,-2.6122,-2.5453,-2.5133,-2.5007,-2.435,-2.3943,-2.3826,-2.3365,-2.3138,-2.3125,-2.3125,-2.3125,-2.3125,-2.3125,-2.3125,-2.3125,-2.3125,-2.3125,-2.3125,-2.3125,-2.3125,-2.3125,-2.315,-2.3278,-2.3778,-2.4393,-2.4933,-2.5331,-2.5107,-2.4552,-2.3599,-2.2553,-2.1593,-2.0867,-2.0576,-2.0742,-2.1123,-2.123,-2.165,-2.2373,-2.2803,-2.3086,-2.3135,-2.3144,-2.3144,-2.3144,-2.3144,-2.3144,-2.3144,-2.3144,-2.3144,-2.3144,-2.3144,-2.3144,-2.3144,-2.3144,-2.3144,-2.3144,-2.3144,-2.3144,-2.3144,-2.3144,-2.3144,-2.3144,-2.3144,-2.3047,-2.296,-2.296,-2.3047,-2.296,-2.2862,-2.2589,-2.2306,-2.1854,-2.0944,-2.0034,-1.8764,-1.777,-1.7131,-1.6669,-1.6015,-3.5609,-3.4592,-3.4592,-3.4235,-3.3598,-3.3182,-3.2841,-3.2547,-3.2176,-3.1739,-3.1582,-3.1467,-3.1467,-3.1467,-3.1467,-3.1467,-3.1437,-3.1225,-3.0522,-2.9624,-2.9034,-2.8314,-2.7679,-2.756,-2.756,-2.756,-2.756,-2.756,-2.756,-2.756,-2.756,-2.7524,-2.7203,-2.6982,-2.693,-2.6283,-2.5837,-2.5673,-2.4894,-2.4279,-2.4221,-2.3531,-2.3185,-2.3125,-2.3125,-2.3125,-2.3125,-2.3125,-2.3125,-2.3125,-2.3125,-2.3125,-2.3125,-2.3125,-2.3125,-2.3125,-2.3125,-2.3228,-2.364,-2.4155,-2.4707,-2.5156,-2.5154,-2.4661,-2.375,-2.2925,-2.2188,-2.0857,-2.0644,-2.0703,-2.0918,-2.1113,-2.1455,-2.1875,-2.2353,-2.2744,-2.2989,-2.3144,-2.3144,-2.3144,-2.3144,-2.3144,-2.3144,-2.3144,-2.3144,-2.3144,-2.3144,-2.3144,-2.3144,-2.3144,-2.3144,-2.3144,-2.3144,-2.3144,-2.3144,-2.3144,-2.3144,-2.3144,-2.3144,-2.3144,-2.3144,-2.3144,-2.3144,-2.3144,-2.3144,-2.3047,-2.2677,-2.2403,-2.1854,-2.0764,-1.9405,-1.8411,-1.777,-1.6951,-1.6292,-3.527,-3.4688,-3.4688,-3.4333,-3.3887,-3.3735,-3.3443,-3.2895,-3.2734,-3.2266,-3.1675,-3.158,-3.1534,-3.1435,-3.1392,-3.1467,-3.1437,-3.0896,-3.0133,-2.9265,-2.8382,-2.7619,-2.7619,-2.756,-2.756,-2.756,-2.756,-2.756,-2.756,-2.756,-2.756,-2.7575,-2.7575,-2.7575,-2.7357,-2.693,-2.6669,-2.639,-2.5398,-2.4724,-2.4452,-2.3826,-2.3305,-2.3125,-2.3125,-2.3125,-2.3125,-2.3125,-2.3125,-2.3125,-2.3125,-2.3125,-2.3125,-2.3125,-2.3125,-2.3125,-2.3125,-2.309,-2.319,-2.3753,-2.428,-2.4781,-2.5294,-2.5054,-2.4042,-2.3661,-2.2936,-2.1078,-2.0779,-2.0809,-2.0664,-2.0977,-2.124,-2.1455,-2.1699,-2.2246,-2.2793,-2.3047,-2.3076,-2.3086,-2.3086,-2.3144,-2.3144,-2.3144,-2.3144,-2.3144,-2.3144,-2.3144,-2.3144,-2.3144,-2.3144,-2.3144,-2.3144,-2.3144,-2.3144,-2.3144,-2.3144,-2.3144,-2.3144,-2.3144,-2.3144,-2.3144,-2.3144,-2.3144,-2.3144,-2.3144,-2.3047,-2.2677,-2.2394,-2.1756,-2.0584,-1.9314,-1.8226,-1.7311,-1.6574,-3.5532,-3.5362,-3.5362,-3.5316,-3.5098,-3.4609,-3.4284,-3.4087,-3.3582,-3.2704,-3.1905,-3.2136,-3.1673,-3.0776,-3.124,-3.1467,-3.1302,-3.0702,-2.9924,-2.8757,-2.8008,-2.7604,-2.756,-2.756,-2.756,-2.756,-2.756,-2.756,-2.756,-2.756,-2.756,-2.756,-2.756,-2.756,-2.7509,-2.7408,-2.7357,-2.7203,-2.639,-2.5632,-2.5007,-2.4279,-2.3649,-2.3198,-2.3125,-2.3125,-2.3125,-2.3125,-2.3125,-2.3125,-2.3125,-2.3125,-2.3125,-2.3125,-2.3125,-2.3125,-2.3125,-2.3125,-2.3226,-2.3653,-2.4243,-2.4782,-2.5181,-2.5339,-2.485,-2.4636,-2.3672,-2.2188,-2.1669,-2.1375,-2.0819,-2.0967,-2.1143,-2.125,-2.1543,-2.1875,-2.2148,-2.2441,-2.2627,-2.2734,-2.2939,-2.3135,-2.3135,-2.3144,-2.3144,-2.3144,-2.3144,-2.3144,-2.3144,-2.3144,-2.3144,-2.3144,-2.3144,-2.3144,-2.3144,-2.3144,-2.3144,-2.3144,-2.3144,-2.3144,-2.3144,-2.3144,-2.3144,-2.3144,-2.3144,-2.3144,-2.3144,-2.3047,-2.2775,-2.2217,-2.1667,-2.0305,-1.9039,-1.7948,-1.6763,-3.5639,-3.5639,-3.5639,-3.5639,-3.5532,-3.5207,-3.4894,-3.4592,-3.4219,-3.3299,-3.2336,-3.2453,-3.1982,-3.0949,-3.102,-3.0989,-3.0806,-3.0013,-2.9071,-2.8203,-2.7709,-2.759,-2.756,-2.756,-2.756,-2.756,-2.756,-2.756,-2.756,-2.756,-2.756,-2.756,-2.756,-2.756,-2.756,-2.756,-2.756,-2.7306,-2.6534,-2.5783,-2.5356,-2.4279,-2.359,-2.3185,-2.3125,-2.3125,-2.3125,-2.3125,-2.3125,-2.3125,-2.3125,-2.3125,-2.3125,-2.3125,-2.3125,-2.3125,-2.3125,-2.3125,-2.3251,-2.3439,-2.3929,-2.4757,-2.5096,-2.5111,-2.5059,-2.5004,-2.4337,-2.3147,-2.2627,-2.2339,-2.1385,-2.1383,-2.1429,-2.1026,-2.1123,-2.126,-2.1377,-2.1816,-2.2314,-2.2471,-2.2705,-2.293,-2.295,-2.3037,-2.3105,-2.3096,-2.3135,-2.3144,-2.3144,-2.3144,-2.3144,-2.3144,-2.3144,-2.3144,-2.3144,-2.3144,-2.3144,-2.3144,-2.3144,-2.3144,-2.3144,-2.3144,-2.3144,-2.3144,-2.3144,-2.3144,-2.3144,-2.3144,-2.3047,-2.2687,-2.1952,-2.0845,-1.9662,-1.8403,-1.7124,-3.5639,-3.5639,-3.5639,-3.5639,-3.5639,-3.5577,-3.527,-3.483,-3.4603,-3.3842,-3.2835,-3.2636,-3.2092,-3.1451,-3.0767,-3.0493,-2.9924,-2.928,-2.8368,-2.7739,-2.7619,-2.756,-2.756,-2.756,-2.756,-2.756,-2.756,-2.756,-2.756,-2.756,-2.756,-2.756,-2.756,-2.756,-2.756,-2.756,-2.756,-2.7408,-2.664,-2.5728,-2.5342,-2.4266,-2.3636,-2.3125,-2.3125,-2.3125,-2.3125,-2.3125,-2.3125,-2.3125,-2.3125,-2.3125,-2.3125,-2.3125,-2.3125,-2.3125,-2.3125,-2.3125,-2.3125,-2.3165,-2.3566,-2.4632,-2.4833,-2.4954,-2.503,-2.5228,-2.4779,-2.4108,-2.3514,-2.3073,-2.2328,-2.2004,-2.1634,-2.1118,-2.0809,-2.0566,-2.0703,-2.126,-2.1728,-2.2158,-2.2314,-2.251,-2.2734,-2.2832,-2.2949,-2.3047,-2.3086,-2.3125,-2.3115,-2.3125,-2.3105,-2.3135,-2.3144,-2.3144,-2.3144,-2.3144,-2.3144,-2.3144,-2.3144,-2.3144,-2.3144,-2.3144,-2.3144,-2.3144,-2.3144,-2.3144,-2.3144,-2.3144,-2.3047,-2.2872,-2.2501,-2.1578,-2.0305,-1.8856,-1.7669,-3.5639,-3.5639,-3.5639,-3.5639,-3.5639,-3.5639,-3.5498,-3.5352,-3.4751,-3.413,-3.3329,-3.2735,-3.2123,-3.1498,-3.0794,-2.9999,-2.9192,-2.8599,-2.8173,-2.7649,-2.756,-2.756,-2.756,-2.756,-2.756,-2.756,-2.756,-2.756,-2.756,-2.756,-2.756,-2.756,-2.756,-2.756,-2.756,-2.756,-2.756,-2.7575,-2.7071,-2.6428,-2.5508,-2.4838,-2.4047,-2.3245,-2.3125,-2.3125,-2.3125,-2.3125,-2.3125,-2.3125,-2.3125,-2.3125,-2.3125,-2.3125,-2.3125,-2.3125,-2.3125,-2.3125,-2.3125,-2.315,-2.3477,-2.4054,-2.4569,-2.5034,-2.5393,-2.589,-2.5615,-2.4921,-2.412,-2.3514,-2.3294,-2.2616,-2.2027,-2.1583,-2.1078,-2.0644,-2.0605,-2.0781,-2.1064,-2.1475,-2.1758,-2.207,-2.2314,-2.25,-2.2568,-2.2666,-2.2754,-2.2891,-2.2998,-2.3018,-2.3037,-2.3086,-2.3144,-2.3144,-2.3144,-2.3144,-2.3144,-2.3144,-2.3144,-2.3144,-2.3144,-2.3144,-2.3144,-2.3144,-2.3144,-2.3144,-2.3144,-2.3144,-2.3047,-2.3047,-2.2687,-2.2315,-2.1033,-1.9662,-1.8856,-3.5639,-3.5639,-3.5639,-3.5639,-3.5639,-3.5639,-3.5385,-3.5013,-3.4641,-3.3903,-3.3078,-3.2524,-3.2036,-3.1422,-3.0747,-2.9741,-2.8747,-2.8171,-2.791,-2.7575,-2.756,-2.756,-2.756,-2.756,-2.756,-2.756,-2.756,-2.756,-2.756,-2.756,-2.756,-2.756,-2.756,-2.756,-2.756,-2.756,-2.756,-2.7575,-2.7188,-2.6534,-2.5398,-2.4781,-2.3767,-2.3365,-2.3125,-2.3125,-2.3125,-2.3125,-2.3125,-2.3125,-2.3125,-2.3125,-2.3125,-2.3125,-2.3125,-2.3125,-2.3125,-2.3125,-2.3125,-2.315,-2.3414,-2.3966,-2.4494,-2.4883,-2.5347,-2.582,-2.6208,-2.5804,-2.5511,-2.4838,-2.4337,-2.3368,-2.2627,-2.1952,-2.1231,-2.0722,-2.0576,-2.0576,-2.0723,-2.0937,-2.1279,-2.1641,-2.1943,-2.209,-2.2158,-2.2266,-2.2393,-2.2578,-2.2783,-2.2754,-2.2725,-2.292,-2.2959,-2.2959,-2.2939,-2.293,-2.3008,-2.3047,-2.3076,-2.3076,-2.3144,-2.3144,-2.3144,-2.3144,-2.3144,-2.3144,-2.3144,-2.3144,-2.3144,-2.3144,-2.2872,-2.2492,-2.1658,-2.0657,-1.9753,-3.5639,-3.556,-3.5453,-3.5402,-3.5368,-3.5233,-3.481,-3.432,-3.4066,-3.3474,-3.2604,-3.2224,-3.1885,-3.1422,-3.0679,-2.9643,-2.8414,-2.789,-2.7775,-2.7575,-2.756,-2.756,-2.756,-2.756,-2.756,-2.756,-2.756,-2.756,-2.756,-2.756,-2.756,-2.756,-2.756,-2.756,-2.756,-2.756,-2.756,-2.7408,-2.7034,-2.6322,-2.5287,-2.4105,-2.3258,-2.3125,-2.3125,-2.3125,-2.3125,-2.3125,-2.3125,-2.3125,-2.3125,-2.3125,-2.3125,-2.3125,-2.3125,-2.3125,-2.3125,-2.3125,-2.3125,-2.3078,-2.3314,-2.3703,-2.4318,-2.4632,-2.5096,-2.5774,-2.6452,-2.6521,-2.6383,-2.6082,-2.5288,-2.4409,-2.3441,-2.2478,-2.1593,-2.0867,-2.0644,-2.0576,-2.0576,-2.0771,-2.0977,-2.1162,-2.1426,-2.167,-2.1738,-2.1855,-2.1982,-2.2178,-2.2344,-2.2217,-2.2256,-2.2588,-2.2725,-2.2725,-2.2695,-2.2627,-2.2725,-2.2842,-2.2891,-2.292,-2.3037,-2.3144,-2.3086,-2.2988,-2.3144,-2.3144,-2.3144,-2.3125,-2.3144,-2.3144,-2.3144,-2.2862,-2.2217,-2.148,-2.0666,-3.5639,-3.5554,-3.4878,-3.4624,-3.4539,-3.3998,-3.366,-3.3474,-3.2916,-3.2882,-3.2899,-3.2006,-3.17,-3.1748,-3.0822,-2.9374,-2.8357,-2.8042,-2.7944,-2.761,-2.756,-2.756,-2.756,-2.756,-2.756,-2.756,-2.756,-2.756,-2.756,-2.756,-2.756,-2.756,-2.756,-2.756,-2.756,-2.756,-2.756,-2.7575,-2.7458,-2.6678,-2.5425,-2.4412,-2.3708,-2.3245,-2.3125,-2.3125,-2.3125,-2.3125,-2.3125,-2.3125,-2.3125,-2.3125,-2.3125,-2.3125,-2.3125,-2.3125,-2.3125,-2.3125,-2.3125,-2.3078,-2.309,-2.3427,-2.3841,-2.4305,-2.4908,-2.5636,-2.6289,-2.6521,-2.6521,-2.6314,-2.5873,-2.5229,-2.4337,-2.322,-2.2038,-2.1231,-2.0789,-2.0576,-2.0576,-2.0586,-2.0781,-2.0742,-2.083,-2.1094,-2.1318,-2.1445,-2.1592,-2.1777,-2.1943,-2.1875,-2.1758,-2.207,-2.2353,-2.2383,-2.2393,-2.2344,-2.2393,-2.2559,-2.2607,-2.2666,-2.2734,-2.2783,-2.2793,-2.2764,-2.29,-2.2969,-2.2881,-2.29,-2.3066,-2.3144,-2.3144,-2.3144,-2.3047,-2.2217,-2.148,-3.437,-3.4336,-3.4015,-3.388,-3.3846,-3.3525,-3.3169,-3.2747,-3.2442,-3.2222,-3.2087,-3.1546,-3.1419,-3.144,-3.0401,-2.9435,-2.8622,-2.8271,-2.791,-2.766,-2.756,-2.756,-2.756,-2.756,-2.756,-2.756,-2.756,-2.756,-2.756,-2.756,-2.756,-2.7545,-2.756,-2.756,-2.75,-2.756,-2.756,-2.7342,-2.6768,-2.5626,-2.4556,-2.3864,-2.3484,-2.3138,-2.3138,-2.3125,-2.3125,-2.3125,-2.3125,-2.3125,-2.3125,-2.3125,-2.3125,-2.3125,-2.3125,-2.3125,-2.3125,-2.3125,-2.3125,-2.3125,-2.3125,-2.3263,-2.3665,-2.4255,-2.4782,-2.5247,-2.5737,-2.595,-2.6345,-2.6264,-2.5627,-2.4707,-2.3734,-2.2765,-2.1996,-2.1364,-2.0779,-2.0722,-2.0576,-2.0576,-2.0576,-2.0576,-2.0576,-2.0742,-2.0947,-2.1006,-2.1103,-2.123,-2.1533,-2.1768,-2.1631,-2.1523,-2.1797,-2.2002,-2.2031,-2.2031,-2.2031,-2.2139,-2.2148,-2.2217,-2.2285,-2.2324,-2.2353,-2.2305,-2.2295,-2.2373,-2.248,-2.2744,-2.2959,-2.3057,-2.3144,-2.3066,-2.3008,-2.3047,-2.2315,-3.3017,-3.2882,-3.3051,-3.3136,-3.3102,-3.2949,-3.2527,-3.2036,-3.1985,-3.1698,-3.1309,-3.119,-3.1151,-3.0895,-3.0231,-2.9677,-2.9058,-2.8367,-2.791,-2.771,-2.756,-2.756,-2.756,-2.756,-2.756,-2.756,-2.756,-2.756,-2.756,-2.7545,-2.755,-2.7415,-2.7535,-2.741,-2.7335,-2.726,-2.728,-2.7181,-2.6591,-2.5544,-2.4336,-2.3966,-2.3551,-2.3245,-2.3125,-2.3125,-2.3125,-2.3125,-2.3125,-2.3125,-2.3125,-2.3125,-2.3125,-2.3125,-2.3125,-2.3125,-2.3125,-2.3125,-2.3125,-2.3125,-2.3125,-2.3301,-2.3627,-2.4167,-2.4494,-2.4695,-2.4921,-2.5398,-2.5875,-2.5635,-2.4943,-2.4105,-2.3369,-2.2413,-2.147,-2.1008,-2.0682,-2.0702,-2.0644,-2.0576,-2.0576,-2.0576,-2.0576,-2.0576,-2.0605,-2.0596,-2.0644,-2.0742,-2.1045,-2.1435,-2.1328,-2.1113,-2.1201,-2.1406,-2.1435,-2.1514,-2.1592,-2.1709,-2.1719,-2.1826,-2.1943,-2.1963,-2.1963,-2.1885,-2.1768,-2.1826,-2.1953,-2.2412,-2.2822,-2.2676,-2.2598,-2.2793,-2.2871,-2.2998,-2.3028,-3.1968,-3.141,-3.2087,-3.2398,-3.2307,-3.163,-3.1343,-3.136,-3.1309,-3.1292,-3.1207,-3.119,-3.0918,-3.0601,-3.0601,-2.9978,-2.8685,-2.9088,-2.8496,-2.7894,-2.756,-2.756,-2.756,-2.756,-2.756,-2.756,-2.756,-2.756,-2.756,-2.756,-2.7215,-2.6811,-2.729,-2.7111,-2.6976,-2.6946,-2.6822,-2.6862,-2.6725,-2.6304,-2.5369,-2.4813,-2.4381,-2.3424,-2.3138,-2.3125,-2.3125,-2.3125,-2.3125,-2.3125,-2.3125,-2.3125,-2.3125,-2.3125,-2.3125,-2.3125,-2.3125,-2.3125,-2.3125,-2.3125,-2.3125,-2.3301,-2.3577,-2.3904,-2.4042,-2.4544,-2.4808,-2.4908,-2.536,-2.513,-2.4611,-2.4071,-2.3262,-2.2415,-2.1639,-2.151,-2.1171,-2.0914,-2.0857,-2.0644,-2.0576,-2.0576,-2.0576,-2.0576,-2.0576,-2.0576,-2.0576,-2.0664,-2.0654,-2.0908,-2.083,-2.0713,-2.0693,-2.0742,-2.0723,-2.084,-2.1074,-2.1211,-2.1269,-2.1475,-2.1689,-2.166,-2.1484,-2.1465,-2.1367,-2.1396,-2.1435,-2.1728,-2.1943,-2.1963,-2.206,-2.2344,-2.2549,-2.2666,-2.2852,-3.1444,-3.1224,-3.1495,-3.1613,-3.1579,-3.1309,-3.119,-3.119,-3.119,-3.119,-3.119,-3.119,-3.1055,-3.0878,-3.0559,-3.0335,-2.954,-2.8966,-2.8606,-2.8174,-2.7845,-2.761,-2.756,-2.756,-2.756,-2.756,-2.756,-2.756,-2.756,-2.7515,-2.6826,-2.6617,-2.7021,-2.7051,-2.6886,-2.6826,-2.6708,-2.632,-2.6491,-2.6232,-2.5131,-2.4745,-2.4452,-2.3956,-2.3245,-2.3125,-2.3125,-2.3125,-2.3125,-2.3125,-2.3125,-2.3125,-2.3125,-2.3125,-2.3125,-2.3125,-2.3125,-2.3125,-2.3125,-2.3125,-2.3125,-2.3103,-2.3278,-2.3489,-2.3565,-2.3991,-2.4255,-2.4481,-2.4795,-2.4678,-2.3855,-2.3585,-2.3167,-2.2373,-2.1934,-2.1814,-2.1702,-2.136,-2.1176,-2.107,-2.0797,-2.0576,-2.0576,-2.0576,-2.0576,-2.0576,-2.0576,-2.0576,-2.0576,-2.0576,-2.0576,-2.0576,-2.0576,-2.0576,-2.0576,-2.0605,-2.0635,-2.0752,-2.0869,-2.1064,-2.126,-2.1045,-2.0908,-2.0918,-2.0967,-2.0977,-2.0996,-2.1006,-2.1191,-2.1523,-2.1768,-2.1992,-2.2168,-2.2305,-2.251,-3.119,-3.119,-3.119,-3.119,-3.119,-3.119,-3.119,-3.119,-3.119,-3.119,-3.119,-3.119,-3.119,-3.1072,-3.0838,-3.0435,-3.0081,-2.9496,-2.8904,-2.8448,-2.8076,-2.776,-2.766,-2.756,-2.756,-2.756,-2.756,-2.756,-2.756,-2.738,-2.6647,-2.6228,-2.6408,-2.6422,-2.6273,-2.6797,-2.6733,-2.6059,-2.6331,-2.6242,-2.525,-2.4873,-2.4452,-2.4234,-2.3484,-2.3125,-2.3125,-2.3125,-2.3125,-2.3125,-2.3125,-2.3125,-2.3125,-2.3125,-2.3125,-2.3125,-2.3125,-2.3125,-2.3125,-2.3125,-2.3125,-2.309,-2.309,-2.3175,-2.3251,-2.3514,-2.3715,-2.3791,-2.4154,-2.4159,-2.3251,-2.3053,-2.2884,-2.2134,-2.1815,-2.1695,-2.192,-2.1779,-2.1608,-2.1478,-2.113,-2.0811,-2.0557,-2.0557,-2.0576,-2.0576,-2.0576,-2.0576,-2.0576,-2.0576,-2.0576,-2.0576,-2.0576,-2.0576,-2.0576,-2.0596,-2.0605,-2.0615,-2.0703,-2.0664,-2.0713,-2.0576,-2.0576,-2.0693,-2.0713,-2.0596,-2.0644,-2.0771,-2.1016,-2.1309,-2.1494,-2.1641,-2.1748,-2.1894,-2.209,-3.114,-3.119,-3.1157,-3.1157,-3.1123,-3.119,-3.119,-3.119,-3.119,-3.119,-3.119,-3.119,-3.119,-3.1157,-3.0971,-3.0654,-3.0294,-3.0035,-2.9456,-2.8561,-2.8369,-2.8076,-2.776,-2.756,-2.756,-2.756,-2.756,-2.7545,-2.7455,-2.7021,-2.6303,-2.5644,-2.554,-2.551,-2.4851,-2.5974,-2.6228,-2.5881,-2.6847,-2.674,-2.6294,-2.5671,-2.5119,-2.4624,-2.3943,-2.359,-2.3365,-2.3365,-2.3305,-2.3125,-2.3125,-2.3125,-2.3125,-2.3125,-2.3125,-2.3125,-2.3125,-2.3125,-2.3125,-2.3125,-2.3125,-2.3125,-2.3125,-2.3125,-2.3125,-2.3201,-2.3263,-2.3414,-2.3715,-2.3503,-2.2995,-2.2621,-2.2453,-2.2281,-2.2021,-2.2092,-2.2411,-2.2316,-2.2231,-2.1677,-2.1314,-2.1069,-2.0725,-2.0547,-2.0566,-2.0576,-2.0576,-2.0566,-2.0566,-2.0576,-2.0576,-2.0576,-2.0576,-2.0576,-2.0576,-2.0576,-2.0576,-2.0576,-2.0576,-2.0576,-2.0576,-2.0576,-2.0576,-2.0576,-2.0576,-2.0576,-2.0576,-2.0596,-2.081,-2.1006,-2.1123,-2.125,-2.1357,-2.1455,-2.152,-3.037,-2.977,-3.026,-3.048,-3.0531,-3.1004,-3.119,-3.119,-3.119,-3.119,-3.119,-3.119,-3.119,-3.1089,-3.07,-3.0381,-3.0118,-2.9626,-2.9006,-2.85,-2.8467,-2.8094,-2.776,-2.7625,-2.761,-2.756,-2.7545,-2.726,-2.6886,-2.6527,-2.5869,-2.5149,-2.4687,-2.4702,-2.5166,-2.5824,-2.5764,-2.5794,-2.6422,-2.6753,-2.6547,-2.6222,-2.5932,-2.5591,-2.4854,-2.4221,-2.3826,-2.378,-2.3484,-2.3185,-2.3125,-2.3125,-2.3125,-2.3125,-2.3125,-2.3125,-2.3125,-2.3125,-2.3125,-2.3125,-2.3125,-2.3125,-2.3125,-2.3125,-2.3125,-2.3125,-2.3138,-2.3138,-2.3326,-2.317,-2.3034,-2.2973,-2.286,-2.2957,-2.2919,-2.3211,-2.3397,-2.305,-2.2765,-2.1912,-2.1414,-2.0803,-2.0432,-2.0281,-2.0283,-2.04,-2.04,-2.0518,-2.0557,-2.0566,-2.0576,-2.0576,-2.0576,-2.0576,-2.0576,-2.0576,-2.0576,-2.0576,-2.0576,-2.0576,-2.0576,-2.0576,-2.0576,-2.0576,-2.0576,-2.0576,-2.0576,-2.0576,-2.0576,-2.0684,-2.084,-2.0898,-2.0947,-2.0977,-2.0926,-2.9816,-2.9225,-2.9573,-2.9719,-2.9837,-3.0514,-3.0937,-3.114,-3.119,-3.119,-3.119,-3.119,-3.1021,-3.0734,-3.0362,-2.9871,-2.9732,-2.9365,-2.9123,-2.8592,-2.8471,-2.8264,-2.8,-2.768,-2.761,-2.7515,-2.7275,-2.6976,-2.6617,-2.6108,-2.5285,-2.4388,-2.3864,-2.4133,-2.4687,-2.5001,-2.5255,-2.539,-2.5854,-2.6243,-2.6179,-2.609,-2.6084,-2.5824,-2.5342,-2.4738,-2.435,-2.4002,-2.3649,-2.3233,-2.3125,-2.3125,-2.3125,-2.3125,-2.3125,-2.3125,-2.3125,-2.3125,-2.3125,-2.3125,-2.3125,-2.3125,-2.3125,-2.3125,-2.3125,-2.3125,-2.3125,-2.3125,-2.3125,-2.3078,-2.309,-2.3125,-2.3115,-2.3228,-2.3328,-2.3567,-2.353,-2.3192,-2.2918,-2.2103,-2.1594,-2.097,-2.0179,-1.9999,-1.9932,-2.0078,-2.0215,-2.0352,-2.0498,-2.0557,-2.0566,-2.0576,-2.0576,-2.0576,-2.0576,-2.0576,-2.0576,-2.0576,-2.0576,-2.0576,-2.0576,-2.0576,-2.0576,-2.0576,-2.0576,-2.0576,-2.0576,-2.0576,-2.0576,-2.0576,-2.0625,-2.0635,-2.0576,-2.0615,-2.0605,-2.947,-2.9402,-2.9106,-2.9013,-2.9096,-2.979,-3.048,-3.1157,-3.119,-3.1157,-3.1123,-3.1072,-3.07,-3.0142,-2.9973,-2.9533,-2.9042,-2.8904,-2.8798,-2.8763,-2.8378,-2.8255,-2.7983,-2.7655,-2.7323,-2.7145,-2.6886,-2.6437,-2.6348,-2.533,-2.4358,-2.3864,-2.367,-2.3789,-2.4044,-2.4328,-2.4522,-2.4777,-2.5211,-2.5525,-2.5563,-2.5634,-2.5712,-2.5515,-2.5098,-2.4654,-2.4233,-2.3856,-2.3436,-2.3144,-2.3088,-2.3113,-2.3125,-2.3125,-2.3125,-2.3125,-2.3125,-2.3125,-2.3125,-2.3125,-2.3125,-2.3125,-2.3125,-2.3125,-2.3125,-2.3125,-2.3125,-2.3125,-2.3125,-2.3125,-2.3125,-2.3125,-2.3138,-2.3103,-2.3103,-2.3178,-2.3178,-2.3022,-2.2821,-2.246,-2.2155,-2.1554,-2.0498,-2.0082,-1.9865,-1.9678,-1.9824,-1.9971,-2.0156,-2.0527,-2.0547,-2.0576,-2.0576,-2.0576,-2.0566,-2.0557,-2.0576,-2.0576,-2.0576,-2.0576,-2.0576,-2.0576,-2.0576,-2.0576,-2.0576,-2.0576,-2.0576,-2.0576,-2.0576,-2.0576,-2.0576,-2.0576,-2.0576,-2.0566,-2.0459,-2.9095,-2.8403,-2.8501,-2.8578,-2.8647,-2.9102,-3.0006,-3.1089,-3.1173,-3.0937,-3.0412,-3.0429,-2.9989,-2.9313,-2.8738,-2.8416,-2.8247,-2.8091,-2.7798,-2.7789,-2.8012,-2.7609,-2.7264,-2.6965,-2.6578,-2.6296,-2.5989,-2.5689,-2.5151,-2.4268,-2.3924,-2.3655,-2.3595,-2.3595,-2.367,-2.3804,-2.3909,-2.4118,-2.4642,-2.4822,-2.5076,-2.5242,-2.5368,-2.5331,-2.5178,-2.4789,-2.4293,-2.4041,-2.3649,-2.3218,-2.3149,-2.31,-2.3125,-2.3125,-2.3125,-2.3125,-2.3125,-2.3125,-2.3125,-2.3113,-2.3088,-2.305,-2.3027,-2.3125,-2.3125,-2.3125,-2.3125,-2.3125,-2.3125,-2.3125,-2.3125,-2.3125,-2.3125,-2.3125,-2.3125,-2.3125,-2.3125,-2.3055,-2.2825,-2.2515,-2.2277,-2.1613,-2.0651,-2.0211,-1.9992,-1.9578,-1.9394,-1.9541,-1.9766,-2.0117,-2.041,-2.043,-2.0391,-2.0332,-2.0498,-2.0615,-2.0557,-2.0576,-2.0576,-2.0576,-2.0576,-2.0576,-2.0576,-2.0576,-2.0576,-2.0576,-2.0576,-2.0576,-2.0576,-2.0576,-2.0576,-2.0576,-2.0566,-2.0566,-2.0245,-2.8712,-2.8136,-2.817,-2.8279,-2.8418,-2.8475,-2.9245,-3.0192,-3.0328,-3.004,-2.9702,-2.9668,-2.9228,-2.8552,-2.8078,-2.7723,-2.7385,-2.7402,-2.7362,-2.7668,-2.7498,-2.7494,-2.7073,-2.6536,-2.6305,-2.5895,-2.5393,-2.5076,-2.4492,-2.3984,-2.3595,-2.361,-2.3595,-2.3595,-2.3625,-2.364,-2.3625,-2.3774,-2.3984,-2.4163,-2.4477,-2.4866,-2.5121,-2.5209,-2.5174,-2.4767,-2.4205,-2.3961,-2.3326,-2.2734,-2.2501,-2.246,-2.2535,-2.2623,-2.2927,-2.2915,-2.2849,-2.2799,-2.2652,-2.2498,-2.2623,-2.2749,-2.2765,-2.2877,-2.3062,-2.3125,-2.3125,-2.3125,-2.3125,-2.3125,-2.3125,-2.3125,-2.3125,-2.3125,-2.3125,-2.3125,-2.3125,-2.3125,-2.2787,-2.2432,-2.1993,-2.1445,-2.0875,-2.0454,-1.9941,-1.9493,-1.9102,-1.9023,-1.9248,-1.9561,-1.9941,-2.0156,-2.0088,-2.0029,-2.0225,-2.0477,-2.04,-2.0439,-2.0576,-2.0576,-2.0576,-2.0576,-2.0576,-2.0576,-2.0576,-2.0576,-2.0576,-2.0576,-2.0576,-2.0547,-2.0527,-2.0557,-2.0557,-2.0566,-2.0089,-2.8464,-2.842,-2.8047,-2.804,-2.8243,-2.7896,-2.8146,-2.8791,-2.8805,-2.8876,-2.8873,-2.8907,-2.845,-2.7824,-2.7571,-2.7283,-2.7012,-2.6894,-2.7131,-2.7671,-2.7194,-2.7104,-2.7073,-2.6836,-2.5994,-2.5705,-2.5242,-2.4462,-2.4358,-2.3939,-2.3595,-2.3595,-2.3595,-2.3595,-2.3595,-2.3595,-2.3595,-2.364,-2.3684,-2.3774,-2.3864,-2.4193,-2.4522,-2.4491,-2.4417,-2.4161,-2.3607,-2.292,-2.2148,-2.1847,-2.1574,-2.165,-2.1782,-2.1995,-2.2472,-2.2598,-2.241,-2.2297,-2.2171,-2.1958,-2.197,-2.2108,-2.2259,-2.2523,-2.2723,-2.3002,-2.3065,-2.3125,-2.3125,-2.3125,-2.3125,-2.3125,-2.3125,-2.3125,-2.3125,-2.3125,-2.3125,-2.3125,-2.3017,-2.2653,-2.2432,-2.193,-2.1446,-2.1027,-2.0277,-1.9582,-1.9114,-1.8884,-1.8721,-1.9004,-1.9375,-1.9756,-1.9766,-1.9736,-1.9912,-2.0059,-2.0146,-2.0244,-2.0391,-2.0566,-2.0557,-2.0557,-2.0576,-2.0576,-2.0576,-2.0576,-2.0576,-2.0566,-2.0508,-2.041,-2.042,-2.0585,-2.0527,-2.0508,-2.0001,-2.8863,-2.8773,-2.8174,-2.7789,-2.7532,-2.7146,-2.708,-2.7232,-2.7232,-2.7621,-2.801,-2.8044,-2.7723,-2.7131,-2.7063,-2.6877,-2.6776,-2.6708,-2.6793,-2.6979,-2.6823,-2.6726,-2.6537,-2.6124,-2.5462,-2.4771,-2.4225,-2.3953,-2.3879,-2.3699,-2.3595,-2.3595,-2.3595,-2.3595,-2.3595,-2.3595,-2.3595,-2.3595,-2.3595,-2.3595,-2.367,-2.367,-2.3805,-2.385,-2.3776,-2.3805,-2.3339,-2.2923,-2.2574,-2.2342,-2.1774,-2.1567,-2.1518,-2.1619,-2.1732,-2.1832,-2.182,-2.1707,-2.1606,-2.1468,-2.1468,-2.1568,-2.1757,-2.2058,-2.241,-2.2802,-2.3053,-2.304,-2.3125,-2.3125,-2.3125,-2.3125,-2.3125,-2.3125,-2.3125,-2.3125,-2.3125,-2.3125,-2.3125,-2.3005,-2.2884,-2.2506,-2.2002,-2.1302,-2.059,-1.9977,-1.9428,-1.9018,-1.8409,-1.8418,-1.8809,-1.915,-1.9365,-1.9424,-1.9609,-1.9658,-1.9707,-1.9863,-2.001,-2.0234,-2.0469,-2.0381,-2.0273,-2.0488,-2.0576,-2.041,-2.0352,-2.0527,-2.0459,-2.0225,-2.0195,-2.0225,-2.0293,-2.0303,-1.9809,-2.8975,-2.8929,-2.836,-2.7908,-2.7547,-2.7147,-2.6873,-2.6725,-2.6708,-2.6928,-2.7266,-2.7283,-2.708,-2.6708,-2.6708,-2.6708,-2.6708,-2.6708,-2.6742,-2.6708,-2.6657,-2.6572,-2.6175,-2.5762,-2.5637,-2.4989,-2.4266,-2.3937,-2.3638,-2.3595,-2.3595,-2.3595,-2.3595,-2.3595,-2.3595,-2.3595,-2.3595,-2.3595,-2.3595,-2.3595,-2.3595,-2.3595,-2.3595,-2.3595,-2.3595,-2.3508,-2.3142,-2.2729,-2.2359,-2.1785,-2.1055,-2.0974,-2.0966,-2.1104,-2.1267,-2.1368,-2.133,-2.1171,-2.1066,-2.0978,-2.0941,-2.1029,-2.1129,-2.138,-2.182,-2.2259,-2.2652,-2.2761,-2.3075,-2.3125,-2.3125,-2.3125,-2.3125,-2.3125,-2.3125,-2.3125,-2.3125,-2.3125,-2.3125,-2.3065,-2.3005,-2.2884,-2.2249,-2.1365,-2.0655,-2.0139,-1.9704,-1.8931,-1.8337,-1.8008,-1.835,-1.8584,-1.8818,-1.9131,-1.9385,-1.9326,-1.9219,-1.9394,-1.9619,-1.9736,-1.9873,-1.9922,-1.998,-2.0068,-2.0068,-1.9932,-1.9951,-2.0117,-2.001,-1.9717,-1.9785,-1.9912,-1.998,-2.0078,-1.988,-2.8975,-2.8952,-2.8565,-2.8219,-2.7908,-2.747,-2.7115,-2.6825,-2.6725,-2.6708,-2.6759,-2.6759,-2.6708,-2.6708,-2.6708,-2.6708,-2.6708,-2.6708,-2.6708,-2.6708,-2.6708,-2.6624,-2.647,-2.6191,-2.5762,-2.5297,-2.4657,-2.4074,-2.3595,-2.3595,-2.3595,-2.3595,-2.3595,-2.3595,-2.3595,-2.3595,-2.3595,-2.3595,-2.3595,-2.3595,-2.3595,-2.3595,-2.3595,-2.3595,-2.3551,-2.3334,-2.2979,-2.2466,-2.1908,-2.1229,-2.0514,-2.0357,-2.0413,-2.0564,-2.0752,-2.0853,-2.0715,-2.0577,-2.0489,-2.0238,-2.0313,-2.0467,-2.0567,-2.0844,-2.123,-2.1606,-2.2058,-2.2435,-2.2749,-2.2975,-2.2975,-2.31,-2.31,-2.3125,-2.3125,-2.3125,-2.3125,-2.3125,-2.3125,-2.3125,-2.3065,-2.3078,-2.2494,-2.1542,-2.1037,-2.0462,-1.9694,-1.8854,-1.8212,-1.8076,-1.8154,-1.8242,-1.834,-1.8672,-1.8984,-1.8955,-1.876,-1.8994,-1.9199,-1.9238,-1.9316,-1.9512,-1.958,-1.9453,-1.9424,-1.9473,-1.9463,-1.9561,-1.9394,-1.9238,-1.9463,-1.9619,-1.957,-1.9707,-2.0068,-2.8975,-2.897,-2.8583,-2.835,-2.8174,-2.7584,-2.7272,-2.7147,-2.6841,-2.6708,-2.6708,-2.6708,-2.6708,-2.6708,-2.6708,-2.6708,-2.6708,-2.6708,-2.6708,-2.6708,-2.6708,-2.6708,-2.659,-2.6297,-2.554,-2.5028,-2.4632,-2.4158,-2.3681,-2.3595,-2.3595,-2.3595,-2.3595,-2.3595,-2.3595,-2.3595,-2.3595,-2.3595,-2.3595,-2.3595,-2.3595,-2.3595,-2.3595,-2.3595,-2.3595,-2.3508,-2.3231,-2.2377,-2.1899,-2.128,-2.0534,-2.0144,-2.0039,-2.0127,-2.02,-2.03,-2.015,-2.0125,-1.9987,-1.9911,-2.0037,-2.0024,-2.015,-2.0288,-2.0627,-2.084,-2.1255,-2.1644,-2.197,-2.2347,-2.2485,-2.2899,-2.3025,-2.31,-2.3125,-2.3125,-2.3125,-2.3125,-2.3125,-2.3125,-2.3065,-2.3078,-2.3017,-2.231,-2.199,-2.1353,-2.0462,-1.9628,-1.8988,-1.8529,-1.8076,-1.8066,-1.8134,-1.8018,-1.8242,-1.8389,-1.835,-1.8594,-1.8789,-1.8838,-1.8984,-1.9248,-1.9258,-1.9033,-1.9111,-1.9219,-1.9189,-1.9014,-1.8965,-1.8896,-1.917,-1.9316,-1.9248,-1.9326,-1.9658]},{"header":{"parameterUnit":"m.s-1","parameterCategory":1,"la1":31.0,"la2":29.5877,"lo1":-88.7671,"lo2":-86.6584,"dy":0.0162,"dx":0.0185,"nx":115,"ny":88,"refTime":"2024-07-12T12:00:00:Z","depth":0,"parameterNumber":3,"parameterNumberName":"V-component_of_WINDS"},"data":[0.0,0.0,0.0,0.0,0.0,0.0,0.0,0.0,0.0,0.0,0.0,0.0,0.0,0.0,0.0,0.0,0.0,0.0,0.0,0.0,0.0,0.0,0.0,0.0,0.0,0.0,0.0,0.0,0.0,0.0,0.0,0.0,0.0,0.0,0.0,0.0,0.0,0.0,0.0,0.0,0.0,0.0,0.0,0.0,0.0,0.0,0.0,0.0,0.0,0.0,0.0,0.0,0.0,0.0,0.0,0.0,0.0,0.0,0.0,0.0,0.0,0.0,0.0,0.0,0.0,0.0,0.0,0.0,0.0,0.0,0.0,0.0,0.0,0.0,0.0,0.0,0.0,0.0,0.0,0.0,0.0,0.0,0.0,0.0,0.0,0.0,0.0,0.0,0.0,0.0,0.0,0.0,0.0,0.0,0.0,0.0,0.0,0.0,0.0,0.0,0.0,0.0,0.0,0.0,0.0,0.0,0.0,0.0,0.0,0.0,0.0,0.0,0.0,0.0,0.0,0.0,0.0,0.0,0.0,0.0,0.0,0.0,0.0,0.0,0.0,0.0,0.0,0.0,0.0,0.0,0.0,0.0,0.0,0.0,0.0,0.0,0.0,0.0,0.0,0.0,0.0,0.0,0.0,0.0,0.0,0.0,0.0,0.0,0.0,0.0,0.0,0.0,0.0,0.0,0.0,0.0,0.0,0.0,0.0,0.0,0.0,0.0,0.0,0.0,0.0,0.0,0.0,0.0,0.0,0.0,0.0,0.0,0.0,0.0,0.0,0.0,0.0,0.0,0.0,0.0,0.0,0.0,0.0,0.0,0.0,0.0,0.0,0.0,0.0,0.0,0.0,0.0,0.0,0.0,0.0,0.0,0.0,0.0,0.0,0.0,0.0,0.0,0.0,0.0,0.0,0.0,0.0,0.0,0.0,0.0,0.0,0.0,0.0,0.0,0.0,0.0,0.0,0.0,0.0,0.0,0.0,0.0,0.0,0.0,0.0,0.0,0.0,0.0,0.0,0.0,0.0,0.0,0.0,0.0,0.0,0.0,0.0,0.0,0.0,0.0,0.0,0.0,0.0,0.0,0.0,0.0,0.0,0.0,0.0,0.0,0.0,0.0,0.0,0.0,0.0,0.0,0.0,0.0,0.0,0.0,0.0,0.0,0.0,0.0,0.0,0.0,0.0,0.0,0.0,0.0,0.0,0.0,0.0,0.0,0.0,0.0,0.0,0.0,0.0,0.0,0.0,0.0,0.0,0.0,0.0,0.0,0.0,0.0,0.0,0.0,0.0,0.0,0.0,0.0,0.0,0.0,0.0,0.0,0.0,0.0,0.0,0.0,0.0,0.0,0.0,0.0,0.0,0.0,0.0,0.0,0.0,0.0,0.0,0.0,0.0,0.0,0.0,0.0,0.0,0.0,0.0,0.0,0.0,0.0,0.0,0.0,0.0,0.0,0.0,0.0,0.0,0.0,0.0,0.0,0.0,0.0,0.0,0.0,0.0,0.0,0.0,0.0,0.0,0.0,0.0,0.0,0.0,0.0,0.0,0.0,0.0,0.0,0.0,0.0,0.0,0.0,0.0,0.0,0.0,0.0,0.0,0.0,0.0,0.0,0.0,0.0,0.0,0.0,0.0,0.0,0.0,0.0,0.0,0.0,0.0,0.0,0.0,0.0,0.0,0.0,0.0,0.0,0.0,0.0,0.0,0.0,0.0,0.0,0.0,0.0,0.0,0.0,0.0,0.0,0.0,0.0,0.0,0.0,0.0,0.0,0.0,0.0,0.0,0.0,0.0,0.0,0.0,0.0,0.0,0.0,0.0,0.0,0.0,0.0,0.0,0.0,0.0,0.0,0.0,0.0,0.0,0.0,0.0,0.0,0.0,0.0,0.0,0.0,0.0,0.0,0.0,0.0,0.0,0.0,0.0,0.0,0.0,0.0,0.0,0.0,0.0,0.0,0.0,0.0,0.0,0.0,0.0,0.0,0.0,0.0,0.0,0.0,0.0,0.0,0.0,0.0,0.0,0.0,0.0,0.0,0.0,0.0,0.0,0.0,0.0,0.0,0.0,0.0,0.0,0.0,0.0,0.0,0.0,0.0,0.0,0.0,0.0,0.0,0.0,0.0,0.0,0.0,0.0,0.0,0.0,0.0,0.0,0.0,0.0,0.0,0.0,0.0,0.0,0.0,0.0,0.0,0.0,0.0,0.0,0.0,0.0,0.0,0.0,0.0,0.0,0.0,0.0,0.0,0.0,0.0,0.0,0.0,0.0,0.0,0.0,0.0,0.0,0.0,0.0,0.0,0.0,0.0,0.0,0.0,0.0,0.0,0.0,0.0,0.0,0.0,0.0,0.0,0.0,0.0,0.0,0.0,0.0,0.0,0.0,0.0,0.0,0.0,0.0,0.0,0.0,0.0,0.0,0.0,0.0,0.0,0.0,0.0,0.0,0.0,0.0,0.0,0.0,0.0,0.0,0.0,0.0,0.0,0.0,0.0,0.0,0.0,0.0,0.0,0.0,0.0,0.0,0.0,0.0,0.0,0.0,0.0,0.0,0.0,0.0,0.0,0.0,0.0,0.0,0.0,0.0,0.0,0.0,0.0,0.0,0.0,0.0,0.0,0.0,0.0,0.0,0.0,0.0,0.0,0.0,0.0,0.0,0.0,0.0,0.0,0.0,0.0,0.0,0.0,0.0,0.0,0.0,0.0,0.0,0.0,0.0,0.0,0.0,0.0,0.0,0.0,0.0,0.0,0.0,0.0,0.0,0.0,0.0,0.0,0.0,0.0,0.0,0.0,0.0,0.0,0.0,0.0,0.0,0.0,0.0,0.0,0.0,0.0,0.0,0.0,0.0,0.0,0.0,0.0,0.0,0.0,0.0,0.0,0.0,0.0,0.0,0.0,0.0,0.0,0.0,0.0,0.0,0.0,0.0,0.0,0.0,0.0,0.0,0.0,0.0,0.0,0.0,0.0,0.0,0.0,0.0,0.0,0.0,0.0,0.0,0.0,0.0,0.0,0.0,0.0,0.0,0.0,0.0,0.0,0.0,0.0,0.0,0.0,0.0,0.0,0.0,0.0,0.0,0.0,0.0,0.0,0.0,0.0,0.0,0.0,0.0,0.0,0.0,0.0,0.0,0.0,0.0,0.0,0.0,0.0,0.0,0.0,0.0,0.0,0.0,0.0,0.0,0.0,0.0,0.0,0.0,0.0,0.0,0.0,0.0,0.0,0.0,0.0,0.0,0.0,0.0,0.0,0.0,0.0,0.0,0.0,0.0,0.0,0.0,0.0,0.0,0.0,0.0,0.0,0.0,0.0,0.0,0.0,0.0,0.0,0.0,0.0,0.0,0.0,0.0,0.0,0.0,0.0,0.0,0.0,0.0,0.0,0.0,0.0,0.0,0.0,0.0,0.0,0.0,0.0,0.0,0.0,0.0,0.0,0.0,0.0,0.0,0.0,0.0,0.0,0.0,0.0,0.0,0.0,0.0,0.0,0.0,0.0,0.0,0.0,0.0,0.0,0.0,0.0,0.0,0.0,0.0,0.0,0.0,0.0,0.0,0.0,0.0,0.0,0.0,0.0,0.0,0.0,0.0,0.0,0.0,0.0,0.0,0.0,0.0,0.0,0.0,0.0,0.0,0.0,0.0,0.0,0.0,0.0,0.0,0.0,0.0,0.0,0.0,0.0,0.0,0.0,0.0,0.0,0.0,0.0,0.0,0.0,0.0,0.0,0.0,0.0,0.0,0.0,0.0,0.0,0.0,0.0,0.0,0.0,0.0,0.0,0.0,0.0,0.0,0.0,0.0,0.0,0.0,0.0,0.0,0.0,0.0,0.0,0.0,0.0,0.0,0.0,0.0,0.0,0.0,0.0,0.0,0.0,0.0,0.0,0.0,0.0,0.0,0.0,0.0,0.0,0.0,0.0,0.0,0.0,0.0,0.0,0.0,0.0,0.0,0.0,0.0,0.0,0.0,0.0,0.0,0.0,0.0,0.0,0.0,0.0,0.0,0.0,0.0,0.0,0.0,0.0,0.0,0.0,0.0,0.0,0.0,0.0,0.0,0.0,0.0,0.0,0.0,0.0,0.0,0.0,0.0,0.0,0.0,0.0,0.0,0.0,0.0,0.0,0.0,0.0,0.0,0.0,0.0,0.0,0.0,0.0,0.0,0.0,0.0,0.0,0.0,0.0,0.0,0.0,0.0,0.0,0.0,0.0,0.0,0.0,0.0,0.0,0.0,0.0,0.0,0.0,0.0,0.0,0.0,0.0,-1.6236,0.0,0.0,0.0,0.0,0.0,0.0,0.0,0.0,0.0,0.0,0.0,0.0,0.0,0.0,0.0,0.0,0.0,0.0,0.0,0.0,0.0,0.0,0.0,0.0,0.0,0.0,0.0,0.0,0.0,0.0,0.0,0.0,0.0,0.0,0.0,0.0,0.0,0.0,0.0,0.0,0.0,0.0,0.0,0.0,0.0,0.0,0.0,0.0,0.0,0.0,0.0,0.0,0.0,0.0,0.0,0.0,0.0,0.0,0.0,0.0,0.0,0.0,0.0,0.0,0.0,0.0,0.0,0.0,0.0,0.0,0.0,0.0,0.0,0.0,0.0,0.0,0.0,0.0,0.0,0.0,0.0,0.0,0.0,0.0,0.0,0.0,0.0,0.0,0.0,0.0,0.0,0.0,0.0,0.0,0.0,0.0,0.0,0.0,0.0,0.0,0.0,0.0,0.0,0.0,0.0,0.0,0.0,0.0,0.0,0.0,-1.9016,-1.9645,-1.8219,-1.7223,-1.6807,0.0,0.0,0.0,0.0,0.0,0.0,0.0,0.0,0.0,0.0,0.0,0.0,0.0,0.0,0.0,0.0,0.0,0.0,0.0,0.0,0.0,0.0,0.0,0.0,0.0,0.0,0.0,0.0,0.0,0.0,0.0,0.0,0.0,0.0,0.0,0.0,0.0,0.0,0.0,0.0,0.0,0.0,0.0,0.0,0.0,0.0,0.0,0.0,0.0,0.0,0.0,0.0,0.0,0.0,0.0,0.0,0.0,0.0,0.0,0.0,0.0,0.0,0.0,0.0,0.0,0.0,0.0,0.0,0.0,0.0,0.0,0.0,0.0,0.0,0.0,0.0,0.0,0.0,0.0,0.0,0.0,0.0,0.0,0.0,0.0,0.0,0.0,0.0,0.0,0.0,0.0,0.0,0.0,0.0,0.0,0.0,0.0,0.0,0.0,0.0,0.0,0.0,0.0,0.0,0.0,0.0,0.0,0.0,0.0,0.0,0.0,0.0,-1.8942,-1.8037,-1.7325,0.0,0.0,0.0,0.0,0.0,0.0,0.0,0.0,0.0,0.0,0.0,0.0,0.0,0.0,0.0,0.0,0.0,0.0,0.0,0.0,0.0,0.0,0.0,0.0,0.0,0.0,0.0,0.0,0.0,0.0,0.0,0.0,0.0,0.0,0.0,0.0,0.0,0.0,0.0,0.0,0.0,0.0,0.0,0.0,0.0,0.0,0.0,0.0,0.0,0.0,0.0,0.0,0.0,0.0,0.0,0.0,0.0,0.0,0.0,0.0,0.0,0.0,0.0,0.0,0.0,0.0,0.0,0.0,0.0,0.0,0.0,0.0,0.0,0.0,0.0,0.0,0.0,0.0,0.0,0.0,0.0,0.0,0.0,0.0,0.0,0.0,0.0,0.0,0.0,0.0,0.0,0.0,0.0,0.0,0.0,0.0,0.0,0.0,0.0,0.0,0.0,0.0,0.0,0.0,0.0,0.0,0.0,0.0,0.0,0.0,-1.8668,-2.0543,-2.0483,0.0,-1.815,0.0,0.0,0.0,0.0,0.0,0.0,0.0,0.0,0.0,0.0,0.0,0.0,0.0,0.0,0.0,0.0,0.0,0.0,0.0,0.0,0.0,0.0,0.0,0.0,0.0,0.0,0.0,0.0,0.0,0.0,0.0,0.0,0.0,0.0,0.0,0.0,0.0,0.0,0.0,0.0,0.0,0.0,0.0,0.0,0.0,0.0,0.0,0.0,0.0,0.0,0.0,0.0,0.0,0.0,0.0,0.0,0.0,0.0,0.0,0.0,0.0,0.0,0.0,0.0,0.0,0.0,0.0,0.0,0.0,0.0,0.0,0.0,0.0,0.0,0.0,0.0,0.0,0.0,0.0,0.0,0.0,0.0,0.0,0.0,0.0,0.0,0.0,0.0,0.0,0.0,0.0,0.0,0.0,0.0,0.0,0.0,0.0,0.0,0.0,0.0,0.0,0.0,0.0,0.0,0.0,0.0,0.0,0.0,0.0,0.0,0.0,-2.0692,-2.0318,-1.9588,0.0,0.0,0.0,0.0,0.0,0.0,0.0,0.0,0.0,0.0,0.0,0.0,0.0,0.0,0.0,0.0,0.0,0.0,0.0,0.0,0.0,0.0,0.0,0.0,0.0,0.0,0.0,0.0,0.0,0.0,0.0,0.0,0.0,0.0,0.0,0.0,0.0,0.0,0.0,0.0,0.0,0.0,0.0,0.0,0.0,0.0,0.0,0.0,0.0,0.0,0.0,0.0,0.0,0.0,0.0,0.0,0.0,0.0,0.0,0.0,0.0,0.0,0.0,0.0,0.0,0.0,0.0,0.0,0.0,0.0,0.0,0.0,0.0,0.0,0.0,0.0,0.0,0.0,0.0,0.0,0.0,0.0,0.0,0.0,0.0,0.0,0.0,0.0,0.0,0.0,0.0,0.0,0.0,0.0,0.0,0.0,0.0,0.0,0.0,0.0,0.0,0.0,0.0,0.0,0.0,0.0,0.0,0.0,0.0,0.0,-1.9151,0.0,-2.1156,-2.0602,-1.9675,-1.8478,0.0,0.0,0.0,0.0,0.0,0.0,0.0,0.0,0.0,0.0,0.0,0.0,0.0,0.0,0.0,0.0,0.0,0.0,0.0,0.0,0.0,0.0,0.0,0.0,0.0,0.0,0.0,0.0,0.0,0.0,0.0,0.0,0.0,0.0,0.0,0.0,0.0,0.0,0.0,0.0,0.0,0.0,0.0,0.0,0.0,0.0,0.0,0.0,0.0,0.0,0.0,0.0,0.0,0.0,0.0,0.0,0.0,0.0,0.0,0.0,0.0,0.0,0.0,0.0,0.0,0.0,0.0,0.0,0.0,0.0,0.0,0.0,0.0,0.0,0.0,0.0,0.0,0.0,0.0,0.0,0.0,0.0,0.0,0.0,0.0,0.0,0.0,0.0,0.0,0.0,0.0,0.0,0.0,0.0,0.0,0.0,0.0,0.0,0.0,0.0,0.0,0.0,0.0,0.0,0.0,0.0,0.0,0.0,0.0,-2.0258,-2.0617,-2.2517,-2.1949,-2.0408,0.0,0.0,0.0,0.0,0.0,0.0,0.0,0.0,0.0,0.0,0.0,0.0,0.0,0.0,0.0,0.0,0.0,0.0,0.0,0.0,0.0,0.0,0.0,0.0,0.0,0.0,0.0,0.0,0.0,0.0,0.0,0.0,0.0,0.0,0.0,0.0,0.0,0.0,0.0,0.0,0.0,0.0,0.0,0.0,0.0,0.0,0.0,0.0,0.0,0.0,0.0,0.0,0.0,0.0,0.0,0.0,0.0,0.0,0.0,0.0,0.0,0.0,0.0,0.0,0.0,0.0,0.0,0.0,0.0,0.0,0.0,0.0,0.0,0.0,0.0,0.0,0.0,0.0,0.0,0.0,0.0,0.0,0.0,0.0,0.0,0.0,0.0,0.0,0.0,0.0,0.0,0.0,0.0,0.0,0.0,0.0,0.0,0.0,0.0,0.0,0.0,0.0,0.0,0.0,0.0,0.0,0.0,0.0,0.0,-1.7882,-1.8657,-2.0827,-2.4268,-2.1485,-1.9735,0.0,0.0,0.0,0.0,0.0,0.0,0.0,0.0,0.0,0.0,0.0,0.0,0.0,0.0,0.0,0.0,0.0,0.0,0.0,0.0,0.0,0.0,0.0,0.0,0.0,0.0,0.0,0.0,0.0,0.0,0.0,0.0,0.0,0.0,0.0,0.0,0.0,0.0,0.0,0.0,0.0,0.0,0.0,0.0,0.0,0.0,0.0,0.0,0.0,0.0,0.0,0.0,0.0,0.0,0.0,0.0,0.0,0.0,0.0,0.0,0.0,0.0,0.0,0.0,0.0,0.0,0.0,0.0,0.0,0.0,0.0,0.0,0.0,0.0,0.0,0.0,0.0,0.0,0.0,0.0,0.0,0.0,0.0,0.0,0.0,0.0,0.0,0.0,0.0,0.0,0.0,0.0,0.0,0.0,0.0,0.0,0.0,0.0,0.0,0.0,0.0,0.0,0.0,0.0,0.0,0.0,0.0,0.0,0.0,-1.7717,0.0,-2.1934,0.0,-2.144,-1.951,0.0,0.0,0.0,0.0,0.0,0.0,0.0,0.0,0.0,0.0,0.0,0.0,0.0,0.0,0.0,0.0,0.0,0.0,0.0,0.0,0.0,0.0,0.0,0.0,0.0,0.0,0.0,0.0,0.0,0.0,0.0,0.0,0.0,0.0,0.0,0.0,0.0,0.0,0.0,0.0,0.0,0.0,0.0,0.0,0.0,0.0,0.0,0.0,0.0,0.0,0.0,0.0,0.0,0.0,0.0,0.0,0.0,0.0,0.0,0.0,0.0,0.0,0.0,0.0,0.0,0.0,0.0,0.0,0.0,0.0,0.0,0.0,0.0,0.0,0.0,0.0,0.0,0.0,0.0,0.0,0.0,0.0,0.0,0.0,0.0,0.0,0.0,0.0,0.0,0.0,0.0,0.0,0.0,0.0,0.0,0.0,0.0,0.0,0.0,0.0,0.0,0.0,0.0,0.0,0.0,0.0,0.0,0.0,-1.7747,-2.1485,-2.3415,-2.3804,-2.2787,-2.1979,-1.9809,0.0,0.0,0.0,0.0,0.0,0.0,0.0,0.0,0.0,0.0,0.0,0.0,0.0,0.0,0.0,0.0,0.0,0.0,0.0,0.0,0.0,0.0,0.0,0.0,0.0,0.0,0.0,0.0,0.0,0.0,0.0,0.0,0.0,0.0,0.0,0.0,0.0,0.0,0.0,0.0,0.0,0.0,0.0,0.0,0.0,0.0,0.0,0.0,0.0,0.0,0.0,0.0,0.0,0.0,0.0,0.0,0.0,0.0,0.0,0.0,0.0,0.0,0.0,0.0,0.0,0.0,0.0,0.0,0.0,0.0,0.0,0.0,0.0,0.0,0.0,0.0,0.0,0.0,0.0,0.0,0.0,0.0,0.0,0.0,0.0,0.0,0.0,0.0,0.0,0.0,0.0,0.0,0.0,0.0,0.0,0.0,0.0,0.0,0.0,0.0,0.0,0.0,0.0,0.0,0.0,0.0,0.0,0.0,0.0,-2.0976,-2.1605,-2.3041,-2.5121,-2.1635,-1.9705,0.0,0.0,0.0,0.0,0.0,0.0,0.0,0.0,0.0,0.0,0.0,0.0,0.0,0.0,0.0,0.0,0.0,0.0,0.0,0.0,0.0,0.0,0.0,0.0,0.0,0.0,0.0,0.0,0.0,0.0,0.0,0.0,0.0,0.0,0.0,0.0,0.0,0.0,0.0,0.0,0.0,0.0,0.0,0.0,0.0,0.0,0.0,0.0,0.0,0.0,0.0,0.0,0.0,0.0,0.0,0.0,0.0,0.0,0.0,0.0,0.0,0.0,0.0,0.0,0.0,0.0,0.0,0.0,0.0,0.0,0.0,0.0,0.0,0.0,0.0,0.0,0.0,0.0,0.0,0.0,0.0,0.0,0.0,0.0,0.0,0.0,0.0,0.0,0.0,0.0,0.0,0.0,0.0,0.0,0.0,0.0,0.0,0.0,0.0,0.0,0.0,0.0,0.0,0.0,0.0,0.0,0.0,0.0,0.0,-2.2158,-2.2652,-2.3969,-2.6183,-2.2293,-2.0303,-2.0513,0.0,0.0,0.0,0.0,0.0,0.0,0.0,0.0,0.0,0.0,0.0,0.0,0.0,0.0,0.0,0.0,0.0,0.0,0.0,0.0,0.0,0.0,0.0,0.0,0.0,0.0,0.0,0.0,0.0,0.0,0.0,0.0,0.0,0.0,0.0,0.0,0.0,0.0,0.0,0.0,0.0,0.0,0.0,0.0,0.0,0.0,0.0,0.0,0.0,0.0,0.0,0.0,0.0,0.0,0.0,0.0,0.0,0.0,0.0,0.0,0.0,0.0,0.0,0.0,0.0,0.0,0.0,0.0,0.0,0.0,0.0,0.0,0.0,0.0,0.0,0.0,0.0,0.0,0.0,0.0,0.0,0.0,0.0,0.0,0.0,0.0,0.0,0.0,0.0,0.0,0.0,0.0,0.0,0.0,0.0,0.0,0.0,0.0,0.0,0.0,0.0,0.0,0.0,0.0,0.0,0.0,0.0,0.0,-2.4612,-2.6004,-2.6408,-2.5884,-2.3819,-2.1584,0.0,0.0,0.0,0.0,0.0,0.0,0.0,0.0,0.0,0.0,0.0,0.0,0.0,0.0,0.0,0.0,0.0,0.0,0.0,0.0,0.0,0.0,0.0,0.0,0.0,0.0,0.0,0.0,0.0,0.0,0.0,0.0,0.0,0.0,0.0,0.0,0.0,0.0,0.0,0.0,0.0,0.0,0.0,0.0,0.0,0.0,0.0,0.0,0.0,0.0,0.0,0.0,0.0,0.0,0.0,0.0,0.0,0.0,0.0,0.0,0.0,0.0,0.0,0.0,0.0,0.0,0.0,0.0,0.0,0.0,0.0,0.0,0.0,0.0,0.0,0.0,0.0,0.0,0.0,0.0,0.0,0.0,0.0,0.0,0.0,0.0,0.0,0.0,0.0,0.0,0.0,0.0,0.0,0.0,0.0,0.0,0.0,0.0,0.0,0.0,0.0,0.0,0.0,0.0,0.0,0.0,0.0,0.0,0.0,-2.533,-2.7126,-2.8218,-2.8442,-2.5166,-2.3041,0.0,0.0,0.0,0.0,0.0,0.0,0.0,0.0,0.0,0.0,0.0,0.0,0.0,0.0,0.0,0.0,0.0,0.0,0.0,0.0,0.0,0.0,0.0,0.0,0.0,0.0,0.0,0.0,0.0,0.0,0.0,0.0,0.0,0.0,0.0,0.0,0.0,0.0,0.0,0.0,0.0,0.0,0.0,0.0,0.0,0.0,0.0,0.0,0.0,0.0,0.0,0.0,0.0,0.0,0.0,0.0,0.0,0.0,0.0,0.0,0.0,0.0,0.0,0.0,0.0,0.0,0.0,0.0,0.0,0.0,0.0,0.0,0.0,0.0,0.0,0.0,0.0,0.0,0.0,0.0,0.0,0.0,0.0,0.0,0.0,0.0,0.0,0.0,0.0,0.0,0.0,0.0,0.0,0.0,0.0,0.0,0.0,0.0,0.0,0.0,0.0,0.0,0.0,0.0,0.0,0.0,0.0,0.0,-2.4313,-2.6019,-2.8233,-2.9594,-2.9953,-2.6931,-2.4477,0.0,0.0,0.0,0.0,0.0,0.0,0.0,0.0,0.0,0.0,0.0,0.0,0.0,0.0,0.0,0.0,0.0,0.0,0.0,0.0,0.0,0.0,0.0,0.0,0.0,0.0,0.0,0.0,0.0,0.0,0.0,0.0,0.0,0.0,0.0,0.0,0.0,0.0,0.0,0.0,0.0,0.0,0.0,0.0,0.0,0.0,0.0,0.0,0.0,0.0,0.0,0.0,0.0,0.0,0.0,0.0,0.0,0.0,0.0,0.0,0.0,0.0,0.0,0.0,0.0,0.0,0.0,0.0,0.0,0.0,0.0,0.0,0.0,0.0,0.0,0.0,0.0,0.0,0.0,0.0,0.0,0.0,0.0,0.0,0.0,0.0,0.0,0.0,0.0,0.0,0.0,0.0,0.0,0.0,0.0,0.0,0.0,0.0,0.0,0.0,0.0,0.0,0.0,0.0,0.0,0.0,0.0,0.0,-2.5375,-2.6692,-2.925,-3.0552,-3.0357,-2.8502,-2.5764,0.0,0.0,0.0,0.0,0.0,0.0,0.0,0.0,0.0,0.0,0.0,0.0,0.0,0.0,0.0,0.0,0.0,0.0,0.0,0.0,0.0,0.0,0.0,0.0,0.0,0.0,0.0,0.0,0.0,0.0,0.0,0.0,0.0,0.0,0.0,0.0,0.0,0.0,0.0,0.0,0.0,0.0,0.0,0.0,0.0,0.0,0.0,0.0,0.0,0.0,0.0,0.0,0.0,0.0,0.0,0.0,0.0,0.0,0.0,0.0,0.0,0.0,0.0,0.0,0.0,0.0,0.0,0.0,0.0,0.0,0.0,0.0,0.0,0.0,0.0,0.0,0.0,0.0,0.0,0.0,0.0,0.0,0.0,0.0,0.0,0.0,0.0,0.0,0.0,0.0,0.0,0.0,0.0,0.0,0.0,0.0,0.0,0.0,0.0,0.0,0.0,0.0,0.0,0.0,0.0,0.0,0.0,0.0,-2.6048,-2.7415,-2.9953,-3.0821,-2.9804,-2.7844,-2.5914,0.0,0.0,0.0,0.0,0.0,0.0,0.0,0.0,0.0,0.0,0.0,0.0,0.0,0.0,0.0,0.0,0.0,0.0,0.0,0.0,0.0,0.0,0.0,0.0,0.0,0.0,0.0,0.0,0.0,0.0,0.0,0.0,0.0,0.0,0.0,0.0,0.0,0.0,0.0,0.0,0.0,0.0,0.0,0.0,0.0,0.0,0.0,0.0,-2.5933,0.0,0.0,0.0,0.0,0.0,0.0,0.0,0.0,0.0,0.0,0.0,0.0,0.0,0.0,0.0,0.0,0.0,0.0,0.0,0.0,0.0,0.0,0.0,0.0,0.0,0.0,0.0,0.0,0.0,0.0,0.0,0.0,0.0,0.0,0.0,0.0,0.0,0.0,0.0,0.0,0.0,0.0,0.0,0.0,0.0,0.0,0.0,0.0,0.0,0.0,0.0,0.0,0.0,0.0,0.0,0.0,0.0,0.0,0.0,-2.6722,-2.8053,-3.0013,-3.0731,-2.9968,-2.7799,-2.5824,0.0,0.0,0.0,0.0,0.0,0.0,0.0,0.0,0.0,0.0,0.0,0.0,0.0,0.0,0.0,0.0,0.0,0.0,0.0,0.0,0.0,0.0,0.0,0.0,0.0,0.0,0.0,0.0,0.0,0.0,0.0,0.0,0.0,0.0,0.0,0.0,0.0,0.0,0.0,0.0,0.0,0.0,0.0,0.0,0.0,0.0,0.0,0.0,0.0,0.0,0.0,0.0,0.0,0.0,0.0,0.0,0.0,0.0,0.0,0.0,0.0,0.0,0.0,0.0,0.0,0.0,0.0,0.0,0.0,0.0,0.0,0.0,0.0,0.0,0.0,0.0,0.0,0.0,0.0,0.0,0.0,0.0,0.0,0.0,0.0,0.0,0.0,0.0,0.0,0.0,0.0,0.0,0.0,0.0,0.0,0.0,0.0,0.0,0.0,0.0,0.0,0.0,0.0,0.0,0.0,0.0,0.0,-2.4625,-2.6946,-2.8562,-2.9759,-3.0313,-3.0193,-2.7964,-2.5749,-2.3684,0.0,0.0,0.0,0.0,0.0,0.0,0.0,0.0,0.0,0.0,0.0,0.0,0.0,0.0,0.0,0.0,0.0,0.0,0.0,0.0,0.0,0.0,0.0,0.0,0.0,0.0,0.0,0.0,0.0,0.0,0.0,0.0,0.0,0.0,0.0,0.0,0.0,0.0,-2.378,-2.5161,0.0,0.0,0.0,0.0,0.0,0.0,0.0,0.0,-2.7528,0.0,0.0,0.0,0.0,0.0,0.0,0.0,0.0,0.0,0.0,0.0,0.0,0.0,0.0,0.0,0.0,0.0,0.0,0.0,0.0,0.0,0.0,0.0,0.0,0.0,0.0,0.0,0.0,0.0,0.0,0.0,0.0,0.0,0.0,0.0,0.0,0.0,0.0,0.0,0.0,0.0,0.0,0.0,0.0,0.0,0.0,0.0,0.0,0.0,0.0,0.0,0.0,0.0,0.0,0.0,0.0,-2.3621,-2.399,-2.5555,-2.8517,-2.934,-2.9475,-2.8921,-2.7934,-2.6213,-2.3684,0.0,0.0,0.0,0.0,0.0,0.0,0.0,0.0,0.0,0.0,0.0,0.0,0.0,0.0,0.0,0.0,0.0,0.0,0.0,0.0,0.0,0.0,0.0,0.0,0.0,0.0,0.0,0.0,0.0,0.0,0.0,0.0,0.0,0.0,0.0,0.0,0.0,0.0,0.0,-2.8226,-2.9457,0.0,0.0,0.0,0.0,0.0,0.0,0.0,0.0,-2.8035,0.0,0.0,0.0,0.0,0.0,0.0,0.0,0.0,0.0,0.0,0.0,0.0,0.0,0.0,0.0,0.0,0.0,0.0,0.0,0.0,0.0,0.0,0.0,0.0,0.0,0.0,0.0,0.0,0.0,0.0,0.0,0.0,0.0,0.0,0.0,0.0,0.0,0.0,0.0,0.0,0.0,0.0,0.0,0.0,0.0,0.0,0.0,0.0,0.0,0.0,0.0,0.0,0.0,0.0,0.0,-2.3196,-2.4561,-2.6273,-2.8517,-2.8921,-2.8921,-2.8577,-2.6587,-2.4896,0.0,0.0,0.0,0.0,0.0,0.0,0.0,0.0,0.0,0.0,0.0,0.0,0.0,0.0,0.0,0.0,0.0,0.0,0.0,0.0,0.0,0.0,0.0,0.0,0.0,0.0,0.0,0.0,0.0,0.0,0.0,0.0,0.0,0.0,0.0,0.0,0.0,0.0,0.0,0.0,-2.8796,-3.025,-3.1304,0.0,0.0,0.0,0.0,0.0,0.0,-2.9849,-2.9299,0.0,0.0,0.0,0.0,0.0,0.0,0.0,0.0,0.0,0.0,0.0,0.0,0.0,0.0,0.0,0.0,0.0,0.0,0.0,0.0,0.0,0.0,0.0,0.0,0.0,0.0,0.0,0.0,0.0,0.0,0.0,0.0,0.0,0.0,0.0,0.0,0.0,0.0,0.0,0.0,0.0,0.0,0.0,0.0,0.0,0.0,0.0,0.0,0.0,0.0,0.0,0.0,0.0,0.0,0.0,-2.253,-2.4847,-2.6767,-2.8308,-2.8397,-2.8397,-2.8338,-2.554,-2.3819,0.0,0.0,0.0,0.0,0.0,0.0,0.0,0.0,0.0,0.0,0.0,0.0,0.0,0.0,0.0,0.0,0.0,0.0,0.0,0.0,0.0,0.0,0.0,0.0,0.0,0.0,0.0,0.0,0.0,0.0,0.0,0.0,0.0,0.0,0.0,0.0,0.0,0.0,0.0,0.0,0.0,-3.113,-3.2617,-3.2284,0.0,0.0,0.0,0.0,-3.2225,-3.1899,0.0,0.0,0.0,0.0,0.0,0.0,0.0,0.0,0.0,0.0,0.0,0.0,0.0,0.0,0.0,0.0,0.0,0.0,0.0,0.0,0.0,0.0,0.0,0.0,0.0,0.0,0.0,0.0,0.0,0.0,0.0,0.0,0.0,0.0,0.0,0.0,0.0,0.0,0.0,0.0,0.0,0.0,0.0,0.0,0.0,0.0,0.0,0.0,0.0,0.0,0.0,0.0,0.0,0.0,0.0,0.0,-2.211,-2.3356,-2.5151,-2.7595,-2.7745,-2.7694,-2.7664,-2.6183,-2.4567,0.0,0.0,0.0,0.0,0.0,0.0,0.0,0.0,0.0,0.0,0.0,0.0,0.0,0.0,0.0,0.0,0.0,0.0,0.0,0.0,0.0,0.0,0.0,0.0,0.0,0.0,0.0,0.0,0.0,0.0,0.0,0.0,0.0,0.0,0.0,0.0,0.0,0.0,0.0,0.0,0.0,-3.3785,-3.3661,-3.3587,-3.3788,0.0,0.0,-3.447,-3.5846,-3.5383,0.0,0.0,0.0,0.0,0.0,0.0,0.0,0.0,0.0,0.0,0.0,0.0,0.0,0.0,0.0,0.0,0.0,0.0,0.0,0.0,0.0,0.0,0.0,0.0,0.0,0.0,0.0,0.0,0.0,0.0,0.0,0.0,0.0,0.0,0.0,0.0,0.0,0.0,0.0,0.0,0.0,0.0,0.0,0.0,0.0,0.0,0.0,0.0,0.0,0.0,0.0,0.0,0.0,0.0,0.0,-1.8377,-2.1535,-2.3284,-2.5121,-2.6946,-2.7365,-2.7445,-2.7021,-2.5016,-2.3483,0.0,0.0,0.0,0.0,0.0,0.0,0.0,0.0,0.0,0.0,0.0,0.0,0.0,0.0,0.0,0.0,0.0,0.0,0.0,0.0,0.0,0.0,0.0,0.0,0.0,0.0,0.0,0.0,0.0,0.0,0.0,0.0,0.0,0.0,0.0,0.0,0.0,0.0,0.0,0.0,0.0,0.0,-3.6355,-3.6578,0.0,0.0,0.0,-3.6775,-3.7875,0.0,0.0,0.0,0.0,0.0,0.0,0.0,0.0,0.0,0.0,0.0,0.0,0.0,0.0,0.0,0.0,0.0,0.0,0.0,0.0,0.0,0.0,0.0,0.0,0.0,0.0,0.0,0.0,0.0,0.0,0.0,0.0,0.0,0.0,0.0,0.0,0.0,0.0,0.0,0.0,0.0,0.0,0.0,0.0,0.0,0.0,0.0,0.0,0.0,0.0,0.0,0.0,0.0,0.0,0.0,0.0,0.0,-2.1193,-2.3435,-2.527,-2.6557,-2.723,-2.726,-2.6572,-2.4373,0.0,0.0,0.0,0.0,0.0,0.0,0.0,0.0,0.0,0.0,0.0,0.0,0.0,0.0,0.0,0.0,0.0,0.0,0.0,0.0,0.0,0.0,0.0,0.0,0.0,0.0,0.0,-1.4245,0.0,0.0,0.0,0.0,0.0,0.0,0.0,0.0,0.0,0.0,0.0,0.0,0.0,0.0,-3.5641,-3.8071,-3.8744,-3.9294,0.0,0.0,-3.8969,-3.9783,-3.9229,-3.7609,0.0,0.0,0.0,0.0,0.0,0.0,0.0,0.0,0.0,0.0,0.0,0.0,0.0,0.0,0.0,0.0,0.0,0.0,0.0,0.0,0.0,0.0,0.0,0.0,0.0,0.0,0.0,0.0,0.0,0.0,0.0,0.0,0.0,0.0,0.0,0.0,0.0,0.0,0.0,0.0,0.0,0.0,0.0,0.0,0.0,0.0,0.0,0.0,0.0,0.0,0.0,0.0,0.0,0.0,0.0,-2.1172,-2.3435,-2.5255,-2.6557,-2.723,-2.726,-2.6587,-2.5226,-2.3325,0.0,0.0,0.0,0.0,0.0,0.0,0.0,0.0,0.0,0.0,0.0,0.0,0.0,0.0,0.0,0.0,0.0,0.0,0.0,0.0,0.0,0.0,0.0,0.0,0.0,0.0,0.0,0.0,0.0,0.0,0.0,0.0,0.0,0.0,0.0,0.0,0.0,0.0,0.0,0.0,0.0,-3.6009,-3.7393,-3.8854,-4.012,0.0,0.0,-4.1156,-4.1959,-4.2196,-4.1069,-3.7241,0.0,0.0,0.0,0.0,0.0,0.0,0.0,0.0,0.0,0.0,0.0,0.0,0.0,0.0,0.0,0.0,0.0,0.0,0.0,0.0,0.0,0.0,0.0,0.0,0.0,0.0,0.0,0.0,0.0,0.0,0.0,0.0,0.0,0.0,0.0,0.0,0.0,0.0,0.0,0.0,0.0,0.0,0.0,0.0,0.0,0.0,0.0,0.0,0.0,0.0,0.0,0.0,0.0,-1.8439,-2.0593,-2.3224,-2.5076,-2.5959,-2.6632,-2.6647,-2.6004,-2.4687,-2.3077,0.0,0.0,0.0,0.0,0.0,0.0,0.0,0.0,0.0,0.0,0.0,0.0,0.0,0.0,0.0,0.0,0.0,0.0,0.0,0.0,0.0,0.0,0.0,0.0,0.0,0.0,0.0,0.0,-1.9017,-2.035,-2.178,0.0,0.0,0.0,0.0,0.0,0.0,0.0,0.0,0.0,0.0,-3.8222,-4.0212,-4.0983,0.0,0.0,-4.2158,-4.2121,-4.2892,-4.2315,-4.0775,-3.8096,-3.6378,0.0,0.0,0.0,0.0,0.0,0.0,0.0,0.0,0.0,0.0,0.0,0.0,0.0,0.0,0.0,0.0,0.0,0.0,0.0,0.0,0.0,0.0,0.0,0.0,0.0,0.0,0.0,0.0,0.0,0.0,0.0,0.0,0.0,0.0,0.0,0.0,0.0,0.0,0.0,0.0,0.0,0.0,0.0,0.0,0.0,0.0,0.0,0.0,0.0,0.0,0.0,0.0,-1.8546,-2.0643,-2.3277,-2.5017,-2.5833,-2.6324,-2.6354,-2.5863,-2.4387,-2.2791,0.0,0.0,0.0,0.0,0.0,0.0,0.0,0.0,0.0,0.0,0.0,0.0,0.0,0.0,0.0,0.0,0.0,0.0,0.0,0.0,0.0,0.0,0.0,0.0,0.0,0.0,0.0,0.0,-2.0258,-2.1673,-2.3504,0.0,0.0,0.0,0.0,0.0,0.0,0.0,0.0,0.0,0.0,-3.9845,-4.1992,-4.2506,-4.2873,-4.3406,-4.302,-4.2837,-4.3406,-4.2561,-4.1192,-3.9298,0.0,0.0,0.0,0.0,0.0,0.0,0.0,0.0,0.0,0.0,0.0,0.0,0.0,0.0,0.0,0.0,0.0,0.0,0.0,0.0,0.0,0.0,0.0,0.0,0.0,0.0,0.0,0.0,0.0,0.0,-1.0866,0.0,0.0,0.0,0.0,0.0,0.0,0.0,0.0,0.0,0.0,0.0,0.0,0.0,0.0,0.0,0.0,0.0,0.0,0.0,0.0,0.0,0.0,-1.8918,-2.1745,-2.3614,-2.5183,-2.639,-2.6546,-2.6499,-2.6375,-2.462,-2.2682,-2.0752,0.0,0.0,0.0,0.0,0.0,0.0,0.0,0.0,0.0,0.0,0.0,0.0,0.0,0.0,0.0,0.0,0.0,0.0,0.0,0.0,0.0,0.0,0.0,0.0,0.0,0.0,-1.8954,-2.0144,-2.1369,0.0,0.0,0.0,0.0,0.0,0.0,0.0,0.0,0.0,0.0,-3.834,-4.0469,-4.2103,-4.2965,-4.3442,-4.3479,-4.3461,-4.3442,-4.3479,-4.3424,-4.2892,0.0,0.0,0.0,0.0,0.0,0.0,0.0,0.0,0.0,0.0,0.0,0.0,0.0,0.0,0.0,0.0,0.0,0.0,0.0,0.0,0.0,0.0,0.0,0.0,0.0,0.0,0.0,-1.306,-1.2564,0.0,0.0,0.0,0.0,0.0,0.0,0.0,0.0,0.0,0.0,0.0,-2.1665,-2.2338,0.0,0.0,0.0,0.0,0.0,0.0,0.0,0.0,0.0,0.0,0.0,0.0,-1.9953,-2.2034,-2.3731,-2.5032,-2.5879,-2.5483,-2.5273,-2.5228,-2.419,-2.2832,-2.114,0.0,0.0,0.0,0.0,0.0,0.0,0.0,0.0,0.0,0.0,0.0,0.0,0.0,0.0,0.0,0.0,0.0,0.0,0.0,0.0,0.0,0.0,0.0,0.0,0.0,-1.9895,0.0,0.0,0.0,0.0,0.0,0.0,0.0,0.0,0.0,0.0,0.0,-3.5661,-3.834,-4.0304,-4.1864,-4.2947,-4.3314,-4.3479,0.0,0.0,0.0,0.0,0.0,0.0,0.0,0.0,0.0,0.0,0.0,0.0,0.0,0.0,-3.8988,-3.4818,-3.3997,-3.397,-3.397,0.0,0.0,0.0,0.0,0.0,0.0,0.0,0.0,0.0,0.0,0.0,0.0,0.0,0.0,-1.4917,0.0,-1.5091,0.0,0.0,0.0,0.0,0.0,0.0,0.0,0.0,-2.2473,-2.3595,-2.3984,-2.4657,-2.4388,0.0,-2.337,-2.1877,0.0,0.0,0.0,0.0,0.0,0.0,0.0,0.0,-2.0702,-2.254,-2.4101,-2.5228,-2.5834,-2.5213,-2.4865,-2.4879,-2.3874,-2.2817,-2.1827,-2.0678,-1.9568,0.0,0.0,0.0,0.0,0.0,0.0,0.0,0.0,0.0,0.0,0.0,0.0,0.0,0.0,0.0,0.0,0.0,0.0,0.0,0.0,0.0,0.0,0.0,-2.0928,0.0,0.0,0.0,0.0,0.0,0.0,0.0,0.0,0.0,-3.2651,-3.5495,-3.834,-4.0451,-4.1882,-4.2892,-4.3424,0.0,0.0,0.0,0.0,0.0,0.0,0.0,-4.3552,-4.3552,-4.3552,-4.3461,-4.3185,-4.3962,-4.4225,-4.3062,0.0,0.0,-3.8582,-3.7664,-3.7587,-3.7621,-3.8218,-3.8742,-3.8742,-3.9572,-4.0311,0.0,0.0,0.0,0.0,0.0,0.0,0.0,0.0,-1.666,-1.7248,0.0,-1.7896,0.0,0.0,0.0,0.0,0.0,0.0,0.0,0.0,-2.5031,-2.5899,-2.4776,-2.539,-2.533,-2.4776,-2.5944,-2.551,-2.3533,-2.0081,0.0,0.0,0.0,0.0,0.0,0.0,-2.1191,-2.3286,-2.4678,-2.5737,-2.6432,-2.5768,-2.5354,-2.5335,-2.3679,-2.2739,-2.2664,-2.1434,-2.0175,-1.8841,-1.7076,0.0,0.0,0.0,0.0,0.0,0.0,0.0,0.0,0.0,0.0,0.0,0.0,0.0,0.0,0.0,0.0,0.0,0.0,0.0,0.0,-2.0106,0.0,0.0,0.0,0.0,0.0,0.0,0.0,0.0,0.0,0.0,-3.5459,-3.7973,-4.0543,-4.2121,0.0,0.0,0.0,0.0,-4.3497,-4.3534,-4.4195,-4.4709,-4.4745,-4.5369,-4.5847,-4.5847,0.0,0.0,-4.4947,-4.5461,-4.5736,-4.4912,-4.5388,-4.526,-4.3116,-4.2431,-4.2289,-4.2307,-4.2858,-4.3497,-4.3608,-4.4326,-4.5444,-2.0012,0.0,0.0,0.0,0.0,-1.8794,-1.9095,-1.9522,-2.0047,-2.0237,-2.0213,-2.0927,0.0,0.0,0.0,0.0,0.0,0.0,-2.3146,-2.4492,-2.5465,-2.6183,-2.6737,-2.6916,-2.6901,-2.6737,-2.6647,-2.6288,-2.5659,-2.3741,-2.1708,-1.9692,0.0,0.0,0.0,0.0,-2.2452,-2.4126,-2.451,-2.5257,-2.6406,-2.5304,-2.4491,-2.4152,-2.3649,-2.3269,-2.3127,-2.2271,-2.1436,-2.0553,-1.8921,0.0,0.0,0.0,0.0,0.0,0.0,0.0,0.0,0.0,0.0,0.0,0.0,0.0,0.0,0.0,0.0,0.0,0.0,0.0,-2.0257,-2.0696,-2.1777,0.0,0.0,0.0,0.0,0.0,0.0,0.0,0.0,0.0,-3.9294,-4.0671,-4.1992,0.0,0.0,-4.3479,-4.3479,-4.3479,-4.3699,-4.4268,0.0,0.0,0.0,-4.5755,-4.5902,-4.5902,-4.6379,-4.6874,-4.7223,-4.7462,-4.7352,-4.6581,-4.6617,-4.636,-4.5297,-4.4913,-4.4856,-4.4892,-4.5057,-4.5223,-4.5241,-4.5608,-4.592,-2.2711,-2.1694,-2.0614,-2.015,-2.0162,-2.0376,-2.0665,-2.11,-2.1799,-2.2228,-2.2427,-2.3419,-2.3283,-2.2258,-2.1962,0.0,0.0,0.0,-2.4612,-2.6004,-2.6258,-2.6811,-2.7545,-2.756,-2.756,-2.761,-2.7171,-2.6976,-2.6976,-2.5929,-2.4492,-2.2682,0.0,0.0,-2.1261,-2.2496,-2.3628,-2.4552,-2.4744,-2.5099,-2.565,-2.464,-2.3906,-2.3595,-2.337,-2.3167,-2.3046,-2.2171,-2.1484,-2.1078,-1.958,-1.85,0.0,0.0,0.0,0.0,0.0,0.0,0.0,0.0,0.0,0.0,0.0,-1.6462,0.0,0.0,0.0,0.0,-1.837,-2.028,-2.2554,-2.3522,0.0,0.0,0.0,0.0,0.0,0.0,0.0,-3.5903,-3.8569,-4.062,-4.1482,-4.2286,-4.2947,-4.3424,-4.3479,-4.3479,-4.3479,0.0,-4.4158,-4.4635,-4.5259,-4.5828,-4.6305,-4.6654,-4.6856,-4.6856,-4.7241,-4.7719,-4.8196,-4.8324,-4.8141,-4.7719,-4.7572,-4.7425,-4.6929,-4.6856,-4.6599,-4.6049,-4.6177,-4.6379,-4.6379,-4.6636,-4.6856,-2.4883,-2.4657,-2.2083,-2.1071,-2.1041,-2.1506,-2.1719,-2.1801,-2.2651,-2.3595,-2.469,-2.5506,-2.5766,-2.5615,-2.4448,0.0,-2.4822,-2.5465,-2.6093,-2.6677,-2.729,-2.756,-2.756,-2.756,-2.756,-2.756,-2.756,-2.756,-2.758,-2.6946,-2.6363,-2.5734,-2.4537,-2.3834,-2.3729,-2.4358,-2.4686,-2.4777,-2.519,-2.5142,-2.4567,-2.3968,-2.3608,-2.3505,-2.3008,-2.272,-2.2604,-2.1419,-2.0745,-2.0662,-1.9516,-1.8746,-1.8454,0.0,0.0,0.0,0.0,0.0,0.0,0.0,0.0,0.0,0.0,0.0,0.0,0.0,0.0,0.0,-2.2344,0.0,-2.474,-2.7569,0.0,0.0,0.0,-3.2336,-3.2687,-3.5357,-3.7385,-3.8007,0.0,0.0,-4.242,0.0,-4.3479,-4.3479,-4.3479,-4.3479,-4.3479,-4.4176,-4.4727,-4.4837,-4.6104,-4.7057,-4.7205,-4.7737,-4.8159,-4.8159,-4.8324,-4.8288,-4.8306,-4.8324,-4.8324,-4.8269,-4.8306,-4.8288,-4.8306,-4.8196,-4.7847,-4.6416,-4.6728,-4.7223,-4.7241,-4.7719,-4.8141,-2.541,-2.5322,-2.4268,-2.3828,-2.3803,-2.3514,-2.364,-2.4141,-2.552,-2.5986,-2.5867,-2.7268,-2.7318,-2.6363,-2.6542,-2.6437,-2.6153,-2.6811,-2.7186,-2.7385,-2.755,-2.756,-2.756,-2.756,-2.756,-2.756,-2.756,-2.756,-2.761,-2.746,-2.731,-2.7111,-2.6782,-2.5884,-2.4418,-2.5046,-2.5615,-2.6123,-2.5633,-2.5111,-2.446,-2.4276,-2.3804,-2.2948,-2.3067,-2.2762,-2.1989,-2.1424,-2.102,-2.0692,-2.0193,-1.9836,-1.9529,-1.8189,0.0,0.0,0.0,0.0,0.0,0.0,0.0,0.0,0.0,-2.0771,-1.776,0.0,-2.1803,0.0,-2.4611,-2.6332,-2.7326,-2.8594,0.0,0.0,-3.321,-3.4431,-3.6804,-3.7773,-3.8878,-4.0399,-4.1807,-4.2829,-4.3188,-4.3387,-4.3479,-4.3479,-4.3479,-4.3479,-4.3516,-4.4176,-4.4947,-4.5553,-4.6471,-4.7333,-4.7902,-4.8177,-4.8324,-4.8324,-4.8324,-4.8324,-4.8324,-4.8324,-4.8324,-4.8324,-4.8324,-4.8324,-4.8324,-4.8324,-4.8214,-4.7829,-4.7902,-4.8031,-4.8031,-4.8196,-4.8324,-2.5975,-2.5925,-2.5398,-2.531,-2.5498,-2.4707,-2.4544,-2.4872,-2.6118,-2.6644,-2.674,-2.8027,-2.8353,-2.7934,-2.7993,-2.7993,-2.7934,-2.7993,-2.8023,-2.8008,-2.776,-2.756,-2.756,-2.756,-2.756,-2.756,-2.756,-2.756,-2.756,-2.756,-2.756,-2.756,-2.756,-2.7021,-2.6004,-2.6303,-2.6527,-2.6557,-2.5546,-2.4734,-2.4078,-2.4032,-2.3618,-2.2739,-2.2821,-2.2347,-2.1291,-2.1219,-2.0973,-2.0527,-2.0565,-2.0622,-2.0631,-1.9474,-1.8541,0.0,0.0,0.0,0.0,0.0,0.0,0.0,0.0,0.0,0.0,0.0,-2.4086,0.0,-2.7486,0.0,-3.0472,-3.2127,-3.385,-3.5522,-3.6273,-3.724,-3.8614,-3.9284,-4.0193,-4.1431,-4.2232,-4.2902,-4.341,-4.3479,-4.3479,-4.3479,-4.3479,-4.3479,-4.3589,-4.4488,-4.5406,-4.5865,-4.6893,-4.7774,-4.8251,-4.8324,-4.8324,-4.8324,-4.8324,-4.8324,-4.8324,-4.8324,-4.8324,-4.8324,-4.8324,-4.8324,-4.8324,-4.8324,-4.8324,-4.8324,-4.8324,-4.8324,-4.8324,-4.8324,-4.8324,-2.6521,-2.6414,-2.5912,-2.6,-2.6458,-2.5435,-2.5034,-2.5086,-2.5779,-2.6572,-2.7335,-2.8071,-2.869,-2.9218,-2.8738,-2.8866,-2.9411,-2.8943,-2.8682,-2.8562,-2.7979,-2.77,-2.756,-2.756,-2.756,-2.756,-2.756,-2.756,-2.756,-2.756,-2.756,-2.756,-2.756,-2.756,-2.756,-2.756,-2.72,-2.6452,-2.5255,-2.4253,-2.3625,-2.3595,-2.3266,-2.2619,-2.2369,-2.1736,-2.0655,-2.092,-2.0906,-2.0419,-2.1018,-2.1455,-2.1622,-2.0545,-1.9963,0.0,-1.9022,0.0,0.0,0.0,0.0,0.0,0.0,0.0,0.0,-2.5947,-2.6826,-2.7351,-3.0717,-3.3136,-3.3778,-3.6383,-3.8041,-3.8075,-3.9259,-3.9834,-3.9274,-4.0151,-4.1041,-4.1725,-4.2244,-4.2808,-4.341,-4.3479,-4.3479,-4.3479,-4.3479,-4.3479,-4.3608,-4.4727,-4.5681,-4.5865,-4.726,-4.8251,-4.8306,-4.8324,-4.8324,-4.8324,-4.8324,-4.8324,-4.8324,-4.8324,-4.8324,-4.8324,-4.8324,-4.8324,-4.8324,-4.8324,-4.8324,-4.8324,-4.8324,-4.8324,-4.8324,-4.8324,-4.8324,-2.6521,-2.6521,-2.6339,-2.642,-2.6508,-2.6239,-2.6151,-2.6219,-2.7025,-2.7578,-2.7823,-2.744,-2.7335,-2.7563,-2.8083,-2.8436,-2.8566,-2.9159,-2.9101,-2.8592,-2.8472,-2.8113,-2.759,-2.756,-2.756,-2.756,-2.756,-2.756,-2.756,-2.756,-2.756,-2.756,-2.756,-2.756,-2.756,0.0,0.0,0.0,-2.5031,-2.4253,-2.3625,-2.3595,-2.3041,-2.1934,-2.2156,0.0,-2.0047,-2.1145,-2.15,-2.0736,-2.238,0.0,0.0,0.0,0.0,0.0,0.0,0.0,0.0,0.0,0.0,0.0,-2.752,-2.7571,-2.7317,-3.0108,-3.1732,-3.136,-3.4083,-3.6022,-3.6146,-3.7719,-3.8802,-3.8819,-3.9563,-4.002,-3.9952,-4.0119,-4.0642,-4.1664,-4.1895,-4.2364,-4.3321,-4.3479,-4.3479,-4.3479,-4.3479,-4.3479,-4.3479,-4.4342,-4.5168,-4.5847,-4.7223,-4.8233,-4.8324,-4.8288,-4.8251,-4.8324,-4.8324,-4.8324,-4.8324,-4.8324,-4.8324,-4.8324,-4.8324,-4.8324,-4.8324,-4.8324,-4.8324,-4.8324,-4.8324,-4.8324,-4.8324,-4.8324,-4.8324,-2.6521,0.0,-2.6521,-2.6521,0.0,-2.6521,-2.6521,-2.6533,-2.6905,-2.738,-2.7826,-2.7578,-2.7666,-2.7974,-2.8179,-2.8498,-2.8814,-2.9045,-2.9101,-2.9056,-2.8382,-2.8083,-2.8083,-2.7724,-2.756,-2.756,-2.756,-2.756,-2.756,-2.756,-2.756,-2.756,-2.756,-2.756,-2.761,-2.7245,-2.6602,-2.5615,-2.5285,-2.4627,-2.3655,-2.3595,-2.3146,-2.2274,0.0,0.0,0.0,0.0,0.0,0.0,0.0,0.0,0.0,0.0,0.0,-2.3178,-2.3991,-2.4839,-2.5681,-2.6354,-2.7368,-2.8839,-3.0328,-3.0852,-3.0074,-3.2425,-3.3947,-3.3981,-3.6011,-3.7483,-3.7872,-3.887,-3.9529,-3.9546,-3.9868,-4.0087,-4.0121,-4.0319,-4.0844,-4.1639,-4.208,-4.258,-4.3356,-4.3479,-4.3479,-4.3479,-4.3479,-4.3479,-4.3571,-4.4195,-4.4984,-4.5755,-4.6489,-4.726,-4.7645,-4.7719,-4.7902,-4.8177,-4.8324,-4.8324,-4.8324,-4.8324,-4.8324,-4.8324,-4.8324,-4.8324,-4.8324,-4.8324,-4.8324,-4.8324,-4.8324,-4.8324,-4.8324,-4.8324,-4.8324,-2.6521,-2.6521,-2.6521,-2.6521,-2.6521,-2.6521,-2.6521,-2.6521,0.0,0.0,0.0,-2.7672,-2.803,-2.8525,-2.8338,-2.8525,-2.9056,-2.8965,-2.9116,-2.9355,-2.8382,-2.8098,-2.8382,-2.7844,-2.756,-2.756,-2.756,-2.756,-2.756,-2.756,-2.756,-2.756,-2.756,-2.756,-2.758,-2.7036,-2.6437,-2.5809,-2.5555,-2.4837,-2.3655,-2.3595,-2.3295,-2.2739,-2.3006,-2.2726,-2.1764,-2.2605,-2.2823,-2.244,-2.3022,-2.331,-2.3074,-2.3751,-2.4421,-2.5064,-2.6155,-2.7228,-2.8217,-2.8753,-2.9526,-3.0615,-3.2374,-3.3203,-3.2696,-3.3914,-3.5064,-3.5943,-3.7178,-3.8244,-3.9089,-3.9715,-4.0087,-4.0087,-4.0087,-4.0087,-4.0121,-4.0497,-4.0967,-4.1707,-4.2203,-4.2808,-4.3391,-4.3479,-4.3479,-4.3479,-4.3479,-4.3479,-4.3589,-4.4195,-4.4911,-4.5516,-4.5902,-4.6214,-4.6728,-4.7095,-4.7332,-4.7921,-4.8196,-4.8324,-4.8324,-4.8324,-4.8324,-4.8324,-4.8324,-4.8324,-4.8324,-4.8324,-4.8324,-4.8324,-4.8324,-4.8324,-4.8324,-4.8324,-4.8324,-2.6452,-2.6521,-2.6521,-2.6521,-2.6521,-2.6521,-2.6521,-2.6521,-2.6521,-2.6589,-2.6645,-2.6693,-2.6773,-2.6879,-2.766,-2.8069,-2.826,-2.9607,-2.9699,0.0,-2.9116,-2.8794,-2.7724,-2.767,-2.756,-2.756,-2.756,-2.756,-2.756,-2.756,-2.756,-2.756,-2.756,-2.756,-2.756,-2.7535,-2.7111,-2.6452,-2.5345,-2.4388,-2.3625,-2.3595,-2.331,-2.2768,-2.2765,-2.2435,-2.1779,-2.2755,-2.3141,-2.2697,-2.4092,-2.4411,-2.3375,-2.4863,-2.563,-2.5233,-2.6391,-2.7705,-2.8951,-2.9138,-3.0259,-3.2671,-3.3237,-3.3609,-3.415,-3.4962,-3.6045,-3.7415,-3.7787,-3.8464,-3.9715,-4.002,-4.0087,-4.0087,-4.0087,-4.0087,-4.0087,-4.0154,-4.0642,-4.1664,-4.1853,-4.2346,-4.3286,-4.3479,-4.3479,-4.3479,-4.3479,-4.3479,-4.3608,-4.4195,-4.4672,-4.4947,-4.5461,-4.5883,-4.6104,-4.6691,-4.7021,-4.726,-4.781,-4.8122,-4.8104,-4.8104,-4.8122,-4.8251,-4.8141,-4.8177,-4.8196,-4.8324,-4.8196,-4.8177,-4.8214,-4.8251,-4.8288,-4.8324,-4.8324,-2.6214,-2.6465,-2.6521,-2.6521,-2.6521,-2.6521,-2.6521,-2.6521,-2.6521,-2.6521,-2.6521,-2.6521,-2.6726,-2.7178,-2.7755,-2.8033,-2.8203,-2.9046,-2.934,-2.9101,-2.8682,-2.8562,-2.8592,-2.7985,-2.756,-2.756,-2.756,-2.756,-2.756,-2.756,-2.756,-2.756,-2.756,-2.756,-2.756,-2.756,-2.731,-2.6587,-2.6004,-2.5375,-2.4702,-2.4343,-2.4014,-2.3729,-2.3385,-2.3041,-2.2742,-2.3232,-2.3383,-2.3176,-2.3921,-2.423,-2.4058,-2.5102,-2.58,-2.5931,-2.7076,-2.8104,-2.879,-2.9805,-3.1283,-3.3187,-3.3778,-3.432,-3.5047,-3.5419,-3.6248,-3.7736,-3.7922,-3.8497,-3.9918,-4.0087,-4.0087,-4.0087,-4.0087,-4.0087,-4.0087,-4.0087,-4.0563,-4.1595,-4.181,-4.2226,-4.3356,-4.3479,-4.3479,-4.3479,-4.3479,-4.3479,-4.3479,-4.3809,-4.4066,-4.4066,-4.436,-4.4764,-4.5168,-4.5535,-4.5957,-4.6361,-4.6746,-4.6985,-4.7003,-4.7021,-4.7021,-4.7003,-4.7021,-4.7003,-4.7021,-4.7003,-4.715,-4.7609,-4.7664,-4.7774,-4.8141,-4.8324,-4.8324,-2.5887,-2.6452,-2.6521,-2.6521,-2.6521,-2.6521,-2.6521,-2.6521,-2.6521,-2.6521,-2.6521,-2.6521,-2.6973,-2.767,-2.7931,-2.8204,-2.8512,-2.8857,-2.9146,-2.925,-2.8442,-2.8479,-2.8966,-2.8075,-2.756,-2.756,-2.756,-2.756,-2.756,-2.756,-2.756,-2.756,-2.756,-2.756,-2.756,-2.756,-2.737,-2.6841,-2.6811,-2.6437,-2.563,-2.506,-2.4806,-2.4807,-2.4193,-2.3819,-2.3819,-2.3684,-2.3595,-2.361,-2.3744,-2.4073,-2.4597,-2.5287,-2.5955,-2.6597,-2.7566,-2.8322,-2.8732,-3.0202,-3.1815,-3.328,-3.3914,-3.4641,-3.5487,-3.5639,-3.6248,-3.7618,-3.7922,-3.8497,-3.9783,-4.0087,-4.0087,-4.0087,-4.0087,-4.0087,-4.0087,-4.0087,-4.0466,-4.142,-4.1595,-4.2003,-4.2847,-4.3232,-4.3356,-4.3444,-4.3479,-4.3479,-4.3479,-4.341,-4.3321,-4.3321,-4.341,-4.3684,-4.4217,-4.4582,-4.4967,-4.5571,-4.5847,-4.6012,-4.603,-4.5957,-4.592,-4.6012,-4.5975,-4.6049,-4.5938,-4.5957,-4.6232,-4.6728,-4.6838,-4.7021,-4.748,-4.7627,-4.7939,-2.5654,-2.6452,-2.6465,-2.6521,-2.6521,-2.6521,-2.6521,-2.6521,-2.6521,-2.6521,-2.6521,-2.6521,-2.6985,-2.7657,-2.7944,-2.8456,-2.9217,-2.9992,-2.9729,-2.8861,-2.919,-2.8884,-2.7904,-2.77,-2.756,-2.756,-2.756,-2.756,-2.756,-2.756,-2.756,-2.756,-2.756,-2.756,-2.756,-2.756,-2.7545,-2.747,-2.7535,-2.6886,-2.5689,-2.5555,-2.551,-2.551,-2.4836,-2.4492,-2.4448,-2.3939,-2.361,-2.364,-2.4208,-2.4567,-2.4747,-2.5781,-2.6501,-2.6617,-2.7274,-2.8112,-2.9225,-3.0,-3.1281,-3.3136,-3.3499,-3.4158,-3.5408,-3.5577,-3.6265,-3.7516,-3.7889,-3.8531,-3.9868,-4.007,-4.0087,-4.0087,-4.0087,-4.0087,-4.0087,-4.0087,-4.0319,-4.0903,-4.1041,-4.1251,-4.1961,-4.2462,-4.2939,-4.3356,-4.3321,-4.3321,-4.3375,-4.2995,-4.2732,-4.2808,-4.3142,-4.3232,-4.3193,-4.3962,-4.4401,-4.4729,-4.5352,-4.548,-4.5443,-4.5553,-4.5847,-4.526,-4.5681,-4.5645,-4.5718,-4.5883,-4.5828,-4.5938,-4.6049,-4.6104,-4.6122,-4.625,-4.6728,-2.5277,-2.6019,-2.637,-2.6521,-2.6521,-2.6521,-2.6521,-2.6521,-2.6521,-2.6521,-2.6521,-2.6521,-2.6973,-2.771,-2.8298,-2.8881,-2.9304,-2.977,-2.9699,-2.9131,-2.8667,-2.8308,-2.8173,-2.7739,-2.756,-2.756,-2.756,-2.756,-2.756,-2.756,-2.756,-2.756,-2.756,-2.756,-2.756,-2.756,-2.756,-2.756,-2.756,-2.7355,-2.6797,-2.6378,-2.6198,-2.6123,-2.5555,-2.5016,-2.4657,-2.4702,-2.4612,-2.4298,-2.4806,-2.539,-2.5764,-2.6303,-2.6767,-2.7141,-2.741,-2.7944,-2.8826,-3.0204,-3.1388,-3.222,-3.379,-3.4863,-3.4968,-3.5362,-3.6096,-3.706,-3.7652,-3.8345,-3.9309,-3.9817,-4.0087,-4.0087,-4.0087,-4.0087,-4.0087,-4.0087,-4.0336,-4.0827,-4.0903,-4.1115,-4.1664,-4.1979,-4.2422,-4.2846,-4.279,-4.2639,-4.2921,-4.2559,-4.208,-4.181,-4.2144,-4.2404,-4.2279,-4.2557,-4.3008,-4.308,-4.326,-4.3476,-4.3646,-4.3844,-4.3977,-4.4069,-4.4419,-4.458,-4.4378,-4.4507,-4.4562,-4.4947,-4.5681,-4.5902,-4.5902,-4.5902,-4.6287,-2.5161,-2.5645,-2.6247,-2.6521,-2.6521,-2.6521,-2.6521,-2.6521,-2.6521,-2.6521,-2.6521,-2.6521,-2.6782,-2.7417,-2.8233,-2.8865,-2.9177,-2.9348,-2.9239,-2.8873,-2.7905,-2.7583,-2.7656,-2.7231,-2.7034,-2.7019,-2.7188,-2.7408,-2.7575,-2.756,-2.756,-2.756,-2.756,-2.756,-2.756,-2.756,-2.756,-2.756,-2.756,-2.756,-2.7485,-2.716,-2.6871,-2.6797,-2.6213,-2.5644,-2.5196,-2.545,-2.539,-2.4941,-2.5525,-2.6093,-2.6542,-2.6767,-2.7081,-2.75,-2.756,-2.7845,-2.8479,-3.0068,-3.1246,-3.19,-3.3868,-3.5006,-3.5001,-3.5299,-3.583,-3.6417,-3.733,-3.821,-3.892,-3.9648,-4.0054,-4.0087,-4.0087,-4.0087,-4.0087,-4.0087,-4.0254,-4.0625,-4.0607,-4.092,-4.1402,-4.1578,-4.175,-4.2244,-4.2103,-4.1895,-4.2262,-4.1937,-4.1402,-4.0949,-4.1178,-4.1358,-4.1534,-4.1846,-4.1768,-4.181,-4.2002,-4.2121,-4.1997,-4.2498,-4.2882,-4.3634,-4.3449,-4.3518,-4.3791,-4.3699,-4.3644,-4.425,-4.4837,-4.5241,-4.5021,-4.5186,-4.5314,-2.5249,-2.573,-2.6235,-2.6521,-2.6521,-2.6521,-2.6521,-2.6521,-2.6521,-2.6521,-2.6521,-2.6521,-2.6521,-2.6645,-2.7417,-2.8233,-2.8933,-2.9011,-2.8432,-2.7499,-2.7304,-2.6604,-2.5592,-2.5522,-2.5563,-2.5728,-2.6283,-2.6864,-2.7509,-2.756,-2.756,-2.756,-2.756,-2.756,-2.756,-2.756,-2.756,-2.756,-2.756,-2.756,-2.756,-2.758,-2.752,-2.741,-2.6886,-2.6497,-2.6393,-2.5914,-2.5615,-2.557,-2.6198,-2.6587,-2.6662,-2.7186,-2.755,-2.756,-2.756,-2.786,-2.8444,-2.9304,-3.048,-3.2145,-3.3258,-3.4213,-3.5249,-3.5515,-3.5673,-3.5723,-3.6928,-3.8058,-3.8853,-3.9597,-4.0054,-4.0087,-4.0087,-4.0087,-4.0087,-4.0087,-4.0087,-4.0171,-4.0204,-4.0417,-4.0856,-4.0949,-4.1223,-4.1664,-4.181,-4.1768,-4.1725,-4.1313,-4.0949,-4.078,-4.0594,-4.0385,-4.0874,-4.1178,-4.1595,-4.1552,-4.1464,-4.1853,-4.2342,-4.2732,-4.2976,-4.3214,-4.3375,-4.3497,-4.3479,-4.3497,-4.3516,-4.3736,-4.3773,-4.3956,-4.4195,-4.3773,-4.3975,-2.5907,-2.6635,-2.6552,-2.6521,-2.6521,-2.6521,-2.6521,-2.6521,-2.6521,-2.6521,-2.6521,-2.6521,-2.6521,-2.6533,-2.6782,-2.7417,-2.8141,-2.8302,-2.7919,-2.7193,-2.6748,-2.6128,-2.5467,-2.5398,-2.5398,-2.5453,-2.5687,-2.6176,-2.6878,-2.7357,-2.756,-2.756,-2.756,-2.756,-2.756,-2.756,-2.756,-2.756,-2.756,-2.756,-2.756,-2.756,-2.756,-2.756,-2.735,-2.7006,-2.6617,-2.6752,-2.6677,-2.6273,-2.6871,-2.7215,-2.728,-2.749,-2.756,-2.756,-2.756,-2.771,-2.8065,-2.9366,-3.0482,-3.1275,-3.3144,-3.4327,-3.4922,-3.5316,-3.5639,-3.5729,-3.6009,-3.6919,-3.8195,-3.936,-4.0087,-4.0087,-4.0087,-4.0087,-4.0087,-4.0087,-4.0087,-4.0087,-4.0087,-4.0221,-4.0319,-4.0417,-4.0625,-4.1059,-4.0938,-4.0938,-4.1059,-4.075,-4.04,-4.0368,-4.0254,-4.0154,-4.0336,-4.0497,-4.0672,-4.0672,-4.072,-4.0984,-4.142,-4.1979,-4.2226,-4.279,-4.3087,-4.3375,-4.3321,-4.3375,-4.341,-4.3479,-4.3479,-4.3479,-4.3497,-4.3479,-4.3626,-2.6035,-2.6894,-2.6614,-2.6521,-2.6521,-2.6521,-2.6521,-2.6521,-2.6521,-2.6521,-2.6521,-2.6521,-2.6521,-2.6521,-2.6521,-2.6794,-2.7324,-2.7444,-2.7006,-2.6196,-2.5868,-2.536,-2.4761,-2.4654,-2.4667,-2.4711,-2.4951,-2.5412,-2.6122,-2.6654,-2.6967,-2.7203,-2.7255,-2.7408,-2.756,-2.756,-2.756,-2.756,-2.756,-2.756,-2.756,-2.756,-2.756,-2.756,-2.756,-2.738,-2.6931,-2.7335,-2.7395,-2.7036,-2.7385,-2.756,-2.756,-2.756,-2.756,-2.756,-2.756,-2.756,-2.7775,-2.9291,-3.0371,-3.069,-3.2784,-3.4333,-3.4576,-3.5207,-3.5577,-3.5628,-3.592,-3.6531,-3.7739,-3.9022,-3.9817,-4.0003,-4.0087,-4.0087,-4.0087,-4.0087,-4.0087,-4.0087,-4.0087,-4.0087,-4.0087,-4.0121,-4.0286,-4.0625,-4.0269,-4.0286,-4.0497,-4.0368,-4.0087,-4.0087,-4.0121,-4.007,-4.0171,-4.0286,-4.0336,-4.0286,-4.0336,-4.0449,-4.075,-4.1268,-4.175,-4.2284,-4.2657,-4.2958,-4.316,-4.3214,-4.3339,-4.3444,-4.3479,-4.3479,-4.3479,-4.3479,-4.3589,-2.5458,-2.6423,-2.6482,-2.6452,-2.6452,-2.6521,-2.6521,-2.6521,-2.6521,-2.6521,-2.6521,-2.6521,-2.6521,-2.6521,-2.6521,-2.6521,-2.6501,-2.6599,-2.5851,-2.4595,-2.4709,-2.433,-2.3419,-2.3378,-2.3352,-2.3352,-2.4002,-2.4681,-2.5412,-2.5563,-2.5946,-2.639,-2.6549,-2.693,-2.756,-2.756,-2.756,-2.756,-2.756,-2.756,-2.756,-2.756,-2.756,-2.756,-2.756,-2.7545,-2.7565,-2.756,-2.7545,-2.7565,-2.7545,-2.756,-2.756,-2.756,-2.756,-2.756,-2.756,-2.7575,-2.7754,-2.8937,-3.0015,-3.0856,-3.251,-3.3987,-3.4576,-3.5207,-3.5639,-3.5723,-3.6214,-3.6992,-3.777,-3.8548,-3.9292,-3.9935,-4.0087,-4.0087,-4.0087,-4.0087,-4.0087,-4.0087,-4.0087,-4.0087,-4.0087,-4.0087,-4.0171,-4.0171,-4.0121,-4.0121,-4.0204,-4.0154,-4.0121,-4.0087,-4.0087,-4.0087,-4.0087,-4.0121,-4.0121,-4.0121,-4.0171,-4.0286,-4.0703,-4.1133,-4.1446,-4.1895,-4.2103,-4.2404,-4.2675,-4.277,-4.3069,-4.3178,-4.3304,-4.3444,-4.3479,-4.3479,-4.3479,-2.4614,-2.5932,-2.566,-2.5873,-2.6452,-2.6521,-2.6521,-2.6521,-2.6521,-2.6521,-2.6521,-2.6521,-2.6521,-2.6521,-2.6521,-2.6251,-2.5912,-2.6226,-2.595,-2.5121,-2.4531,-2.4092,-2.3703,-2.3253,-2.3125,-2.3245,-2.3943,-2.4408,-2.4681,-2.5133,-2.5563,-2.5783,-2.6229,-2.6616,-2.6826,-2.7306,-2.756,-2.756,-2.756,-2.756,-2.756,-2.756,-2.756,-2.756,-2.756,-2.756,-2.756,-2.756,-2.756,-2.756,-2.756,-2.756,-2.756,-2.756,-2.756,-2.756,-2.756,-2.7865,-2.8308,-2.9109,-3.0068,-3.1254,-3.2728,-3.3822,-3.4528,-3.5207,-3.5577,-3.5622,-3.5893,-3.6468,-3.7635,-3.8091,-3.8751,-3.9952,-4.0087,-4.0087,-4.0087,-4.0087,-4.0087,-4.0087,-4.0087,-4.0087,-4.0087,-4.0087,-4.0087,-4.0087,-4.0087,-4.0087,-4.0087,-4.0087,-4.0087,-4.0087,-4.0087,-4.0087,-4.0087,-4.0087,-4.0087,-4.0087,-4.0121,-4.0154,-4.0577,-4.0827,-4.115,-4.1375,-4.1552,-4.181,-4.2038,-4.2302,-4.2559,-4.2976,-4.3178,-4.3286,-4.3444,-4.3479,-4.3479,-2.3908,-2.5094,-2.5075,-2.5594,-2.6452,-2.6521,-2.6521,-2.6521,-2.6521,-2.6521,-2.6521,-2.6521,-2.6521,-2.6521,-2.6521,-2.6332,-2.595,-2.6101,-2.595,-2.5523,-2.4732,-2.4117,-2.3715,-2.3265,-2.3125,-2.3185,-2.3603,-2.3826,-2.3884,-2.4279,-2.4667,-2.5007,-2.5453,-2.5851,-2.6122,-2.6811,-2.7188,-2.7203,-2.7458,-2.756,-2.756,-2.756,-2.756,-2.756,-2.756,-2.756,-2.756,-2.756,-2.756,-2.756,-2.756,-2.756,-2.756,-2.756,-2.756,-2.756,-2.764,-2.782,-2.8263,-2.9026,-2.9877,-3.0952,-3.2347,-3.3463,-3.4186,-3.4847,-3.527,-3.5577,-3.5656,-3.6129,-3.7195,-3.7483,-3.8142,-3.9512,-3.9935,-4.0054,-4.0087,-4.0087,-4.0087,-4.0087,-4.0087,-4.0087,-4.0087,-4.0087,-4.0087,-4.0087,-4.0087,-4.0087,-4.0087,-4.0087,-4.0087,-4.0087,-4.0087,-4.0087,-4.0087,-4.0087,-4.0087,-4.0087,-4.007,-4.0204,-4.0417,-4.0449,-4.0689,-4.072,-4.0891,-4.1105,-4.1331,-4.1621,-4.1877,-4.2386,-4.2921,-4.3178,-4.3286,-4.3444,-4.3479,-2.3185,-2.4078,-2.4618,-2.5288,-2.6151,-2.6314,-2.6314,-2.6383,-2.6452,-2.6521,-2.6521,-2.6521,-2.6521,-2.6521,-2.6521,-2.6483,-2.6364,-2.5988,-2.5674,-2.5423,-2.4921,-2.4255,-2.3265,-2.3103,-2.3138,-2.3125,-2.3185,-2.3185,-2.3245,-2.3305,-2.3484,-2.4176,-2.4452,-2.4681,-2.5342,-2.6054,-2.6443,-2.651,-2.7152,-2.7458,-2.7458,-2.7575,-2.756,-2.756,-2.756,-2.756,-2.756,-2.756,-2.756,-2.756,-2.756,-2.756,-2.756,-2.756,-2.756,-2.756,-2.756,-2.77,-2.797,-2.8891,-2.9708,-3.0042,-3.1636,-3.2895,-3.3649,-3.4333,-3.5005,-3.5515,-3.5639,-3.596,-3.6654,-3.6874,-3.7567,-3.8802,-3.9681,-4.0037,-4.0087,-4.0087,-4.0087,-4.0087,-4.0087,-4.0087,-4.0087,-4.0087,-4.0087,-4.0087,-4.0087,-4.0087,-4.0087,-4.0087,-4.0087,-4.0087,-4.0087,-4.0087,-4.0087,-4.0087,-4.0087,-4.0087,-4.0087,-4.0171,-4.0254,-4.0254,-4.0254,-4.0286,-4.0385,-4.0528,-4.0703,-4.1059,-4.1446,-4.1961,-4.2444,-4.2884,-4.3178,-4.3286,-4.3479,-2.2009,-2.2574,-2.2756,-2.3368,-2.4325,-2.5075,-2.537,-2.5523,-2.6164,-2.6452,-2.6521,-2.6521,-2.6521,-2.6521,-2.6521,-2.6521,-2.6458,-2.6332,-2.5724,-2.5084,-2.4908,-2.418,-2.3326,-2.3125,-2.3125,-2.3125,-2.3125,-2.3125,-2.3125,-2.3125,-2.3258,-2.3424,-2.4002,-2.435,-2.4681,-2.5342,-2.5687,-2.5783,-2.6457,-2.6826,-2.693,-2.7357,-2.7575,-2.756,-2.756,-2.756,-2.756,-2.756,-2.756,-2.756,-2.756,-2.756,-2.756,-2.756,-2.756,-2.756,-2.759,-2.7865,-2.8338,-2.9071,-2.9714,-3.0323,-3.1564,-3.2879,-3.3547,-3.4235,-3.4894,-3.5424,-3.5639,-3.5926,-3.6586,-3.6772,-3.7499,-3.8751,-3.9495,-3.9986,-4.007,-4.0087,-4.0087,-4.0087,-4.0087,-4.0087,-4.0087,-4.0087,-4.0087,-4.0087,-4.0087,-4.0087,-4.0087,-4.0087,-4.0087,-4.0087,-4.0087,-4.0087,-4.0087,-4.0087,-4.0087,-4.0087,-4.0087,-4.0121,-4.0171,-4.0171,-4.0121,-4.0171,-4.0204,-4.0336,-4.0449,-4.0672,-4.1105,-4.1534,-4.2144,-4.2637,-4.2939,-4.3142,-4.341,-2.1396,-2.2038,-2.2038,-2.2553,-2.3526,-2.4108,-2.4636,-2.5087,-2.5594,-2.6164,-2.6383,-2.6521,-2.6521,-2.6521,-2.6521,-2.6521,-2.6496,-2.6201,-2.5611,-2.4858,-2.4255,-2.3654,-2.3226,-2.3125,-2.3125,-2.3125,-2.3125,-2.3125,-2.3125,-2.3125,-2.3125,-2.3198,-2.3543,-2.3767,-2.3826,-2.4509,-2.4951,-2.5119,-2.5892,-2.6496,-2.6549,-2.7188,-2.7509,-2.756,-2.756,-2.756,-2.756,-2.756,-2.756,-2.756,-2.756,-2.756,-2.756,-2.756,-2.756,-2.756,-2.756,-2.7805,-2.8173,-2.8786,-2.9445,-3.0113,-3.1201,-3.2284,-3.3296,-3.3987,-3.4496,-3.5407,-3.5577,-3.5859,-3.6231,-3.6569,-3.7161,-3.7889,-3.8717,-3.9394,-4.0019,-4.0087,-4.0087,-4.0087,-4.0087,-4.0087,-4.0087,-4.0087,-4.0087,-4.0087,-4.0087,-4.0087,-4.0087,-4.0087,-4.0087,-4.0087,-4.0087,-4.0087,-4.0087,-4.0087,-4.0087,-4.0087,-4.0087,-4.0087,-4.0087,-4.0087,-4.0087,-4.0087,-4.0087,-4.0121,-4.0286,-4.0417,-4.0672,-4.1196,-4.1853,-4.2342,-4.2637,-4.3032,-4.3286,-2.1088,-2.1886,-2.1886,-2.2403,-2.3073,-2.3294,-2.3745,-2.4564,-2.4779,-2.5322,-2.5995,-2.6264,-2.6227,-2.6377,-2.6458,-2.6521,-2.6496,-2.5925,-2.5285,-2.4556,-2.3816,-2.3175,-2.3175,-2.3125,-2.3125,-2.3125,-2.3125,-2.3125,-2.3125,-2.3125,-2.3125,-2.3138,-2.3138,-2.3138,-2.3365,-2.3826,-2.4118,-2.4394,-2.5398,-2.6054,-2.6336,-2.693,-2.7408,-2.756,-2.756,-2.756,-2.756,-2.756,-2.756,-2.756,-2.756,-2.756,-2.756,-2.756,-2.756,-2.756,-2.756,-2.764,-2.776,-2.8308,-2.8936,-2.9663,-3.0278,-3.1357,-3.294,-3.3479,-3.4003,-3.5253,-3.5453,-3.5503,-3.5791,-3.6332,-3.6789,-3.7161,-3.7584,-3.8531,-3.9478,-3.9918,-3.9969,-3.9986,-3.9986,-4.0087,-4.0087,-4.0087,-4.0087,-4.0087,-4.0087,-4.0087,-4.0087,-4.0087,-4.0087,-4.0087,-4.0087,-4.0087,-4.0087,-4.0087,-4.0087,-4.0087,-4.0087,-4.0087,-4.0087,-4.0087,-4.0087,-4.0087,-4.0087,-4.0087,-4.0121,-4.0286,-4.04,-4.0703,-4.1286,-4.1895,-4.2422,-4.2846,-4.3178,-2.0722,-2.0934,-2.0934,-2.1011,-2.1298,-2.2048,-2.2478,-2.2776,-2.3514,-2.4199,-2.4704,-2.5107,-2.5534,-2.5824,-2.6214,-2.6521,-2.6382,-2.5762,-2.5109,-2.413,-2.3502,-2.3163,-2.3125,-2.3125,-2.3125,-2.3125,-2.3125,-2.3125,-2.3125,-2.3125,-2.3125,-2.3125,-2.3125,-2.3125,-2.3185,-2.3305,-2.3365,-2.3543,-2.4394,-2.5189,-2.5783,-2.6496,-2.7086,-2.7524,-2.756,-2.756,-2.756,-2.756,-2.756,-2.756,-2.756,-2.756,-2.756,-2.756,-2.756,-2.756,-2.756,-2.756,-2.7679,-2.8188,-2.8891,-2.9535,-3.0143,-3.1152,-3.2532,-3.2841,-3.3495,-3.4496,-3.4847,-3.5052,-3.552,-3.6315,-3.662,-3.6806,-3.7313,-3.7889,-3.8362,-3.887,-3.9191,-3.9377,-3.9732,-4.007,-4.007,-4.0087,-4.0087,-4.0087,-4.0087,-4.0087,-4.0087,-4.0087,-4.0087,-4.0087,-4.0087,-4.0087,-4.0087,-4.0087,-4.0087,-4.0087,-4.0087,-4.0087,-4.0087,-4.0087,-4.0087,-4.0087,-4.0087,-4.0087,-4.0087,-4.0121,-4.0254,-4.0497,-4.075,-4.1402,-4.2021,-4.2541,-4.3105,-2.0576,-2.0576,-2.0576,-2.0576,-2.0722,-2.1155,-2.1593,-2.2038,-2.2542,-2.31,-2.371,-2.4567,-2.4987,-2.5062,-2.5685,-2.6118,-2.585,-2.5184,-2.4393,-2.3665,-2.3251,-2.315,-2.3125,-2.3125,-2.3125,-2.3125,-2.3125,-2.3125,-2.3125,-2.3125,-2.3125,-2.3125,-2.3125,-2.3125,-2.3125,-2.3125,-2.3125,-2.3424,-2.4208,-2.5007,-2.5467,-2.6496,-2.7137,-2.7509,-2.756,-2.756,-2.756,-2.756,-2.756,-2.756,-2.756,-2.756,-2.756,-2.756,-2.756,-2.756,-2.756,-2.756,-2.7709,-2.7934,-2.8517,-2.9505,-2.9909,-3.101,-3.2074,-3.2586,-3.3039,-3.3836,-3.4186,-3.4399,-3.5068,-3.5412,-3.584,-3.6236,-3.6586,-3.6823,-3.7026,-3.7787,-3.865,-3.892,-3.9326,-3.9715,-3.9952,-3.9901,-4.002,-4.0003,-4.007,-4.0087,-4.0087,-4.0087,-4.0087,-4.0087,-4.0087,-4.0087,-4.0087,-4.0087,-4.0087,-4.0087,-4.0087,-4.0087,-4.0087,-4.0087,-4.0087,-4.0087,-4.0087,-4.0087,-4.0087,-4.0087,-4.0121,-4.0303,-4.0642,-4.1133,-4.169,-4.2324,-4.2921,-2.0576,-2.0576,-2.0576,-2.0576,-2.0576,-2.0644,-2.1088,-2.1659,-2.1728,-2.1977,-2.2673,-2.393,-2.4073,-2.4462,-2.4915,-2.5249,-2.5109,-2.4569,-2.3803,-2.3276,-2.3175,-2.3125,-2.3125,-2.3125,-2.3125,-2.3125,-2.3125,-2.3125,-2.3125,-2.3125,-2.3125,-2.3125,-2.3125,-2.3125,-2.3125,-2.3125,-2.3125,-2.3305,-2.4092,-2.5063,-2.5453,-2.6481,-2.7071,-2.756,-2.756,-2.756,-2.756,-2.756,-2.756,-2.756,-2.756,-2.756,-2.756,-2.756,-2.756,-2.756,-2.756,-2.756,-2.756,-2.773,-2.821,-2.9355,-2.9594,-3.0407,-3.175,-3.229,-3.2734,-3.3182,-3.3582,-3.3887,-3.4382,-3.4706,-3.4961,-3.5321,-3.5503,-3.5622,-3.5859,-3.6823,-3.7635,-3.8379,-3.865,-3.8988,-3.9377,-3.9546,-3.9749,-3.9918,-3.9986,-4.0054,-4.0037,-4.0054,-4.002,-4.007,-4.0087,-4.0087,-4.0087,-4.0087,-4.0087,-4.0087,-4.0087,-4.0087,-4.0087,-4.0087,-4.0087,-4.0087,-4.0087,-4.0087,-4.0087,-4.0087,-4.0121,-4.0221,-4.0385,-4.0797,-4.1402,-4.2103,-4.2657,-2.0576,-2.0576,-2.0576,-2.0576,-2.0576,-2.0576,-2.0702,-2.072,-2.047,-2.071,-2.1438,-2.1564,-2.2702,-2.3628,-2.3843,-2.3969,-2.4064,-2.3891,-2.364,-2.3201,-2.3125,-2.3125,-2.3125,-2.3125,-2.3125,-2.3125,-2.3125,-2.3125,-2.3125,-2.3125,-2.3125,-2.3125,-2.3125,-2.3125,-2.3125,-2.3125,-2.3125,-2.3138,-2.3636,-2.4323,-2.5287,-2.5946,-2.6707,-2.7458,-2.756,-2.756,-2.756,-2.756,-2.756,-2.756,-2.756,-2.756,-2.756,-2.756,-2.756,-2.756,-2.756,-2.756,-2.756,-2.759,-2.7979,-2.8667,-2.928,-2.9834,-3.0805,-3.1407,-3.2059,-3.2625,-3.3198,-3.3582,-3.3735,-3.417,-3.4576,-3.4878,-3.5253,-3.5577,-3.569,-3.5994,-3.6485,-3.7195,-3.7686,-3.8227,-3.865,-3.8971,-3.9089,-3.9259,-3.9411,-3.9648,-3.9834,-3.9868,-3.9901,-3.9986,-4.0087,-4.0087,-4.0087,-4.0087,-4.0087,-4.0087,-4.0087,-4.0087,-4.0087,-4.0087,-4.0087,-4.0087,-4.0087,-4.0087,-4.0087,-4.0087,-4.0121,-4.0121,-4.0303,-4.0466,-4.1059,-4.169,-4.2103,-2.0576,-2.0576,-2.0576,-2.0576,-2.0576,-2.0576,-2.043,-2.0215,-2.0,-1.9871,-2.0072,-2.0521,-2.1204,-2.2002,-2.2442,-2.2616,-2.2969,-2.3429,-2.3315,-2.3138,-2.3125,-2.3125,-2.3125,-2.3125,-2.3125,-2.3125,-2.3125,-2.3125,-2.3125,-2.3125,-2.3125,-2.3125,-2.3125,-2.3125,-2.3125,-2.3125,-2.3125,-2.3138,-2.3531,-2.4208,-2.5398,-2.6,-2.6982,-2.7357,-2.756,-2.756,-2.756,-2.756,-2.756,-2.756,-2.756,-2.756,-2.756,-2.756,-2.756,-2.756,-2.756,-2.756,-2.756,-2.759,-2.7904,-2.8562,-2.919,-2.9654,-3.0208,-3.0908,-3.1652,-3.2007,-3.2216,-3.2664,-3.3039,-3.3684,-3.4186,-3.4624,-3.5161,-3.5532,-3.5639,-3.5639,-3.5893,-3.6265,-3.6857,-3.7483,-3.8007,-3.8261,-3.8379,-3.8565,-3.8785,-3.9106,-3.9462,-3.9411,-3.936,-3.9698,-3.9766,-3.9766,-3.9732,-3.9715,-3.9851,-3.9918,-3.9969,-3.9969,-4.0087,-4.0087,-4.0087,-4.0087,-4.0087,-4.0087,-4.0087,-4.0087,-4.0087,-4.0087,-4.0221,-4.0368,-4.0733,-4.1206,-4.1647,-2.0576,-2.0634,-2.0469,-2.0439,-2.042,-2.0342,-2.0098,-1.9814,-1.9668,-1.9326,-1.8919,-1.9747,-2.0216,-2.0503,-2.1085,-2.1735,-2.2099,-2.2787,-2.2896,-2.3138,-2.3125,-2.3125,-2.3125,-2.3125,-2.3125,-2.3125,-2.3125,-2.3125,-2.3125,-2.3125,-2.3125,-2.3125,-2.3125,-2.3125,-2.3125,-2.3125,-2.3125,-2.3305,-2.3708,-2.4439,-2.5508,-2.6654,-2.7473,-2.756,-2.756,-2.756,-2.756,-2.756,-2.756,-2.756,-2.756,-2.756,-2.756,-2.756,-2.756,-2.756,-2.756,-2.756,-2.756,-2.7625,-2.7784,-2.8248,-2.8981,-2.9355,-2.9909,-3.0717,-3.1524,-3.1467,-3.1582,-3.1781,-3.2367,-3.2986,-3.3633,-3.4284,-3.4894,-3.5424,-3.5577,-3.5639,-3.5639,-3.5977,-3.6332,-3.6654,-3.711,-3.7533,-3.7652,-3.7855,-3.8075,-3.8413,-3.87,-3.8481,-3.8548,-3.9123,-3.936,-3.936,-3.9309,-3.9191,-3.936,-3.9563,-3.9648,-3.9698,-3.9901,-4.0087,-3.9986,-3.9817,-4.0087,-4.0087,-4.0087,-4.0054,-4.0087,-4.0087,-4.0087,-4.0204,-4.0497,-4.0827,-4.1223,-2.0576,-2.0527,-2.0137,-1.999,-1.9941,-1.9629,-1.9434,-1.9326,-1.9004,-1.8984,-1.8994,-1.8665,-1.9331,-2.0323,-2.1084,-2.1935,-2.2456,-2.2506,-2.2628,-2.3065,-2.3125,-2.3125,-2.3125,-2.3125,-2.3125,-2.3125,-2.3125,-2.3125,-2.3125,-2.3125,-2.3125,-2.3125,-2.3125,-2.3125,-2.3125,-2.3125,-2.3125,-2.3138,-2.3245,-2.4021,-2.5315,-2.6293,-2.7034,-2.7458,-2.756,-2.756,-2.756,-2.756,-2.756,-2.756,-2.756,-2.756,-2.756,-2.756,-2.756,-2.756,-2.756,-2.756,-2.756,-2.7625,-2.764,-2.7919,-2.8412,-2.8966,-2.9684,-3.0552,-3.133,-3.1467,-3.1467,-3.164,-3.1951,-3.2437,-3.3039,-3.3786,-3.4592,-3.5161,-3.547,-3.5639,-3.5639,-3.5656,-3.5994,-3.5926,-3.6079,-3.6535,-3.6924,-3.7144,-3.7398,-3.7719,-3.8007,-3.7889,-3.7686,-3.8227,-3.8717,-3.8768,-3.8785,-3.87,-3.8785,-3.9073,-3.9157,-3.9259,-3.9377,-3.9462,-3.9478,-3.9428,-3.9665,-3.9783,-3.9631,-3.9665,-3.9952,-4.0087,-4.0087,-4.0087,-4.0121,-4.0497,-4.0827,-1.9844,-1.9824,-1.9639,-1.9561,-1.9541,-1.9355,-1.915,-1.8906,-1.873,-1.8603,-1.8525,-1.8213,-1.8507,-1.9455,-2.0313,-2.119,-2.1765,-2.2187,-2.2702,-2.3005,-2.3125,-2.3125,-2.3125,-2.3125,-2.3125,-2.3125,-2.3125,-2.3125,-2.3125,-2.3125,-2.3125,-2.3113,-2.3125,-2.3125,-2.3075,-2.3125,-2.3125,-2.3352,-2.3891,-2.4747,-2.554,-2.6504,-2.7255,-2.7575,-2.7575,-2.756,-2.756,-2.756,-2.756,-2.756,-2.756,-2.756,-2.756,-2.756,-2.756,-2.756,-2.756,-2.756,-2.756,-2.756,-2.756,-2.7724,-2.8203,-2.8906,-2.9535,-3.0088,-3.0672,-3.0926,-3.1258,-3.158,-3.2074,-3.2788,-3.3427,-3.4071,-3.4526,-3.5035,-3.5453,-3.5532,-3.5639,-3.5639,-3.5639,-3.5639,-3.5639,-3.5926,-3.6282,-3.6383,-3.6552,-3.6772,-3.7297,-3.7702,-3.7466,-3.728,-3.7753,-3.8108,-3.8159,-3.8159,-3.8159,-3.8345,-3.8362,-3.8481,-3.8599,-3.8667,-3.8717,-3.8633,-3.8616,-3.8751,-3.8937,-3.9394,-3.9766,-3.9935,-4.0087,-3.9952,-3.9851,-4.0121,-4.0466,-1.9062,-1.8984,-1.9082,-1.9131,-1.9111,-1.9023,-1.8779,-1.8496,-1.8467,-1.8301,-1.8076,-1.8008,-1.8076,-1.8472,-1.9539,-2.0302,-2.1112,-2.2063,-2.2702,-2.2944,-2.3125,-2.3125,-2.3125,-2.3125,-2.3125,-2.3125,-2.3125,-2.3125,-2.3125,-2.3113,-2.3015,-2.2902,-2.3002,-2.3,-2.2937,-2.2874,-2.279,-2.2908,-2.3942,-2.4776,-2.5533,-2.6385,-2.7093,-2.7458,-2.756,-2.756,-2.756,-2.756,-2.756,-2.756,-2.756,-2.756,-2.756,-2.756,-2.756,-2.756,-2.756,-2.756,-2.756,-2.756,-2.756,-2.7769,-2.8158,-2.8801,-2.919,-2.943,-2.9699,-3.0268,-3.0836,-3.1516,-3.2214,-3.2725,-3.3374,-3.4023,-3.4695,-3.5136,-3.5464,-3.5498,-3.5577,-3.5639,-3.5639,-3.5639,-3.5639,-3.5639,-3.569,-3.5673,-3.5757,-3.5926,-3.6451,-3.7127,-3.6941,-3.6569,-3.6721,-3.7077,-3.7127,-3.7263,-3.7398,-3.7601,-3.7618,-3.7804,-3.8007,-3.8041,-3.8041,-3.7905,-3.7702,-3.7804,-3.8024,-3.8819,-3.9529,-3.9276,-3.914,-3.9478,-3.9614,-3.9834,-4.0087,-1.8457,-1.8135,-1.8525,-1.8611,-1.8652,-1.8262,-1.8096,-1.8105,-1.8076,-1.8066,-1.8018,-1.8008,-1.8395,-1.8844,-1.8844,-1.9748,-2.1616,-2.1037,-2.1865,-2.2689,-2.3125,-2.3125,-2.3125,-2.3125,-2.3125,-2.3125,-2.3125,-2.3125,-2.3125,-2.3125,-2.2836,-2.2498,-2.2899,-2.2749,-2.2636,-2.2611,-2.2606,-2.274,-2.3438,-2.4315,-2.5039,-2.5807,-2.6375,-2.7306,-2.7575,-2.756,-2.756,-2.756,-2.756,-2.756,-2.756,-2.756,-2.756,-2.756,-2.756,-2.756,-2.756,-2.756,-2.756,-2.756,-2.756,-2.7769,-2.8098,-2.8487,-2.8652,-2.925,-2.9564,-2.9684,-3.0223,-3.0894,-3.1359,-3.1799,-3.2612,-3.3389,-3.3966,-3.4256,-3.4718,-3.5328,-3.5407,-3.5577,-3.5639,-3.5639,-3.5639,-3.5639,-3.5639,-3.5639,-3.5639,-3.5791,-3.5774,-3.6214,-3.6079,-3.5876,-3.5842,-3.5926,-3.5893,-3.6096,-3.6502,-3.6738,-3.684,-3.7195,-3.7567,-3.7516,-3.7212,-3.7178,-3.7009,-3.706,-3.7127,-3.7635,-3.8007,-3.8041,-3.821,-3.87,-3.9056,-3.9259,-3.958,-1.8154,-1.8027,-1.8184,-1.8252,-1.8232,-1.8076,-1.8008,-1.8008,-1.8008,-1.8008,-1.8008,-1.8008,-1.8202,-1.8462,-1.8911,-1.9233,-2.0398,-2.1239,-2.1753,-2.231,-2.275,-2.3065,-2.3125,-2.3125,-2.3125,-2.3125,-2.3125,-2.3125,-2.3125,-2.3088,-2.251,-2.2334,-2.2673,-2.2698,-2.256,-2.251,-2.271,-2.2981,-2.3438,-2.4249,-2.4696,-2.5737,-2.6336,-2.6841,-2.7458,-2.756,-2.756,-2.756,-2.756,-2.756,-2.756,-2.756,-2.756,-2.756,-2.756,-2.756,-2.756,-2.756,-2.756,-2.756,-2.756,-2.7655,-2.7865,-2.7993,-2.8083,-2.8592,-2.8906,-2.9175,-2.9549,-3.0204,-3.0809,-3.1016,-3.1451,-3.2401,-3.2982,-3.3272,-3.374,-3.4349,-3.4898,-3.4894,-3.5307,-3.5639,-3.5639,-3.5639,-3.5639,-3.5639,-3.5639,-3.5639,-3.5639,-3.5639,-3.5639,-3.5639,-3.5639,-3.5639,-3.5639,-3.569,-3.574,-3.5943,-3.6146,-3.6485,-3.6823,-3.6451,-3.6214,-3.6231,-3.6315,-3.6332,-3.6366,-3.6383,-3.6705,-3.728,-3.7702,-3.8091,-3.8396,-3.8633,-3.8988,-1.8008,-1.8008,-1.8008,-1.8008,-1.8008,-1.8008,-1.8008,-1.8008,-1.8008,-1.8008,-1.8008,-1.8008,-1.8008,-1.8212,-1.8529,-1.911,-1.9628,-2.0462,-2.129,-2.1928,-2.2433,-2.2884,-2.3005,-2.3125,-2.3125,-2.3125,-2.3125,-2.3125,-2.3125,-2.2975,-2.2359,-2.2008,-2.2159,-2.2171,-2.2046,-2.2485,-2.2832,-2.2954,-2.3501,-2.4152,-2.449,-2.5422,-2.6336,-2.6563,-2.7255,-2.756,-2.756,-2.756,-2.756,-2.756,-2.756,-2.756,-2.756,-2.756,-2.756,-2.756,-2.756,-2.756,-2.756,-2.756,-2.756,-2.764,-2.764,-2.7619,-2.7709,-2.8023,-2.8263,-2.8353,-2.8914,-2.9569,-3.0165,-3.0316,-3.0786,-3.1758,-3.1742,-3.2013,-3.2498,-3.3061,-3.3754,-3.4206,-3.4651,-3.498,-3.5605,-3.5605,-3.5639,-3.5639,-3.5639,-3.5639,-3.5639,-3.5639,-3.5639,-3.5639,-3.5639,-3.5639,-3.5639,-3.5673,-3.569,-3.5707,-3.5859,-3.5791,-3.5876,-3.5639,-3.5639,-3.5842,-3.5876,-3.5673,-3.5757,-3.5977,-3.64,-3.6907,-3.7229,-3.7483,-3.7669,-3.7922,-3.8261,-1.7978,-1.8008,-1.7988,-1.7988,-1.7969,-1.8008,-1.8008,-1.8008,-1.8008,-1.8008,-1.8008,-1.8008,-1.8008,-1.7988,-1.8152,-1.8419,-1.893,-1.9412,-2.0245,-2.1424,-2.1966,-2.2433,-2.2884,-2.3125,-2.3125,-2.3125,-2.3125,-2.3113,-2.3037,-2.2673,-2.2071,-2.1518,-2.143,-2.1405,-2.0945,-2.1794,-2.2008,-2.1813,-2.2728,-2.3451,-2.4094,-2.4898,-2.5673,-2.6176,-2.6826,-2.7137,-2.7357,-2.7357,-2.7408,-2.756,-2.756,-2.756,-2.756,-2.756,-2.756,-2.756,-2.756,-2.756,-2.756,-2.756,-2.756,-2.756,-2.756,-2.756,-2.756,-2.7649,-2.7724,-2.7904,-2.8263,-2.8894,-2.93,-2.9614,-3.0206,-3.0527,-3.0449,-3.0688,-3.1131,-3.187,-3.2498,-3.3221,-3.3617,-3.4047,-3.5009,-3.5588,-3.5622,-3.5639,-3.5639,-3.5622,-3.5622,-3.5639,-3.5639,-3.5639,-3.5639,-3.5639,-3.5639,-3.5639,-3.5639,-3.5639,-3.5639,-3.5639,-3.5639,-3.5639,-3.5639,-3.5639,-3.5639,-3.5639,-3.5639,-3.5673,-3.6045,-3.6383,-3.6586,-3.6806,-3.6992,-3.7161,-3.7462,-1.6921,-1.7187,-1.7471,-1.7598,-1.7627,-1.79,-1.8008,-1.8008,-1.8008,-1.8008,-1.8008,-1.8008,-1.8008,-1.7949,-1.7725,-1.7807,-1.8097,-1.8783,-1.9657,-2.0517,-2.1354,-2.2347,-2.2884,-2.3078,-2.3065,-2.3125,-2.3113,-2.2874,-2.256,-2.2259,-2.1707,-2.1197,-2.0715,-2.0727,-2.1117,-2.1669,-2.1619,-2.1644,-2.2171,-2.2748,-2.3077,-2.4028,-2.4824,-2.5148,-2.5849,-2.6549,-2.693,-2.6997,-2.7255,-2.7509,-2.756,-2.756,-2.756,-2.756,-2.756,-2.756,-2.756,-2.756,-2.756,-2.756,-2.756,-2.756,-2.756,-2.756,-2.756,-2.756,-2.7575,-2.7575,-2.7799,-2.8233,-2.8193,-2.8243,-2.861,-2.8732,-2.8813,-2.918,-2.9679,-3.0588,-3.1334,-3.2031,-3.2506,-3.3454,-3.4343,-3.4952,-3.5131,-3.5334,-3.5334,-3.5537,-3.5605,-3.5622,-3.5639,-3.5639,-3.5639,-3.5639,-3.5639,-3.5639,-3.5639,-3.5639,-3.5639,-3.5639,-3.5639,-3.5639,-3.5639,-3.5639,-3.5639,-3.5639,-3.5639,-3.5639,-3.5639,-3.5825,-3.6096,-3.6197,-3.6282,-3.6332,-3.6429,-1.6021,-1.6367,-1.6902,-1.7158,-1.7227,-1.7617,-1.7861,-1.7978,-1.8008,-1.8008,-1.8008,-1.8008,-1.791,-1.7744,-1.7529,-1.7246,-1.7252,-1.7644,-1.8554,-1.9467,-2.0591,-2.159,-2.2372,-2.2919,-2.3065,-2.3088,-2.2887,-2.2636,-2.2334,-2.1907,-2.1217,-2.0464,-2.0024,-2.025,-2.0715,-2.0978,-2.1192,-2.1305,-2.1694,-2.202,-2.2458,-2.3184,-2.4006,-2.4399,-2.5122,-2.6068,-2.6457,-2.6774,-2.7086,-2.7444,-2.756,-2.756,-2.756,-2.756,-2.756,-2.756,-2.756,-2.756,-2.756,-2.756,-2.756,-2.756,-2.756,-2.756,-2.756,-2.756,-2.756,-2.756,-2.756,-2.7625,-2.764,-2.756,-2.767,-2.7805,-2.7925,-2.8336,-2.8544,-2.9419,-3.0002,-3.0703,-3.142,-3.2446,-3.3583,-3.4122,-3.4523,-3.4776,-3.5013,-3.525,-3.5504,-3.5605,-3.5622,-3.5639,-3.5639,-3.5639,-3.5639,-3.5639,-3.5639,-3.5639,-3.5639,-3.5639,-3.5639,-3.5639,-3.5639,-3.5639,-3.5639,-3.5639,-3.5639,-3.5639,-3.5639,-3.5639,-3.5723,-3.574,-3.5639,-3.5707,-3.587,-1.5423,-1.5551,-1.63,-1.6583,-1.6714,-1.7113,-1.7598,-1.7988,-1.8008,-1.7988,-1.7969,-1.7939,-1.7725,-1.7402,-1.7305,-1.7051,-1.6768,-1.6772,-1.7561,-1.8501,-1.9503,-2.0623,-2.1667,-2.2395,-2.2524,-2.2677,-2.256,-2.2184,-2.2108,-2.1255,-2.0439,-2.0024,-1.9861,-1.9962,-2.0175,-2.0413,-2.0668,-2.079,-2.1154,-2.1418,-2.1736,-2.2579,-2.305,-2.3586,-2.445,-2.5308,-2.5873,-2.6379,-2.696,-2.7339,-2.7515,-2.7545,-2.756,-2.756,-2.756,-2.756,-2.756,-2.756,-2.756,-2.756,-2.756,-2.756,-2.756,-2.756,-2.756,-2.756,-2.756,-2.756,-2.756,-2.756,-2.756,-2.756,-2.7575,-2.7655,-2.7655,-2.7745,-2.7745,-2.8178,-2.869,-2.927,-2.994,-3.0925,-3.2331,-3.3094,-3.3725,-3.4083,-3.4336,-3.459,-3.4912,-3.5554,-3.5588,-3.5639,-3.5639,-3.5639,-3.5622,-3.5605,-3.5639,-3.5639,-3.5639,-3.5639,-3.5639,-3.5639,-3.5639,-3.5639,-3.5639,-3.5639,-3.5639,-3.5639,-3.5639,-3.5639,-3.5639,-3.5639,-3.5639,-3.5622,-3.5796,-1.349,-1.3853,-1.4916,-1.5436,-1.5554,-1.6465,-1.7324,-1.7949,-1.7998,-1.7861,-1.7559,-1.7568,-1.7314,-1.6924,-1.6592,-1.6406,-1.6309,-1.6382,-1.6951,-1.7704,-1.8366,-1.9512,-2.0452,-2.1162,-2.1522,-2.1773,-2.1807,-2.1556,-2.1104,-2.0363,-2.0075,-1.9849,-1.9798,-1.9798,-1.9861,-1.9974,-2.0062,-2.0238,-2.0677,-2.0828,-2.1041,-2.175,-2.2052,-2.2509,-2.2971,-2.373,-2.4293,-2.5113,-2.5696,-2.6243,-2.7104,-2.753,-2.756,-2.756,-2.756,-2.756,-2.756,-2.756,-2.756,-2.7545,-2.7515,-2.747,-2.7565,-2.756,-2.756,-2.756,-2.756,-2.756,-2.756,-2.756,-2.756,-2.756,-2.756,-2.756,-2.756,-2.756,-2.756,-2.772,-2.8187,-2.856,-2.9164,-3.0022,-3.1348,-3.2188,-3.2784,-3.3237,-3.3592,-3.3846,-3.4235,-3.4844,-3.5351,-3.5385,-3.5318,-3.5216,-3.5504,-3.5526,-3.5605,-3.5639,-3.5639,-3.5639,-3.5639,-3.5639,-3.5639,-3.5639,-3.5639,-3.5639,-3.5639,-3.5639,-3.5639,-3.5639,-3.5639,-3.5639,-3.5622,-3.5622,-3.5783,-1.2336,-1.2674,-1.3663,-1.4409,-1.5031,-1.6028,-1.6885,-1.7432,-1.751,-1.7344,-1.7148,-1.7129,-1.6875,-1.6484,-1.6211,-1.6006,-1.5811,-1.582,-1.6198,-1.6789,-1.7434,-1.8371,-1.9222,-2.0087,-2.0737,-2.0969,-2.1119,-2.1041,-2.0552,-2.0125,-1.9798,-1.9811,-1.9798,-1.9798,-1.9823,-1.9836,-1.9823,-1.9949,-2.0125,-2.0275,-2.0539,-2.0865,-2.1079,-2.1247,-2.15,-2.2202,-2.287,-2.3961,-2.4796,-2.5471,-2.6579,-2.6767,-2.6856,-2.6961,-2.7445,-2.743,-2.723,-2.7171,-2.7115,-2.6811,-2.6961,-2.7111,-2.725,-2.7385,-2.7485,-2.756,-2.756,-2.756,-2.756,-2.756,-2.756,-2.756,-2.756,-2.756,-2.756,-2.756,-2.756,-2.756,-2.789,-2.8201,-2.8792,-2.9516,-3.0373,-3.1197,-3.1758,-3.1967,-3.2429,-3.2949,-3.3339,-3.388,-3.4539,-3.4912,-3.4793,-3.4692,-3.503,-3.529,-3.5334,-3.5402,-3.5639,-3.5639,-3.5639,-3.5639,-3.5639,-3.5639,-3.5639,-3.5639,-3.5639,-3.5639,-3.5639,-3.5588,-3.5554,-3.5605,-3.5605,-3.5622,-3.5871,-1.1717,-1.1772,-1.2634,-1.3752,-1.486,-1.5702,-1.625,-1.6539,-1.6631,-1.6587,-1.667,-1.6689,-1.6426,-1.6064,-1.5918,-1.5752,-1.5596,-1.5527,-1.5664,-1.6056,-1.6665,-1.7434,-1.8261,-1.9319,-1.9767,-2.0173,-2.0441,-2.0526,-2.0439,-2.0087,-1.9798,-1.9798,-1.9798,-1.9798,-1.9798,-1.9798,-1.9798,-1.9836,-1.9874,-1.9949,-2.0024,-2.03,-2.0668,-2.0825,-2.1508,-2.2432,-2.3098,-2.3942,-2.4815,-2.5132,-2.5597,-2.5687,-2.5959,-2.6213,-2.6782,-2.6931,-2.6707,-2.6572,-2.6422,-2.6168,-2.6183,-2.6348,-2.6527,-2.6841,-2.7081,-2.7535,-2.761,-2.756,-2.756,-2.756,-2.756,-2.756,-2.756,-2.756,-2.756,-2.756,-2.756,-2.756,-2.7675,-2.7974,-2.8201,-2.8839,-2.9249,-3.003,-3.0635,-3.0738,-3.1191,-3.19,-3.2425,-3.2916,-3.3558,-3.4218,-3.4235,-3.4184,-3.4489,-3.4742,-3.4895,-3.5064,-3.5318,-3.5622,-3.5605,-3.5605,-3.5639,-3.5639,-3.5639,-3.5639,-3.5639,-3.5622,-3.552,-3.5351,-3.5368,-3.5476,-3.5554,-3.552,-3.5898,-1.0863,-1.1045,-1.2397,-1.3554,-1.4409,-1.5203,-1.5635,-1.5723,-1.5723,-1.5947,-1.6172,-1.6191,-1.6006,-1.5664,-1.5625,-1.5518,-1.5459,-1.542,-1.5469,-1.5576,-1.5958,-1.6458,-1.6906,-1.7955,-1.8585,-1.918,-1.9617,-2.001,-2.0037,-1.9886,-1.9798,-1.9798,-1.9798,-1.9798,-1.9798,-1.9798,-1.9798,-1.9798,-1.9798,-1.9798,-1.9861,-1.9861,-2.0064,-2.0101,-2.0668,-2.0784,-2.148,-2.2428,-2.2972,-2.3441,-2.4938,-2.5476,-2.5644,-2.5764,-2.5899,-2.6019,-2.6004,-2.5869,-2.5749,-2.5585,-2.5585,-2.5704,-2.5929,-2.6288,-2.6707,-2.7295,-2.7595,-2.758,-2.756,-2.756,-2.756,-2.756,-2.756,-2.756,-2.756,-2.756,-2.756,-2.756,-2.756,-2.766,-2.776,-2.8042,-2.8415,-2.8919,-2.9406,-2.9897,-3.0349,-3.0883,-3.1409,-3.1901,-3.2577,-3.3169,-3.3541,-3.3643,-3.3964,-3.4049,-3.4134,-3.4404,-3.4658,-3.5047,-3.5453,-3.5301,-3.5115,-3.5487,-3.5639,-3.5351,-3.525,-3.5554,-3.5436,-3.503,-3.4979,-3.503,-3.5148,-3.5165,-3.5736,-1.0618,-1.0744,-1.1965,-1.294,-1.3734,-1.451,-1.505,-1.5352,-1.542,-1.5547,-1.5742,-1.5752,-1.5635,-1.542,-1.542,-1.542,-1.542,-1.542,-1.5439,-1.542,-1.5468,-1.5652,-1.6197,-1.681,-1.7211,-1.7907,-1.8874,-1.9384,-1.9747,-1.9798,-1.9798,-1.9798,-1.9798,-1.9798,-1.9798,-1.9798,-1.9798,-1.9798,-1.9798,-1.9798,-1.9798,-1.9798,-1.9798,-1.9798,-1.9798,-1.9901,-2.0474,-2.1475,-2.1972,-2.2757,-2.4009,-2.4775,-2.4986,-2.5151,-2.5345,-2.5465,-2.542,-2.512,-2.5106,-2.5001,-2.4956,-2.5061,-2.5181,-2.548,-2.6004,-2.6527,-2.7115,-2.7126,-2.75,-2.756,-2.756,-2.756,-2.756,-2.756,-2.756,-2.756,-2.756,-2.756,-2.756,-2.761,-2.766,-2.776,-2.8222,-2.8873,-2.9361,-2.9717,-3.0054,-3.0593,-3.0975,-3.119,-3.1782,-3.2188,-3.2594,-3.3136,-3.3575,-3.3474,-3.3288,-3.3592,-3.3981,-3.4184,-3.4421,-3.4506,-3.4607,-3.4759,-3.4759,-3.4523,-3.4556,-3.4844,-3.4658,-3.415,-3.4269,-3.4489,-3.4607,-3.4776,-3.5317,-1.0618,-1.0681,-1.1469,-1.2197,-1.294,-1.3846,-1.4569,-1.5177,-1.5352,-1.542,-1.5449,-1.5449,-1.542,-1.542,-1.542,-1.542,-1.542,-1.542,-1.542,-1.542,-1.542,-1.5526,-1.5748,-1.6208,-1.681,-1.7468,-1.8328,-1.915,-1.9798,-1.9798,-1.9798,-1.9798,-1.9798,-1.9798,-1.9798,-1.9798,-1.9798,-1.9798,-1.9798,-1.9798,-1.9798,-1.9798,-1.9798,-1.9798,-1.985,-2.0105,-2.051,-2.1042,-2.1623,-2.237,-2.3289,-2.3941,-2.4328,-2.4507,-2.4732,-2.4852,-2.4687,-2.4522,-2.4418,-2.4118,-2.4208,-2.4283,-2.4403,-2.4731,-2.53,-2.5749,-2.6288,-2.6737,-2.7111,-2.738,-2.738,-2.753,-2.753,-2.756,-2.756,-2.756,-2.756,-2.756,-2.756,-2.756,-2.761,-2.7625,-2.8027,-2.8717,-2.9088,-2.9496,-3.0038,-3.0617,-3.1072,-3.1151,-3.1444,-3.1596,-3.1765,-3.2341,-3.2882,-3.2831,-3.2493,-3.2899,-3.3254,-3.3322,-3.3457,-3.3795,-3.3914,-3.3694,-3.3643,-3.3728,-3.3711,-3.388,-3.3592,-3.3322,-3.3711,-3.3981,-3.3897,-3.4134,-3.4759,-1.0618,-1.0688,-1.1476,-1.1888,-1.2251,-1.3528,-1.4273,-1.451,-1.5108,-1.542,-1.542,-1.542,-1.542,-1.542,-1.542,-1.542,-1.542,-1.542,-1.542,-1.542,-1.542,-1.542,-1.5584,-1.6036,-1.7146,-1.7852,-1.8394,-1.9044,-1.9695,-1.9798,-1.9798,-1.9798,-1.9798,-1.9798,-1.9798,-1.9798,-1.9798,-1.9798,-1.9798,-1.9798,-1.9798,-1.9798,-1.9798,-1.9798,-1.9798,-1.9901,-2.0194,-2.1051,-2.152,-2.2132,-2.2905,-2.3481,-2.3775,-2.388,-2.4073,-2.4193,-2.4014,-2.3984,-2.3819,-2.3729,-2.3879,-2.3864,-2.4014,-2.4178,-2.4582,-2.4837,-2.533,-2.5794,-2.6183,-2.6632,-2.6797,-2.729,-2.744,-2.753,-2.756,-2.756,-2.756,-2.756,-2.756,-2.756,-2.761,-2.7625,-2.7675,-2.8174,-2.84,-2.8857,-2.9496,-3.0081,-3.0535,-3.0838,-3.1151,-3.1134,-3.1095,-3.1207,-3.1596,-3.185,-3.1782,-3.2205,-3.2544,-3.2628,-3.2882,-3.3339,-3.3355,-3.2966,-3.3102,-3.3288,-3.3237,-3.2933,-3.2848,-3.273,-3.3203,-3.3457,-3.3339,-3.3474,-3.4049]}]]